<?xml version="1.0" encoding="UTF-8" standalone="no" ?>
<gpx xmlns="http://www.topografix.com/GPX/1/1" xmlns:xsi="http://www.w3.org/2001/XMLSchema-instance" xsi:schemaLocation="http://www.topografix.com/GPX/1/1 http://www.topografix.com/GPX/1/1/gpx.xsd" version="1.1" creator="VisuGPX - https://www.visugpx.com">
  <metadata>
    <name>Conlie St Pierre sur Orthe</name>
    <desc><![CDATA[8ème étape du circuit Tours Mont St Michel]]></desc>
  </metadata>
  <trk>
    <name><![CDATA[2016-06-20-01]]></name>
    <trkseg>
      <trkpt lat="48.12155" lon="-0.02072">
        <ele>159.7</ele>
        <time>2016-06-20T05:12:38Z</time>
      </trkpt>
      <trkpt lat="48.12134" lon="-0.0209">
        <ele>150.9</ele>
        <time>2016-06-20T05:12:39Z</time>
      </trkpt>
      <trkpt lat="48.12124" lon="-0.02099">
        <ele>143.8</ele>
        <time>2016-06-20T05:12:40Z</time>
      </trkpt>
      <trkpt lat="48.12143" lon="-0.02068">
        <ele>122</ele>
        <time>2016-06-20T05:12:47Z</time>
      </trkpt>
      <trkpt lat="48.12151" lon="-0.02062">
        <ele>110.6</ele>
        <time>2016-06-20T05:13:17Z</time>
      </trkpt>
      <trkpt lat="48.12161" lon="-0.02059">
        <ele>111.1</ele>
        <time>2016-06-20T05:13:33Z</time>
      </trkpt>
      <trkpt lat="48.1217" lon="-0.02058">
        <ele>111.2</ele>
        <time>2016-06-20T05:13:44Z</time>
      </trkpt>
      <trkpt lat="48.1218" lon="-0.02054">
        <ele>110.5</ele>
        <time>2016-06-20T05:14:01Z</time>
      </trkpt>
      <trkpt lat="48.12185" lon="-0.02041">
        <ele>110.5</ele>
        <time>2016-06-20T05:14:16Z</time>
      </trkpt>
      <trkpt lat="48.12191" lon="-0.0203">
        <ele>110.9</ele>
        <time>2016-06-20T05:14:25Z</time>
      </trkpt>
      <trkpt lat="48.12192" lon="-0.02015">
        <ele>110.9</ele>
        <time>2016-06-20T05:14:35Z</time>
      </trkpt>
      <trkpt lat="48.12193" lon="-0.02002">
        <ele>111</ele>
        <time>2016-06-20T05:14:43Z</time>
      </trkpt>
      <trkpt lat="48.12194" lon="-0.01988">
        <ele>110.9</ele>
        <time>2016-06-20T05:14:53Z</time>
      </trkpt>
      <trkpt lat="48.12196" lon="-0.01973">
        <ele>112</ele>
        <time>2016-06-20T05:15:03Z</time>
      </trkpt>
      <trkpt lat="48.12194" lon="-0.01958">
        <ele>112</ele>
        <time>2016-06-20T05:15:11Z</time>
      </trkpt>
      <trkpt lat="48.12193" lon="-0.01945">
        <ele>112.2</ele>
        <time>2016-06-20T05:15:19Z</time>
      </trkpt>
      <trkpt lat="48.12192" lon="-0.0193">
        <ele>112.3</ele>
        <time>2016-06-20T05:15:27Z</time>
      </trkpt>
      <trkpt lat="48.12192" lon="-0.01915">
        <ele>112.5</ele>
        <time>2016-06-20T05:15:35Z</time>
      </trkpt>
      <trkpt lat="48.12194" lon="-0.01902">
        <ele>112.3</ele>
        <time>2016-06-20T05:15:44Z</time>
      </trkpt>
      <trkpt lat="48.12193" lon="-0.01887">
        <ele>114.2</ele>
        <time>2016-06-20T05:16:02Z</time>
      </trkpt>
      <trkpt lat="48.12193" lon="-0.01873">
        <ele>114.5</ele>
        <time>2016-06-20T05:16:10Z</time>
      </trkpt>
      <trkpt lat="48.12198" lon="-0.0186">
        <ele>114.8</ele>
        <time>2016-06-20T05:16:18Z</time>
      </trkpt>
      <trkpt lat="48.12204" lon="-0.01849">
        <ele>114.8</ele>
        <time>2016-06-20T05:16:26Z</time>
      </trkpt>
      <trkpt lat="48.1221" lon="-0.0184">
        <ele>116.6</ele>
        <time>2016-06-20T05:16:34Z</time>
      </trkpt>
      <trkpt lat="48.12217" lon="-0.01829">
        <ele>116.5</ele>
        <time>2016-06-20T05:16:42Z</time>
      </trkpt>
      <trkpt lat="48.12223" lon="-0.01818">
        <ele>116.9</ele>
        <time>2016-06-20T05:16:52Z</time>
      </trkpt>
      <trkpt lat="48.12232" lon="-0.01815">
        <ele>116.9</ele>
        <time>2016-06-20T05:17:12Z</time>
      </trkpt>
      <trkpt lat="48.1224" lon="-0.01821">
        <ele>116</ele>
        <time>2016-06-20T05:17:26Z</time>
      </trkpt>
      <trkpt lat="48.12248" lon="-0.01829">
        <ele>114.7</ele>
        <time>2016-06-20T05:17:35Z</time>
      </trkpt>
      <trkpt lat="48.12258" lon="-0.01832">
        <ele>114.1</ele>
        <time>2016-06-20T05:17:41Z</time>
      </trkpt>
      <trkpt lat="48.12266" lon="-0.01837">
        <ele>113.6</ele>
        <time>2016-06-20T05:17:49Z</time>
      </trkpt>
      <trkpt lat="48.12276" lon="-0.01839">
        <ele>112.7</ele>
        <time>2016-06-20T05:17:58Z</time>
      </trkpt>
      <trkpt lat="48.12285" lon="-0.01841">
        <ele>113.2</ele>
        <time>2016-06-20T05:18:06Z</time>
      </trkpt>
      <trkpt lat="48.12295" lon="-0.01845">
        <ele>113.7</ele>
        <time>2016-06-20T05:18:13Z</time>
      </trkpt>
      <trkpt lat="48.12304" lon="-0.01852">
        <ele>113.5</ele>
        <time>2016-06-20T05:18:21Z</time>
      </trkpt>
      <trkpt lat="48.12312" lon="-0.01859">
        <ele>113.5</ele>
        <time>2016-06-20T05:18:28Z</time>
      </trkpt>
      <trkpt lat="48.1232" lon="-0.01864">
        <ele>113.4</ele>
        <time>2016-06-20T05:18:36Z</time>
      </trkpt>
      <trkpt lat="48.12329" lon="-0.01869">
        <ele>114.9</ele>
        <time>2016-06-20T05:18:45Z</time>
      </trkpt>
      <trkpt lat="48.12338" lon="-0.01879">
        <ele>115</ele>
        <time>2016-06-20T05:18:54Z</time>
      </trkpt>
      <trkpt lat="48.12347" lon="-0.01883">
        <ele>115.9</ele>
        <time>2016-06-20T05:19:03Z</time>
      </trkpt>
      <trkpt lat="48.12357" lon="-0.01888">
        <ele>116.3</ele>
        <time>2016-06-20T05:19:12Z</time>
      </trkpt>
      <trkpt lat="48.12364" lon="-0.01898">
        <ele>116.7</ele>
        <time>2016-06-20T05:19:18Z</time>
      </trkpt>
      <trkpt lat="48.12372" lon="-0.01905">
        <ele>116.9</ele>
        <time>2016-06-20T05:19:27Z</time>
      </trkpt>
      <trkpt lat="48.12381" lon="-0.01908">
        <ele>118.1</ele>
        <time>2016-06-20T05:19:34Z</time>
      </trkpt>
      <trkpt lat="48.12389" lon="-0.01916">
        <ele>118</ele>
        <time>2016-06-20T05:19:49Z</time>
      </trkpt>
      <trkpt lat="48.12378" lon="-0.01921">
        <ele>118</ele>
        <time>2016-06-20T05:21:20Z</time>
      </trkpt>
      <trkpt lat="48.12374" lon="-0.01934">
        <ele>117.4</ele>
        <time>2016-06-20T05:21:26Z</time>
      </trkpt>
      <trkpt lat="48.12375" lon="-0.01947">
        <ele>117.7</ele>
        <time>2016-06-20T05:21:34Z</time>
      </trkpt>
      <trkpt lat="48.12377" lon="-0.01961">
        <ele>117.3</ele>
        <time>2016-06-20T05:21:39Z</time>
      </trkpt>
      <trkpt lat="48.12377" lon="-0.01976">
        <ele>117.2</ele>
        <time>2016-06-20T05:21:48Z</time>
      </trkpt>
      <trkpt lat="48.12373" lon="-0.0199">
        <ele>116.3</ele>
        <time>2016-06-20T05:21:57Z</time>
      </trkpt>
      <trkpt lat="48.12368" lon="-0.02001">
        <ele>116.1</ele>
        <time>2016-06-20T05:22:04Z</time>
      </trkpt>
      <trkpt lat="48.12363" lon="-0.02014">
        <ele>116.4</ele>
        <time>2016-06-20T05:22:12Z</time>
      </trkpt>
      <trkpt lat="48.12363" lon="-0.02028">
        <ele>116.4</ele>
        <time>2016-06-20T05:22:20Z</time>
      </trkpt>
      <trkpt lat="48.12357" lon="-0.02039">
        <ele>116.1</ele>
        <time>2016-06-20T05:22:28Z</time>
      </trkpt>
      <trkpt lat="48.12353" lon="-0.02051">
        <ele>115.2</ele>
        <time>2016-06-20T05:22:37Z</time>
      </trkpt>
      <trkpt lat="48.12353" lon="-0.02066">
        <ele>114.2</ele>
        <time>2016-06-20T05:22:43Z</time>
      </trkpt>
      <trkpt lat="48.12352" lon="-0.02082">
        <ele>114.4</ele>
        <time>2016-06-20T05:22:52Z</time>
      </trkpt>
      <trkpt lat="48.12348" lon="-0.02094">
        <ele>114</ele>
        <time>2016-06-20T05:22:58Z</time>
      </trkpt>
      <trkpt lat="48.12342" lon="-0.02107">
        <ele>114</ele>
        <time>2016-06-20T05:23:05Z</time>
      </trkpt>
      <trkpt lat="48.12339" lon="-0.0212">
        <ele>114.1</ele>
        <time>2016-06-20T05:23:12Z</time>
      </trkpt>
      <trkpt lat="48.12335" lon="-0.02133">
        <ele>113.7</ele>
        <time>2016-06-20T05:23:20Z</time>
      </trkpt>
      <trkpt lat="48.12331" lon="-0.02146">
        <ele>114.2</ele>
        <time>2016-06-20T05:23:28Z</time>
      </trkpt>
      <trkpt lat="48.12328" lon="-0.0216">
        <ele>114.6</ele>
        <time>2016-06-20T05:23:36Z</time>
      </trkpt>
      <trkpt lat="48.12324" lon="-0.02172">
        <ele>115.2</ele>
        <time>2016-06-20T05:23:44Z</time>
      </trkpt>
      <trkpt lat="48.12318" lon="-0.02183">
        <ele>115.2</ele>
        <time>2016-06-20T05:23:51Z</time>
      </trkpt>
      <trkpt lat="48.12315" lon="-0.02196">
        <ele>115.2</ele>
        <time>2016-06-20T05:24:00Z</time>
      </trkpt>
      <trkpt lat="48.12312" lon="-0.0221">
        <ele>114.9</ele>
        <time>2016-06-20T05:24:08Z</time>
      </trkpt>
      <trkpt lat="48.1231" lon="-0.02224">
        <ele>114.9</ele>
        <time>2016-06-20T05:24:16Z</time>
      </trkpt>
      <trkpt lat="48.12311" lon="-0.02238">
        <ele>116</ele>
        <time>2016-06-20T05:24:25Z</time>
      </trkpt>
      <trkpt lat="48.12317" lon="-0.02249">
        <ele>116.4</ele>
        <time>2016-06-20T05:24:36Z</time>
      </trkpt>
      <trkpt lat="48.12324" lon="-0.0226">
        <ele>117.1</ele>
        <time>2016-06-20T05:24:45Z</time>
      </trkpt>
      <trkpt lat="48.1233" lon="-0.02271">
        <ele>117.3</ele>
        <time>2016-06-20T05:24:55Z</time>
      </trkpt>
      <trkpt lat="48.12336" lon="-0.02282">
        <ele>118.2</ele>
        <time>2016-06-20T05:25:04Z</time>
      </trkpt>
      <trkpt lat="48.12341" lon="-0.02294">
        <ele>118.3</ele>
        <time>2016-06-20T05:25:41Z</time>
      </trkpt>
      <trkpt lat="48.12348" lon="-0.02304">
        <ele>118.5</ele>
        <time>2016-06-20T05:25:49Z</time>
      </trkpt>
      <trkpt lat="48.12357" lon="-0.02309">
        <ele>119.2</ele>
        <time>2016-06-20T05:25:57Z</time>
      </trkpt>
      <trkpt lat="48.12366" lon="-0.02313">
        <ele>119.4</ele>
        <time>2016-06-20T05:26:04Z</time>
      </trkpt>
      <trkpt lat="48.12375" lon="-0.02314">
        <ele>119.6</ele>
        <time>2016-06-20T05:26:11Z</time>
      </trkpt>
      <trkpt lat="48.12385" lon="-0.02316">
        <ele>119.2</ele>
        <time>2016-06-20T05:26:20Z</time>
      </trkpt>
      <trkpt lat="48.12393" lon="-0.0232">
        <ele>119.7</ele>
        <time>2016-06-20T05:26:27Z</time>
      </trkpt>
      <trkpt lat="48.12402" lon="-0.02325">
        <ele>120</ele>
        <time>2016-06-20T05:26:34Z</time>
      </trkpt>
      <trkpt lat="48.12412" lon="-0.0233">
        <ele>120</ele>
        <time>2016-06-20T05:26:43Z</time>
      </trkpt>
      <trkpt lat="48.1242" lon="-0.02336">
        <ele>119</ele>
        <time>2016-06-20T05:26:51Z</time>
      </trkpt>
      <trkpt lat="48.12429" lon="-0.02342">
        <ele>119.8</ele>
        <time>2016-06-20T05:26:58Z</time>
      </trkpt>
      <trkpt lat="48.12438" lon="-0.02347">
        <ele>119.9</ele>
        <time>2016-06-20T05:27:08Z</time>
      </trkpt>
      <trkpt lat="48.12446" lon="-0.02354">
        <ele>120</ele>
        <time>2016-06-20T05:27:15Z</time>
      </trkpt>
      <trkpt lat="48.12454" lon="-0.02359">
        <ele>120.4</ele>
        <time>2016-06-20T05:27:22Z</time>
      </trkpt>
      <trkpt lat="48.12463" lon="-0.02365">
        <ele>120.2</ele>
        <time>2016-06-20T05:27:29Z</time>
      </trkpt>
      <trkpt lat="48.12472" lon="-0.02372">
        <ele>120.1</ele>
        <time>2016-06-20T05:27:37Z</time>
      </trkpt>
      <trkpt lat="48.12481" lon="-0.02377">
        <ele>120.4</ele>
        <time>2016-06-20T05:27:45Z</time>
      </trkpt>
      <trkpt lat="48.1249" lon="-0.02381">
        <ele>120.8</ele>
        <time>2016-06-20T05:27:53Z</time>
      </trkpt>
      <trkpt lat="48.12498" lon="-0.02388">
        <ele>122</ele>
        <time>2016-06-20T05:28:01Z</time>
      </trkpt>
      <trkpt lat="48.12507" lon="-0.02394">
        <ele>121.5</ele>
        <time>2016-06-20T05:28:10Z</time>
      </trkpt>
      <trkpt lat="48.12514" lon="-0.02402">
        <ele>121</ele>
        <time>2016-06-20T05:28:18Z</time>
      </trkpt>
      <trkpt lat="48.12523" lon="-0.02409">
        <ele>121.6</ele>
        <time>2016-06-20T05:28:26Z</time>
      </trkpt>
      <trkpt lat="48.12531" lon="-0.02416">
        <ele>122.1</ele>
        <time>2016-06-20T05:28:34Z</time>
      </trkpt>
      <trkpt lat="48.12539" lon="-0.02423">
        <ele>122</ele>
        <time>2016-06-20T05:28:41Z</time>
      </trkpt>
      <trkpt lat="48.12548" lon="-0.02428">
        <ele>122.6</ele>
        <time>2016-06-20T05:28:49Z</time>
      </trkpt>
      <trkpt lat="48.12556" lon="-0.02436">
        <ele>121.9</ele>
        <time>2016-06-20T05:28:57Z</time>
      </trkpt>
      <trkpt lat="48.12565" lon="-0.02442">
        <ele>122.8</ele>
        <time>2016-06-20T05:29:05Z</time>
      </trkpt>
      <trkpt lat="48.12571" lon="-0.02452">
        <ele>123.3</ele>
        <time>2016-06-20T05:29:14Z</time>
      </trkpt>
      <trkpt lat="48.12578" lon="-0.02461">
        <ele>122.9</ele>
        <time>2016-06-20T05:29:31Z</time>
      </trkpt>
      <trkpt lat="48.12585" lon="-0.02472">
        <ele>123.2</ele>
        <time>2016-06-20T05:29:40Z</time>
      </trkpt>
      <trkpt lat="48.12589" lon="-0.02485">
        <ele>123.5</ele>
        <time>2016-06-20T05:29:49Z</time>
      </trkpt>
      <trkpt lat="48.1259" lon="-0.02499">
        <ele>123.5</ele>
        <time>2016-06-20T05:29:58Z</time>
      </trkpt>
      <trkpt lat="48.12589" lon="-0.02513">
        <ele>124.2</ele>
        <time>2016-06-20T05:30:06Z</time>
      </trkpt>
      <trkpt lat="48.12588" lon="-0.02527">
        <ele>124.5</ele>
        <time>2016-06-20T05:30:15Z</time>
      </trkpt>
      <trkpt lat="48.12588" lon="-0.02541">
        <ele>125</ele>
        <time>2016-06-20T05:30:24Z</time>
      </trkpt>
      <trkpt lat="48.12586" lon="-0.02555">
        <ele>125.5</ele>
        <time>2016-06-20T05:30:33Z</time>
      </trkpt>
      <trkpt lat="48.12582" lon="-0.02568">
        <ele>126</ele>
        <time>2016-06-20T05:30:41Z</time>
      </trkpt>
      <trkpt lat="48.12577" lon="-0.02581">
        <ele>127</ele>
        <time>2016-06-20T05:30:49Z</time>
      </trkpt>
      <trkpt lat="48.12573" lon="-0.02594">
        <ele>127</ele>
        <time>2016-06-20T05:30:57Z</time>
      </trkpt>
      <trkpt lat="48.12569" lon="-0.02606">
        <ele>127.6</ele>
        <time>2016-06-20T05:31:05Z</time>
      </trkpt>
      <trkpt lat="48.12565" lon="-0.02619">
        <ele>127.9</ele>
        <time>2016-06-20T05:31:13Z</time>
      </trkpt>
      <trkpt lat="48.12564" lon="-0.02633">
        <ele>128.2</ele>
        <time>2016-06-20T05:31:21Z</time>
      </trkpt>
      <trkpt lat="48.12563" lon="-0.02648">
        <ele>128.8</ele>
        <time>2016-06-20T05:31:29Z</time>
      </trkpt>
      <trkpt lat="48.12559" lon="-0.02661">
        <ele>129.2</ele>
        <time>2016-06-20T05:31:37Z</time>
      </trkpt>
      <trkpt lat="48.12559" lon="-0.02676">
        <ele>129.3</ele>
        <time>2016-06-20T05:31:46Z</time>
      </trkpt>
      <trkpt lat="48.1256" lon="-0.0269">
        <ele>129.9</ele>
        <time>2016-06-20T05:31:55Z</time>
      </trkpt>
      <trkpt lat="48.12558" lon="-0.02704">
        <ele>129.2</ele>
        <time>2016-06-20T05:32:03Z</time>
      </trkpt>
      <trkpt lat="48.12556" lon="-0.02718">
        <ele>130</ele>
        <time>2016-06-20T05:32:11Z</time>
      </trkpt>
      <trkpt lat="48.12554" lon="-0.02731">
        <ele>130.4</ele>
        <time>2016-06-20T05:32:19Z</time>
      </trkpt>
      <trkpt lat="48.12554" lon="-0.02745">
        <ele>130</ele>
        <time>2016-06-20T05:32:27Z</time>
      </trkpt>
      <trkpt lat="48.12553" lon="-0.02759">
        <ele>129.8</ele>
        <time>2016-06-20T05:32:35Z</time>
      </trkpt>
      <trkpt lat="48.12554" lon="-0.02773">
        <ele>130.2</ele>
        <time>2016-06-20T05:32:43Z</time>
      </trkpt>
      <trkpt lat="48.12552" lon="-0.02788">
        <ele>129.9</ele>
        <time>2016-06-20T05:32:52Z</time>
      </trkpt>
      <trkpt lat="48.12555" lon="-0.02802">
        <ele>129.5</ele>
        <time>2016-06-20T05:33:00Z</time>
      </trkpt>
      <trkpt lat="48.12557" lon="-0.02815">
        <ele>129.4</ele>
        <time>2016-06-20T05:33:09Z</time>
      </trkpt>
      <trkpt lat="48.12562" lon="-0.02829">
        <ele>129.1</ele>
        <time>2016-06-20T05:33:18Z</time>
      </trkpt>
      <trkpt lat="48.12566" lon="-0.02841">
        <ele>129.1</ele>
        <time>2016-06-20T05:33:26Z</time>
      </trkpt>
      <trkpt lat="48.12573" lon="-0.02853">
        <ele>128.8</ele>
        <time>2016-06-20T05:33:34Z</time>
      </trkpt>
      <trkpt lat="48.1258" lon="-0.02864">
        <ele>128.4</ele>
        <time>2016-06-20T05:33:41Z</time>
      </trkpt>
      <trkpt lat="48.12585" lon="-0.02875">
        <ele>127.7</ele>
        <time>2016-06-20T05:33:55Z</time>
      </trkpt>
      <trkpt lat="48.12591" lon="-0.02886">
        <ele>127.3</ele>
        <time>2016-06-20T05:34:04Z</time>
      </trkpt>
      <trkpt lat="48.12599" lon="-0.02895">
        <ele>126.6</ele>
        <time>2016-06-20T05:34:10Z</time>
      </trkpt>
      <trkpt lat="48.12607" lon="-0.02903">
        <ele>126.2</ele>
        <time>2016-06-20T05:34:17Z</time>
      </trkpt>
      <trkpt lat="48.12614" lon="-0.02914">
        <ele>125.4</ele>
        <time>2016-06-20T05:34:25Z</time>
      </trkpt>
      <trkpt lat="48.12622" lon="-0.02922">
        <ele>126.1</ele>
        <time>2016-06-20T05:34:36Z</time>
      </trkpt>
      <trkpt lat="48.12631" lon="-0.02924">
        <ele>125.5</ele>
        <time>2016-06-20T05:34:44Z</time>
      </trkpt>
      <trkpt lat="48.12641" lon="-0.02926">
        <ele>126.1</ele>
        <time>2016-06-20T05:34:52Z</time>
      </trkpt>
      <trkpt lat="48.1265" lon="-0.02929">
        <ele>126.6</ele>
        <time>2016-06-20T05:34:59Z</time>
      </trkpt>
      <trkpt lat="48.12659" lon="-0.0293">
        <ele>126.1</ele>
        <time>2016-06-20T05:35:09Z</time>
      </trkpt>
      <trkpt lat="48.12668" lon="-0.02933">
        <ele>126.4</ele>
        <time>2016-06-20T05:35:16Z</time>
      </trkpt>
      <trkpt lat="48.12677" lon="-0.02938">
        <ele>125.6</ele>
        <time>2016-06-20T05:35:24Z</time>
      </trkpt>
      <trkpt lat="48.12686" lon="-0.02941">
        <ele>126.6</ele>
        <time>2016-06-20T05:35:32Z</time>
      </trkpt>
      <trkpt lat="48.12696" lon="-0.02943">
        <ele>125.7</ele>
        <time>2016-06-20T05:35:41Z</time>
      </trkpt>
      <trkpt lat="48.12706" lon="-0.02944">
        <ele>126</ele>
        <time>2016-06-20T05:35:52Z</time>
      </trkpt>
      <trkpt lat="48.12715" lon="-0.02944">
        <ele>126</ele>
        <time>2016-06-20T05:36:01Z</time>
      </trkpt>
      <trkpt lat="48.12725" lon="-0.02946">
        <ele>125.6</ele>
        <time>2016-06-20T05:36:09Z</time>
      </trkpt>
      <trkpt lat="48.12735" lon="-0.02951">
        <ele>126</ele>
        <time>2016-06-20T05:36:18Z</time>
      </trkpt>
      <trkpt lat="48.12744" lon="-0.02955">
        <ele>126.4</ele>
        <time>2016-06-20T05:36:25Z</time>
      </trkpt>
      <trkpt lat="48.12753" lon="-0.0296">
        <ele>126.4</ele>
        <time>2016-06-20T05:36:35Z</time>
      </trkpt>
      <trkpt lat="48.12762" lon="-0.02966">
        <ele>125.3</ele>
        <time>2016-06-20T05:36:43Z</time>
      </trkpt>
      <trkpt lat="48.1277" lon="-0.02972">
        <ele>126</ele>
        <time>2016-06-20T05:36:51Z</time>
      </trkpt>
      <trkpt lat="48.12779" lon="-0.02979">
        <ele>126.1</ele>
        <time>2016-06-20T05:36:58Z</time>
      </trkpt>
      <trkpt lat="48.12787" lon="-0.02985">
        <ele>126.3</ele>
        <time>2016-06-20T05:37:07Z</time>
      </trkpt>
      <trkpt lat="48.12795" lon="-0.02992">
        <ele>126.6</ele>
        <time>2016-06-20T05:37:15Z</time>
      </trkpt>
      <trkpt lat="48.12804" lon="-0.02998">
        <ele>126.9</ele>
        <time>2016-06-20T05:37:23Z</time>
      </trkpt>
      <trkpt lat="48.12812" lon="-0.03005">
        <ele>127</ele>
        <time>2016-06-20T05:37:31Z</time>
      </trkpt>
      <trkpt lat="48.12821" lon="-0.03012">
        <ele>127.5</ele>
        <time>2016-06-20T05:37:42Z</time>
      </trkpt>
      <trkpt lat="48.12827" lon="-0.03022">
        <ele>128.1</ele>
        <time>2016-06-20T05:37:49Z</time>
      </trkpt>
      <trkpt lat="48.12835" lon="-0.03032">
        <ele>128</ele>
        <time>2016-06-20T05:37:59Z</time>
      </trkpt>
      <trkpt lat="48.1284" lon="-0.03043">
        <ele>128.3</ele>
        <time>2016-06-20T05:38:07Z</time>
      </trkpt>
      <trkpt lat="48.1285" lon="-0.03053">
        <ele>128.8</ele>
        <time>2016-06-20T05:38:17Z</time>
      </trkpt>
      <trkpt lat="48.12857" lon="-0.0306">
        <ele>129.1</ele>
        <time>2016-06-20T05:38:25Z</time>
      </trkpt>
      <trkpt lat="48.12865" lon="-0.03072">
        <ele>128.9</ele>
        <time>2016-06-20T05:38:32Z</time>
      </trkpt>
      <trkpt lat="48.12875" lon="-0.03073">
        <ele>129.3</ele>
        <time>2016-06-20T05:39:01Z</time>
      </trkpt>
      <trkpt lat="48.12877" lon="-0.03087">
        <ele>129.2</ele>
        <time>2016-06-20T05:39:10Z</time>
      </trkpt>
      <trkpt lat="48.12885" lon="-0.03094">
        <ele>129.6</ele>
        <time>2016-06-20T05:39:16Z</time>
      </trkpt>
      <trkpt lat="48.1289" lon="-0.03108">
        <ele>129.2</ele>
        <time>2016-06-20T05:39:24Z</time>
      </trkpt>
      <trkpt lat="48.12897" lon="-0.03118">
        <ele>129.8</ele>
        <time>2016-06-20T05:39:32Z</time>
      </trkpt>
      <trkpt lat="48.12901" lon="-0.0313">
        <ele>130.1</ele>
        <time>2016-06-20T05:39:42Z</time>
      </trkpt>
      <trkpt lat="48.12907" lon="-0.03141">
        <ele>129.7</ele>
        <time>2016-06-20T05:39:53Z</time>
      </trkpt>
      <trkpt lat="48.12915" lon="-0.0315">
        <ele>130.5</ele>
        <time>2016-06-20T05:40:02Z</time>
      </trkpt>
      <trkpt lat="48.12924" lon="-0.03158">
        <ele>130.9</ele>
        <time>2016-06-20T05:40:10Z</time>
      </trkpt>
      <trkpt lat="48.12932" lon="-0.03169">
        <ele>131.4</ele>
        <time>2016-06-20T05:40:21Z</time>
      </trkpt>
      <trkpt lat="48.12939" lon="-0.03179">
        <ele>132.6</ele>
        <time>2016-06-20T05:40:30Z</time>
      </trkpt>
      <trkpt lat="48.12948" lon="-0.03185">
        <ele>132.9</ele>
        <time>2016-06-20T05:40:38Z</time>
      </trkpt>
      <trkpt lat="48.12955" lon="-0.03194">
        <ele>133.6</ele>
        <time>2016-06-20T05:40:47Z</time>
      </trkpt>
      <trkpt lat="48.12962" lon="-0.03205">
        <ele>134.4</ele>
        <time>2016-06-20T05:40:57Z</time>
      </trkpt>
      <trkpt lat="48.1297" lon="-0.03214">
        <ele>134.8</ele>
        <time>2016-06-20T05:41:05Z</time>
      </trkpt>
      <trkpt lat="48.12977" lon="-0.03222">
        <ele>135.5</ele>
        <time>2016-06-20T05:41:15Z</time>
      </trkpt>
      <trkpt lat="48.12985" lon="-0.0323">
        <ele>136.1</ele>
        <time>2016-06-20T05:41:23Z</time>
      </trkpt>
      <trkpt lat="48.12994" lon="-0.03238">
        <ele>136.7</ele>
        <time>2016-06-20T05:41:31Z</time>
      </trkpt>
      <trkpt lat="48.13" lon="-0.03249">
        <ele>138</ele>
        <time>2016-06-20T05:41:41Z</time>
      </trkpt>
      <trkpt lat="48.13006" lon="-0.03259">
        <ele>139</ele>
        <time>2016-06-20T05:41:51Z</time>
      </trkpt>
      <trkpt lat="48.13015" lon="-0.03266">
        <ele>139.7</ele>
        <time>2016-06-20T05:42:33Z</time>
      </trkpt>
      <trkpt lat="48.13021" lon="-0.03276">
        <ele>140.2</ele>
        <time>2016-06-20T05:42:41Z</time>
      </trkpt>
      <trkpt lat="48.13028" lon="-0.03286">
        <ele>141.7</ele>
        <time>2016-06-20T05:42:49Z</time>
      </trkpt>
      <trkpt lat="48.13036" lon="-0.03298">
        <ele>142.3</ele>
        <time>2016-06-20T05:42:59Z</time>
      </trkpt>
      <trkpt lat="48.13042" lon="-0.0331">
        <ele>143.1</ele>
        <time>2016-06-20T05:43:07Z</time>
      </trkpt>
      <trkpt lat="48.13047" lon="-0.03322">
        <ele>142.8</ele>
        <time>2016-06-20T05:43:16Z</time>
      </trkpt>
      <trkpt lat="48.13051" lon="-0.03334">
        <ele>143.8</ele>
        <time>2016-06-20T05:43:24Z</time>
      </trkpt>
      <trkpt lat="48.13054" lon="-0.03348">
        <ele>145.2</ele>
        <time>2016-06-20T05:43:33Z</time>
      </trkpt>
      <trkpt lat="48.13058" lon="-0.0336">
        <ele>146.7</ele>
        <time>2016-06-20T05:43:42Z</time>
      </trkpt>
      <trkpt lat="48.13064" lon="-0.03372">
        <ele>147.1</ele>
        <time>2016-06-20T05:43:50Z</time>
      </trkpt>
      <trkpt lat="48.13068" lon="-0.03384">
        <ele>147.8</ele>
        <time>2016-06-20T05:43:58Z</time>
      </trkpt>
      <trkpt lat="48.13074" lon="-0.03397">
        <ele>148</ele>
        <time>2016-06-20T05:44:06Z</time>
      </trkpt>
      <trkpt lat="48.13075" lon="-0.03411">
        <ele>148.9</ele>
        <time>2016-06-20T05:44:14Z</time>
      </trkpt>
      <trkpt lat="48.13079" lon="-0.03423">
        <ele>150.3</ele>
        <time>2016-06-20T05:44:22Z</time>
      </trkpt>
      <trkpt lat="48.13086" lon="-0.03434">
        <ele>150.6</ele>
        <time>2016-06-20T05:44:29Z</time>
      </trkpt>
      <trkpt lat="48.13084" lon="-0.03448">
        <ele>150.9</ele>
        <time>2016-06-20T05:44:39Z</time>
      </trkpt>
      <trkpt lat="48.13086" lon="-0.03461">
        <ele>151.1</ele>
        <time>2016-06-20T05:44:47Z</time>
      </trkpt>
      <trkpt lat="48.13087" lon="-0.03476">
        <ele>152.1</ele>
        <time>2016-06-20T05:44:56Z</time>
      </trkpt>
      <trkpt lat="48.13089" lon="-0.03491">
        <ele>153.2</ele>
        <time>2016-06-20T05:45:04Z</time>
      </trkpt>
      <trkpt lat="48.13089" lon="-0.03505">
        <ele>153.6</ele>
        <time>2016-06-20T05:45:13Z</time>
      </trkpt>
      <trkpt lat="48.13089" lon="-0.0352">
        <ele>153.8</ele>
        <time>2016-06-20T05:45:22Z</time>
      </trkpt>
      <trkpt lat="48.1309" lon="-0.03534">
        <ele>154.7</ele>
        <time>2016-06-20T05:45:31Z</time>
      </trkpt>
      <trkpt lat="48.1309" lon="-0.03548">
        <ele>154.7</ele>
        <time>2016-06-20T05:45:40Z</time>
      </trkpt>
      <trkpt lat="48.13092" lon="-0.03562">
        <ele>155.6</ele>
        <time>2016-06-20T05:45:50Z</time>
      </trkpt>
      <trkpt lat="48.13097" lon="-0.03575">
        <ele>156</ele>
        <time>2016-06-20T05:45:59Z</time>
      </trkpt>
      <trkpt lat="48.13102" lon="-0.03587">
        <ele>156.6</ele>
        <time>2016-06-20T05:46:08Z</time>
      </trkpt>
      <trkpt lat="48.13107" lon="-0.036">
        <ele>156.9</ele>
        <time>2016-06-20T05:46:16Z</time>
      </trkpt>
      <trkpt lat="48.13113" lon="-0.03611">
        <ele>156.6</ele>
        <time>2016-06-20T05:46:24Z</time>
      </trkpt>
      <trkpt lat="48.13119" lon="-0.03621">
        <ele>157.2</ele>
        <time>2016-06-20T05:46:32Z</time>
      </trkpt>
      <trkpt lat="48.13125" lon="-0.03633">
        <ele>157.1</ele>
        <time>2016-06-20T05:46:40Z</time>
      </trkpt>
      <trkpt lat="48.1313" lon="-0.03645">
        <ele>157.1</ele>
        <time>2016-06-20T05:46:48Z</time>
      </trkpt>
      <trkpt lat="48.13133" lon="-0.03658">
        <ele>157.5</ele>
        <time>2016-06-20T05:46:56Z</time>
      </trkpt>
      <trkpt lat="48.13136" lon="-0.03671">
        <ele>158.2</ele>
        <time>2016-06-20T05:47:03Z</time>
      </trkpt>
      <trkpt lat="48.13139" lon="-0.03685">
        <ele>158.3</ele>
        <time>2016-06-20T05:47:11Z</time>
      </trkpt>
      <trkpt lat="48.13143" lon="-0.03698">
        <ele>158</ele>
        <time>2016-06-20T05:47:19Z</time>
      </trkpt>
      <trkpt lat="48.1315" lon="-0.03708">
        <ele>156.8</ele>
        <time>2016-06-20T05:47:28Z</time>
      </trkpt>
      <trkpt lat="48.13158" lon="-0.03714">
        <ele>156.8</ele>
        <time>2016-06-20T05:47:35Z</time>
      </trkpt>
      <trkpt lat="48.13167" lon="-0.03719">
        <ele>156.2</ele>
        <time>2016-06-20T05:47:42Z</time>
      </trkpt>
      <trkpt lat="48.13176" lon="-0.03716">
        <ele>156.6</ele>
        <time>2016-06-20T05:47:52Z</time>
      </trkpt>
      <trkpt lat="48.13185" lon="-0.03711">
        <ele>156.6</ele>
        <time>2016-06-20T05:48:29Z</time>
      </trkpt>
      <trkpt lat="48.13194" lon="-0.03711">
        <ele>156.1</ele>
        <time>2016-06-20T05:48:36Z</time>
      </trkpt>
      <trkpt lat="48.13204" lon="-0.0371">
        <ele>156.4</ele>
        <time>2016-06-20T05:48:45Z</time>
      </trkpt>
      <trkpt lat="48.13214" lon="-0.03703">
        <ele>156.3</ele>
        <time>2016-06-20T05:48:53Z</time>
      </trkpt>
      <trkpt lat="48.13222" lon="-0.03697">
        <ele>156.3</ele>
        <time>2016-06-20T05:49:02Z</time>
      </trkpt>
      <trkpt lat="48.13232" lon="-0.03696">
        <ele>156.4</ele>
        <time>2016-06-20T05:49:15Z</time>
      </trkpt>
      <trkpt lat="48.13242" lon="-0.03696">
        <ele>156.7</ele>
        <time>2016-06-20T05:49:21Z</time>
      </trkpt>
      <trkpt lat="48.13252" lon="-0.03696">
        <ele>156.8</ele>
        <time>2016-06-20T05:49:31Z</time>
      </trkpt>
      <trkpt lat="48.13261" lon="-0.03701">
        <ele>157.5</ele>
        <time>2016-06-20T05:49:36Z</time>
      </trkpt>
      <trkpt lat="48.1327" lon="-0.03699">
        <ele>156.9</ele>
        <time>2016-06-20T05:50:16Z</time>
      </trkpt>
      <trkpt lat="48.13278" lon="-0.03691">
        <ele>156.9</ele>
        <time>2016-06-20T05:50:23Z</time>
      </trkpt>
      <trkpt lat="48.13287" lon="-0.03684">
        <ele>157.3</ele>
        <time>2016-06-20T05:50:32Z</time>
      </trkpt>
      <trkpt lat="48.13293" lon="-0.03673">
        <ele>156.5</ele>
        <time>2016-06-20T05:50:40Z</time>
      </trkpt>
      <trkpt lat="48.13301" lon="-0.03665">
        <ele>156.4</ele>
        <time>2016-06-20T05:50:48Z</time>
      </trkpt>
      <trkpt lat="48.13309" lon="-0.03659">
        <ele>157.7</ele>
        <time>2016-06-20T05:50:55Z</time>
      </trkpt>
      <trkpt lat="48.13316" lon="-0.03648">
        <ele>158.4</ele>
        <time>2016-06-20T05:51:03Z</time>
      </trkpt>
      <trkpt lat="48.13322" lon="-0.03636">
        <ele>158.4</ele>
        <time>2016-06-20T05:51:11Z</time>
      </trkpt>
      <trkpt lat="48.13328" lon="-0.03626">
        <ele>150.4</ele>
        <time>2016-06-20T05:51:19Z</time>
      </trkpt>
      <trkpt lat="48.13335" lon="-0.03616">
        <ele>157.2</ele>
        <time>2016-06-20T05:51:27Z</time>
      </trkpt>
      <trkpt lat="48.13342" lon="-0.03605">
        <ele>159.3</ele>
        <time>2016-06-20T05:51:35Z</time>
      </trkpt>
      <trkpt lat="48.13348" lon="-0.03593">
        <ele>158.7</ele>
        <time>2016-06-20T05:51:44Z</time>
      </trkpt>
      <trkpt lat="48.13354" lon="-0.0358">
        <ele>158.9</ele>
        <time>2016-06-20T05:51:52Z</time>
      </trkpt>
      <trkpt lat="48.13357" lon="-0.03567">
        <ele>159.1</ele>
        <time>2016-06-20T05:52:00Z</time>
      </trkpt>
      <trkpt lat="48.13361" lon="-0.03554">
        <ele>159.3</ele>
        <time>2016-06-20T05:52:07Z</time>
      </trkpt>
      <trkpt lat="48.13364" lon="-0.03542">
        <ele>159.2</ele>
        <time>2016-06-20T05:52:15Z</time>
      </trkpt>
      <trkpt lat="48.13368" lon="-0.03528">
        <ele>158.6</ele>
        <time>2016-06-20T05:52:24Z</time>
      </trkpt>
      <trkpt lat="48.13371" lon="-0.03515">
        <ele>159.4</ele>
        <time>2016-06-20T05:52:31Z</time>
      </trkpt>
      <trkpt lat="48.13374" lon="-0.03502">
        <ele>159.5</ele>
        <time>2016-06-20T05:52:38Z</time>
      </trkpt>
      <trkpt lat="48.13376" lon="-0.03488">
        <ele>159.8</ele>
        <time>2016-06-20T05:52:47Z</time>
      </trkpt>
      <trkpt lat="48.13377" lon="-0.03474">
        <ele>158.3</ele>
        <time>2016-06-20T05:52:55Z</time>
      </trkpt>
      <trkpt lat="48.13378" lon="-0.0346">
        <ele>158.8</ele>
        <time>2016-06-20T05:53:02Z</time>
      </trkpt>
      <trkpt lat="48.13379" lon="-0.03447">
        <ele>159.3</ele>
        <time>2016-06-20T05:53:11Z</time>
      </trkpt>
      <trkpt lat="48.13379" lon="-0.03432">
        <ele>159.1</ele>
        <time>2016-06-20T05:53:22Z</time>
      </trkpt>
      <trkpt lat="48.13379" lon="-0.03418">
        <ele>159.4</ele>
        <time>2016-06-20T05:53:30Z</time>
      </trkpt>
      <trkpt lat="48.13375" lon="-0.03405">
        <ele>158.8</ele>
        <time>2016-06-20T05:53:36Z</time>
      </trkpt>
      <trkpt lat="48.13368" lon="-0.03392">
        <ele>158.7</ele>
        <time>2016-06-20T05:53:42Z</time>
      </trkpt>
      <trkpt lat="48.13366" lon="-0.03379">
        <ele>159.1</ele>
        <time>2016-06-20T05:53:48Z</time>
      </trkpt>
      <trkpt lat="48.13374" lon="-0.03371">
        <ele>157.7</ele>
        <time>2016-06-20T05:54:08Z</time>
      </trkpt>
      <trkpt lat="48.13382" lon="-0.03378">
        <ele>156.5</ele>
        <time>2016-06-20T05:54:16Z</time>
      </trkpt>
      <trkpt lat="48.1339" lon="-0.03388">
        <ele>156.1</ele>
        <time>2016-06-20T05:54:23Z</time>
      </trkpt>
      <trkpt lat="48.13397" lon="-0.03397">
        <ele>156</ele>
        <time>2016-06-20T05:54:29Z</time>
      </trkpt>
      <trkpt lat="48.13404" lon="-0.03406">
        <ele>155</ele>
        <time>2016-06-20T05:54:37Z</time>
      </trkpt>
      <trkpt lat="48.13411" lon="-0.03417">
        <ele>154.2</ele>
        <time>2016-06-20T05:54:45Z</time>
      </trkpt>
      <trkpt lat="48.13419" lon="-0.03425">
        <ele>154.2</ele>
        <time>2016-06-20T05:54:52Z</time>
      </trkpt>
      <trkpt lat="48.13429" lon="-0.03434">
        <ele>153</ele>
        <time>2016-06-20T05:54:58Z</time>
      </trkpt>
      <trkpt lat="48.13437" lon="-0.03442">
        <ele>152.8</ele>
        <time>2016-06-20T05:55:04Z</time>
      </trkpt>
      <trkpt lat="48.13444" lon="-0.03453">
        <ele>152.2</ele>
        <time>2016-06-20T05:55:12Z</time>
      </trkpt>
      <trkpt lat="48.13443" lon="-0.03467">
        <ele>151.8</ele>
        <time>2016-06-20T05:55:22Z</time>
      </trkpt>
      <trkpt lat="48.13449" lon="-0.03479">
        <ele>150.6</ele>
        <time>2016-06-20T05:55:35Z</time>
      </trkpt>
      <trkpt lat="48.13454" lon="-0.03491">
        <ele>150</ele>
        <time>2016-06-20T05:55:45Z</time>
      </trkpt>
      <trkpt lat="48.13461" lon="-0.03502">
        <ele>149.5</ele>
        <time>2016-06-20T05:55:52Z</time>
      </trkpt>
      <trkpt lat="48.13464" lon="-0.03516">
        <ele>148.3</ele>
        <time>2016-06-20T05:56:01Z</time>
      </trkpt>
      <trkpt lat="48.13469" lon="-0.03529">
        <ele>147</ele>
        <time>2016-06-20T05:56:10Z</time>
      </trkpt>
      <trkpt lat="48.13475" lon="-0.03541">
        <ele>146.2</ele>
        <time>2016-06-20T05:56:19Z</time>
      </trkpt>
      <trkpt lat="48.13481" lon="-0.03551">
        <ele>146.1</ele>
        <time>2016-06-20T05:56:26Z</time>
      </trkpt>
      <trkpt lat="48.13485" lon="-0.03564">
        <ele>146.1</ele>
        <time>2016-06-20T05:56:34Z</time>
      </trkpt>
      <trkpt lat="48.13491" lon="-0.03575">
        <ele>144.5</ele>
        <time>2016-06-20T05:56:42Z</time>
      </trkpt>
      <trkpt lat="48.13497" lon="-0.03586">
        <ele>143.3</ele>
        <time>2016-06-20T05:56:50Z</time>
      </trkpt>
      <trkpt lat="48.13503" lon="-0.03596">
        <ele>141.9</ele>
        <time>2016-06-20T05:56:57Z</time>
      </trkpt>
      <trkpt lat="48.13507" lon="-0.03608">
        <ele>141.4</ele>
        <time>2016-06-20T05:57:05Z</time>
      </trkpt>
      <trkpt lat="48.13513" lon="-0.03619">
        <ele>141.8</ele>
        <time>2016-06-20T05:57:12Z</time>
      </trkpt>
      <trkpt lat="48.13519" lon="-0.0363">
        <ele>141</ele>
        <time>2016-06-20T05:57:21Z</time>
      </trkpt>
      <trkpt lat="48.13526" lon="-0.03642">
        <ele>140.6</ele>
        <time>2016-06-20T05:57:28Z</time>
      </trkpt>
      <trkpt lat="48.13532" lon="-0.03652">
        <ele>140</ele>
        <time>2016-06-20T05:57:35Z</time>
      </trkpt>
      <trkpt lat="48.13538" lon="-0.03663">
        <ele>139.2</ele>
        <time>2016-06-20T05:57:44Z</time>
      </trkpt>
      <trkpt lat="48.13545" lon="-0.03673">
        <ele>138.5</ele>
        <time>2016-06-20T05:57:51Z</time>
      </trkpt>
      <trkpt lat="48.13552" lon="-0.03684">
        <ele>137.6</ele>
        <time>2016-06-20T05:57:58Z</time>
      </trkpt>
      <trkpt lat="48.13558" lon="-0.03696">
        <ele>137.1</ele>
        <time>2016-06-20T05:58:06Z</time>
      </trkpt>
      <trkpt lat="48.13565" lon="-0.03706">
        <ele>136.8</ele>
        <time>2016-06-20T05:58:13Z</time>
      </trkpt>
      <trkpt lat="48.1357" lon="-0.03718">
        <ele>136.9</ele>
        <time>2016-06-20T05:58:21Z</time>
      </trkpt>
      <trkpt lat="48.13575" lon="-0.03729">
        <ele>136.6</ele>
        <time>2016-06-20T05:58:29Z</time>
      </trkpt>
      <trkpt lat="48.13578" lon="-0.03742">
        <ele>136.1</ele>
        <time>2016-06-20T05:58:49Z</time>
      </trkpt>
      <trkpt lat="48.13584" lon="-0.03753">
        <ele>135.4</ele>
        <time>2016-06-20T05:58:56Z</time>
      </trkpt>
      <trkpt lat="48.1359" lon="-0.03763">
        <ele>134.8</ele>
        <time>2016-06-20T05:59:03Z</time>
      </trkpt>
      <trkpt lat="48.13596" lon="-0.03775">
        <ele>134.1</ele>
        <time>2016-06-20T05:59:10Z</time>
      </trkpt>
      <trkpt lat="48.13602" lon="-0.03786">
        <ele>134.6</ele>
        <time>2016-06-20T05:59:18Z</time>
      </trkpt>
      <trkpt lat="48.13609" lon="-0.03797">
        <ele>134.9</ele>
        <time>2016-06-20T05:59:26Z</time>
      </trkpt>
      <trkpt lat="48.13615" lon="-0.0381">
        <ele>134.3</ele>
        <time>2016-06-20T05:59:35Z</time>
      </trkpt>
      <trkpt lat="48.13621" lon="-0.03821">
        <ele>134.8</ele>
        <time>2016-06-20T05:59:42Z</time>
      </trkpt>
      <trkpt lat="48.13626" lon="-0.03833">
        <ele>134.3</ele>
        <time>2016-06-20T05:59:50Z</time>
      </trkpt>
      <trkpt lat="48.13633" lon="-0.03843">
        <ele>133.8</ele>
        <time>2016-06-20T05:59:56Z</time>
      </trkpt>
      <trkpt lat="48.13638" lon="-0.03855">
        <ele>133.7</ele>
        <time>2016-06-20T06:00:03Z</time>
      </trkpt>
      <trkpt lat="48.13644" lon="-0.03866">
        <ele>134.3</ele>
        <time>2016-06-20T06:00:23Z</time>
      </trkpt>
      <trkpt lat="48.13649" lon="-0.03877">
        <ele>134.8</ele>
        <time>2016-06-20T06:00:31Z</time>
      </trkpt>
      <trkpt lat="48.13656" lon="-0.03889">
        <ele>134</ele>
        <time>2016-06-20T06:00:38Z</time>
      </trkpt>
      <trkpt lat="48.13663" lon="-0.039">
        <ele>134.3</ele>
        <time>2016-06-20T06:00:46Z</time>
      </trkpt>
      <trkpt lat="48.13669" lon="-0.03911">
        <ele>133.9</ele>
        <time>2016-06-20T06:00:55Z</time>
      </trkpt>
      <trkpt lat="48.13673" lon="-0.03924">
        <ele>133.5</ele>
        <time>2016-06-20T06:01:02Z</time>
      </trkpt>
      <trkpt lat="48.1367" lon="-0.03938">
        <ele>134</ele>
        <time>2016-06-20T06:01:21Z</time>
      </trkpt>
      <trkpt lat="48.13664" lon="-0.03949">
        <ele>134.3</ele>
        <time>2016-06-20T06:01:29Z</time>
      </trkpt>
      <trkpt lat="48.13656" lon="-0.03959">
        <ele>135.1</ele>
        <time>2016-06-20T06:01:38Z</time>
      </trkpt>
      <trkpt lat="48.13649" lon="-0.03969">
        <ele>135.3</ele>
        <time>2016-06-20T06:01:46Z</time>
      </trkpt>
      <trkpt lat="48.13641" lon="-0.03977">
        <ele>134.9</ele>
        <time>2016-06-20T06:01:54Z</time>
      </trkpt>
      <trkpt lat="48.13633" lon="-0.03985">
        <ele>135.9</ele>
        <time>2016-06-20T06:02:02Z</time>
      </trkpt>
      <trkpt lat="48.13625" lon="-0.03993">
        <ele>135.8</ele>
        <time>2016-06-20T06:02:10Z</time>
      </trkpt>
      <trkpt lat="48.13618" lon="-0.04001">
        <ele>135.8</ele>
        <time>2016-06-20T06:02:17Z</time>
      </trkpt>
      <trkpt lat="48.13609" lon="-0.04008">
        <ele>136</ele>
        <time>2016-06-20T06:02:25Z</time>
      </trkpt>
      <trkpt lat="48.136" lon="-0.04015">
        <ele>135.8</ele>
        <time>2016-06-20T06:02:33Z</time>
      </trkpt>
      <trkpt lat="48.13591" lon="-0.04021">
        <ele>136.2</ele>
        <time>2016-06-20T06:02:41Z</time>
      </trkpt>
      <trkpt lat="48.13582" lon="-0.04024">
        <ele>135.9</ele>
        <time>2016-06-20T06:02:48Z</time>
      </trkpt>
      <trkpt lat="48.13574" lon="-0.04029">
        <ele>136.1</ele>
        <time>2016-06-20T06:02:55Z</time>
      </trkpt>
      <trkpt lat="48.13565" lon="-0.04035">
        <ele>136.2</ele>
        <time>2016-06-20T06:03:03Z</time>
      </trkpt>
      <trkpt lat="48.13556" lon="-0.0404">
        <ele>135.5</ele>
        <time>2016-06-20T06:03:10Z</time>
      </trkpt>
      <trkpt lat="48.13547" lon="-0.04046">
        <ele>135.7</ele>
        <time>2016-06-20T06:03:18Z</time>
      </trkpt>
      <trkpt lat="48.13539" lon="-0.04051">
        <ele>136.2</ele>
        <time>2016-06-20T06:03:26Z</time>
      </trkpt>
      <trkpt lat="48.13531" lon="-0.04059">
        <ele>135.9</ele>
        <time>2016-06-20T06:03:33Z</time>
      </trkpt>
      <trkpt lat="48.13522" lon="-0.04061">
        <ele>135.8</ele>
        <time>2016-06-20T06:03:41Z</time>
      </trkpt>
      <trkpt lat="48.13513" lon="-0.04066">
        <ele>135.7</ele>
        <time>2016-06-20T06:03:49Z</time>
      </trkpt>
      <trkpt lat="48.13505" lon="-0.04071">
        <ele>136</ele>
        <time>2016-06-20T06:03:56Z</time>
      </trkpt>
      <trkpt lat="48.13495" lon="-0.04075">
        <ele>136.2</ele>
        <time>2016-06-20T06:04:04Z</time>
      </trkpt>
      <trkpt lat="48.13486" lon="-0.04082">
        <ele>135.9</ele>
        <time>2016-06-20T06:04:12Z</time>
      </trkpt>
      <trkpt lat="48.13479" lon="-0.04091">
        <ele>136</ele>
        <time>2016-06-20T06:04:20Z</time>
      </trkpt>
      <trkpt lat="48.1347" lon="-0.04098">
        <ele>136</ele>
        <time>2016-06-20T06:04:29Z</time>
      </trkpt>
      <trkpt lat="48.13461" lon="-0.04104">
        <ele>136.2</ele>
        <time>2016-06-20T06:04:37Z</time>
      </trkpt>
      <trkpt lat="48.13452" lon="-0.04111">
        <ele>135.5</ele>
        <time>2016-06-20T06:04:45Z</time>
      </trkpt>
      <trkpt lat="48.13443" lon="-0.04118">
        <ele>135.4</ele>
        <time>2016-06-20T06:04:54Z</time>
      </trkpt>
      <trkpt lat="48.13435" lon="-0.04125">
        <ele>135.3</ele>
        <time>2016-06-20T06:05:02Z</time>
      </trkpt>
      <trkpt lat="48.13428" lon="-0.04136">
        <ele>135.1</ele>
        <time>2016-06-20T06:05:09Z</time>
      </trkpt>
      <trkpt lat="48.1342" lon="-0.04145">
        <ele>134.7</ele>
        <time>2016-06-20T06:05:17Z</time>
      </trkpt>
      <trkpt lat="48.13415" lon="-0.04157">
        <ele>134.1</ele>
        <time>2016-06-20T06:05:24Z</time>
      </trkpt>
      <trkpt lat="48.13408" lon="-0.04167">
        <ele>133.7</ele>
        <time>2016-06-20T06:05:32Z</time>
      </trkpt>
      <trkpt lat="48.13402" lon="-0.04177">
        <ele>133</ele>
        <time>2016-06-20T06:05:40Z</time>
      </trkpt>
      <trkpt lat="48.13395" lon="-0.04188">
        <ele>132.5</ele>
        <time>2016-06-20T06:05:48Z</time>
      </trkpt>
      <trkpt lat="48.13389" lon="-0.04198">
        <ele>131.5</ele>
        <time>2016-06-20T06:05:56Z</time>
      </trkpt>
      <trkpt lat="48.13382" lon="-0.04208">
        <ele>131.2</ele>
        <time>2016-06-20T06:06:04Z</time>
      </trkpt>
      <trkpt lat="48.13376" lon="-0.04218">
        <ele>130.9</ele>
        <time>2016-06-20T06:06:11Z</time>
      </trkpt>
      <trkpt lat="48.13369" lon="-0.0423">
        <ele>130.9</ele>
        <time>2016-06-20T06:06:19Z</time>
      </trkpt>
      <trkpt lat="48.13364" lon="-0.04242">
        <ele>130.9</ele>
        <time>2016-06-20T06:06:27Z</time>
      </trkpt>
      <trkpt lat="48.13357" lon="-0.04253">
        <ele>131.6</ele>
        <time>2016-06-20T06:06:35Z</time>
      </trkpt>
      <trkpt lat="48.1335" lon="-0.04262">
        <ele>131.4</ele>
        <time>2016-06-20T06:06:43Z</time>
      </trkpt>
      <trkpt lat="48.13344" lon="-0.04272">
        <ele>131.6</ele>
        <time>2016-06-20T06:06:50Z</time>
      </trkpt>
      <trkpt lat="48.13338" lon="-0.04283">
        <ele>131.7</ele>
        <time>2016-06-20T06:06:58Z</time>
      </trkpt>
      <trkpt lat="48.13332" lon="-0.04294">
        <ele>131.7</ele>
        <time>2016-06-20T06:07:06Z</time>
      </trkpt>
      <trkpt lat="48.13325" lon="-0.04305">
        <ele>131.7</ele>
        <time>2016-06-20T06:07:14Z</time>
      </trkpt>
      <trkpt lat="48.13319" lon="-0.04314">
        <ele>131.8</ele>
        <time>2016-06-20T06:07:21Z</time>
      </trkpt>
      <trkpt lat="48.13312" lon="-0.04325">
        <ele>132</ele>
        <time>2016-06-20T06:07:29Z</time>
      </trkpt>
      <trkpt lat="48.13305" lon="-0.04334">
        <ele>131.4</ele>
        <time>2016-06-20T06:07:36Z</time>
      </trkpt>
      <trkpt lat="48.13298" lon="-0.04344">
        <ele>132</ele>
        <time>2016-06-20T06:07:44Z</time>
      </trkpt>
      <trkpt lat="48.1329" lon="-0.04353">
        <ele>132.4</ele>
        <time>2016-06-20T06:07:52Z</time>
      </trkpt>
      <trkpt lat="48.13283" lon="-0.04363">
        <ele>132.1</ele>
        <time>2016-06-20T06:08:00Z</time>
      </trkpt>
      <trkpt lat="48.13276" lon="-0.04373">
        <ele>131.7</ele>
        <time>2016-06-20T06:08:08Z</time>
      </trkpt>
      <trkpt lat="48.13268" lon="-0.04382">
        <ele>132</ele>
        <time>2016-06-20T06:08:16Z</time>
      </trkpt>
      <trkpt lat="48.1326" lon="-0.04392">
        <ele>131.7</ele>
        <time>2016-06-20T06:08:24Z</time>
      </trkpt>
      <trkpt lat="48.13253" lon="-0.044">
        <ele>131.7</ele>
        <time>2016-06-20T06:08:32Z</time>
      </trkpt>
      <trkpt lat="48.13247" lon="-0.04411">
        <ele>131.8</ele>
        <time>2016-06-20T06:08:42Z</time>
      </trkpt>
      <trkpt lat="48.1325" lon="-0.04424">
        <ele>130.8</ele>
        <time>2016-06-20T06:09:00Z</time>
      </trkpt>
      <trkpt lat="48.13257" lon="-0.04435">
        <ele>130</ele>
        <time>2016-06-20T06:09:10Z</time>
      </trkpt>
      <trkpt lat="48.13264" lon="-0.04444">
        <ele>128.8</ele>
        <time>2016-06-20T06:09:18Z</time>
      </trkpt>
      <trkpt lat="48.1327" lon="-0.04456">
        <ele>128.9</ele>
        <time>2016-06-20T06:09:26Z</time>
      </trkpt>
      <trkpt lat="48.13277" lon="-0.04464">
        <ele>128.4</ele>
        <time>2016-06-20T06:09:35Z</time>
      </trkpt>
      <trkpt lat="48.13285" lon="-0.04471">
        <ele>127.5</ele>
        <time>2016-06-20T06:09:42Z</time>
      </trkpt>
      <trkpt lat="48.13295" lon="-0.04476">
        <ele>127.6</ele>
        <time>2016-06-20T06:09:50Z</time>
      </trkpt>
      <trkpt lat="48.13304" lon="-0.04482">
        <ele>126.4</ele>
        <time>2016-06-20T06:09:58Z</time>
      </trkpt>
      <trkpt lat="48.13313" lon="-0.04485">
        <ele>125.8</ele>
        <time>2016-06-20T06:10:05Z</time>
      </trkpt>
      <trkpt lat="48.13322" lon="-0.04491">
        <ele>125.3</ele>
        <time>2016-06-20T06:10:13Z</time>
      </trkpt>
      <trkpt lat="48.13331" lon="-0.04497">
        <ele>126</ele>
        <time>2016-06-20T06:10:21Z</time>
      </trkpt>
      <trkpt lat="48.1334" lon="-0.04501">
        <ele>125.5</ele>
        <time>2016-06-20T06:10:29Z</time>
      </trkpt>
      <trkpt lat="48.13348" lon="-0.04505">
        <ele>125.6</ele>
        <time>2016-06-20T06:10:37Z</time>
      </trkpt>
      <trkpt lat="48.13357" lon="-0.04509">
        <ele>125.4</ele>
        <time>2016-06-20T06:10:45Z</time>
      </trkpt>
      <trkpt lat="48.13366" lon="-0.04515">
        <ele>125.2</ele>
        <time>2016-06-20T06:10:53Z</time>
      </trkpt>
      <trkpt lat="48.13375" lon="-0.0452">
        <ele>126</ele>
        <time>2016-06-20T06:11:01Z</time>
      </trkpt>
      <trkpt lat="48.13385" lon="-0.04525">
        <ele>125.6</ele>
        <time>2016-06-20T06:11:09Z</time>
      </trkpt>
      <trkpt lat="48.13393" lon="-0.04531">
        <ele>126</ele>
        <time>2016-06-20T06:11:17Z</time>
      </trkpt>
      <trkpt lat="48.13402" lon="-0.04537">
        <ele>125.8</ele>
        <time>2016-06-20T06:11:25Z</time>
      </trkpt>
      <trkpt lat="48.13411" lon="-0.04542">
        <ele>125.4</ele>
        <time>2016-06-20T06:11:32Z</time>
      </trkpt>
      <trkpt lat="48.13419" lon="-0.04548">
        <ele>125.9</ele>
        <time>2016-06-20T06:11:41Z</time>
      </trkpt>
      <trkpt lat="48.13428" lon="-0.04554">
        <ele>125.7</ele>
        <time>2016-06-20T06:11:49Z</time>
      </trkpt>
      <trkpt lat="48.13438" lon="-0.04558">
        <ele>125.4</ele>
        <time>2016-06-20T06:11:57Z</time>
      </trkpt>
      <trkpt lat="48.13446" lon="-0.04564">
        <ele>126.2</ele>
        <time>2016-06-20T06:12:05Z</time>
      </trkpt>
      <trkpt lat="48.13455" lon="-0.04567">
        <ele>126.2</ele>
        <time>2016-06-20T06:12:12Z</time>
      </trkpt>
      <trkpt lat="48.13463" lon="-0.04573">
        <ele>125.6</ele>
        <time>2016-06-20T06:12:21Z</time>
      </trkpt>
      <trkpt lat="48.13472" lon="-0.04578">
        <ele>126.3</ele>
        <time>2016-06-20T06:12:29Z</time>
      </trkpt>
      <trkpt lat="48.13482" lon="-0.04583">
        <ele>126.7</ele>
        <time>2016-06-20T06:12:36Z</time>
      </trkpt>
      <trkpt lat="48.13491" lon="-0.04587">
        <ele>126.9</ele>
        <time>2016-06-20T06:12:44Z</time>
      </trkpt>
      <trkpt lat="48.135" lon="-0.04591">
        <ele>127.3</ele>
        <time>2016-06-20T06:12:53Z</time>
      </trkpt>
      <trkpt lat="48.1351" lon="-0.04594">
        <ele>127.9</ele>
        <time>2016-06-20T06:13:02Z</time>
      </trkpt>
      <trkpt lat="48.13519" lon="-0.04598">
        <ele>128.3</ele>
        <time>2016-06-20T06:13:09Z</time>
      </trkpt>
      <trkpt lat="48.13529" lon="-0.04602">
        <ele>128.8</ele>
        <time>2016-06-20T06:13:17Z</time>
      </trkpt>
      <trkpt lat="48.13538" lon="-0.04606">
        <ele>129.2</ele>
        <time>2016-06-20T06:13:25Z</time>
      </trkpt>
      <trkpt lat="48.13548" lon="-0.04611">
        <ele>129.8</ele>
        <time>2016-06-20T06:13:33Z</time>
      </trkpt>
      <trkpt lat="48.13558" lon="-0.04614">
        <ele>129.8</ele>
        <time>2016-06-20T06:13:41Z</time>
      </trkpt>
      <trkpt lat="48.13567" lon="-0.04619">
        <ele>130.4</ele>
        <time>2016-06-20T06:13:50Z</time>
      </trkpt>
      <trkpt lat="48.13576" lon="-0.04622">
        <ele>130.7</ele>
        <time>2016-06-20T06:13:58Z</time>
      </trkpt>
      <trkpt lat="48.13584" lon="-0.04627">
        <ele>131.8</ele>
        <time>2016-06-20T06:14:04Z</time>
      </trkpt>
      <trkpt lat="48.13594" lon="-0.04631">
        <ele>132.2</ele>
        <time>2016-06-20T06:14:15Z</time>
      </trkpt>
      <trkpt lat="48.13603" lon="-0.04633">
        <ele>133.6</ele>
        <time>2016-06-20T06:14:22Z</time>
      </trkpt>
      <trkpt lat="48.13612" lon="-0.04638">
        <ele>133.6</ele>
        <time>2016-06-20T06:14:31Z</time>
      </trkpt>
      <trkpt lat="48.13622" lon="-0.04642">
        <ele>133.6</ele>
        <time>2016-06-20T06:14:40Z</time>
      </trkpt>
      <trkpt lat="48.13631" lon="-0.04646">
        <ele>133.9</ele>
        <time>2016-06-20T06:14:48Z</time>
      </trkpt>
      <trkpt lat="48.1364" lon="-0.0465">
        <ele>133.6</ele>
        <time>2016-06-20T06:14:55Z</time>
      </trkpt>
      <trkpt lat="48.13649" lon="-0.04656">
        <ele>134.7</ele>
        <time>2016-06-20T06:15:04Z</time>
      </trkpt>
      <trkpt lat="48.13658" lon="-0.04661">
        <ele>135.4</ele>
        <time>2016-06-20T06:15:15Z</time>
      </trkpt>
      <trkpt lat="48.13667" lon="-0.04667">
        <ele>136.3</ele>
        <time>2016-06-20T06:15:23Z</time>
      </trkpt>
      <trkpt lat="48.13676" lon="-0.04673">
        <ele>136.5</ele>
        <time>2016-06-20T06:15:31Z</time>
      </trkpt>
      <trkpt lat="48.13685" lon="-0.04679">
        <ele>136.7</ele>
        <time>2016-06-20T06:15:39Z</time>
      </trkpt>
      <trkpt lat="48.13693" lon="-0.04684">
        <ele>136.9</ele>
        <time>2016-06-20T06:18:45Z</time>
      </trkpt>
      <trkpt lat="48.13701" lon="-0.04691">
        <ele>136.9</ele>
        <time>2016-06-20T06:18:53Z</time>
      </trkpt>
      <trkpt lat="48.13711" lon="-0.04697">
        <ele>136.9</ele>
        <time>2016-06-20T06:19:01Z</time>
      </trkpt>
      <trkpt lat="48.1372" lon="-0.04706">
        <ele>136.6</ele>
        <time>2016-06-20T06:19:09Z</time>
      </trkpt>
      <trkpt lat="48.13728" lon="-0.04712">
        <ele>137.1</ele>
        <time>2016-06-20T06:19:17Z</time>
      </trkpt>
      <trkpt lat="48.13738" lon="-0.04718">
        <ele>137.4</ele>
        <time>2016-06-20T06:19:24Z</time>
      </trkpt>
      <trkpt lat="48.13747" lon="-0.04725">
        <ele>137.6</ele>
        <time>2016-06-20T06:19:31Z</time>
      </trkpt>
      <trkpt lat="48.13756" lon="-0.04731">
        <ele>138.3</ele>
        <time>2016-06-20T06:19:38Z</time>
      </trkpt>
      <trkpt lat="48.13764" lon="-0.04738">
        <ele>138.2</ele>
        <time>2016-06-20T06:19:45Z</time>
      </trkpt>
      <trkpt lat="48.13772" lon="-0.04741">
        <ele>137.9</ele>
        <time>2016-06-20T06:19:51Z</time>
      </trkpt>
      <trkpt lat="48.13782" lon="-0.04743">
        <ele>137.9</ele>
        <time>2016-06-20T06:19:59Z</time>
      </trkpt>
      <trkpt lat="48.13791" lon="-0.04749">
        <ele>137.8</ele>
        <time>2016-06-20T06:20:07Z</time>
      </trkpt>
      <trkpt lat="48.13799" lon="-0.04755">
        <ele>137.4</ele>
        <time>2016-06-20T06:20:16Z</time>
      </trkpt>
      <trkpt lat="48.13807" lon="-0.04761">
        <ele>137.2</ele>
        <time>2016-06-20T06:20:24Z</time>
      </trkpt>
      <trkpt lat="48.13816" lon="-0.04767">
        <ele>137.4</ele>
        <time>2016-06-20T06:20:32Z</time>
      </trkpt>
      <trkpt lat="48.13825" lon="-0.04772">
        <ele>136.7</ele>
        <time>2016-06-20T06:20:41Z</time>
      </trkpt>
      <trkpt lat="48.13833" lon="-0.04782">
        <ele>136.3</ele>
        <time>2016-06-20T06:20:49Z</time>
      </trkpt>
      <trkpt lat="48.13842" lon="-0.04789">
        <ele>135.7</ele>
        <time>2016-06-20T06:20:58Z</time>
      </trkpt>
      <trkpt lat="48.13852" lon="-0.04795">
        <ele>136</ele>
        <time>2016-06-20T06:21:08Z</time>
      </trkpt>
      <trkpt lat="48.1386" lon="-0.04801">
        <ele>135.6</ele>
        <time>2016-06-20T06:21:16Z</time>
      </trkpt>
      <trkpt lat="48.13868" lon="-0.04807">
        <ele>136</ele>
        <time>2016-06-20T06:21:23Z</time>
      </trkpt>
      <trkpt lat="48.13877" lon="-0.04812">
        <ele>135.9</ele>
        <time>2016-06-20T06:21:31Z</time>
      </trkpt>
      <trkpt lat="48.13886" lon="-0.04816">
        <ele>135.9</ele>
        <time>2016-06-20T06:21:40Z</time>
      </trkpt>
      <trkpt lat="48.13896" lon="-0.04821">
        <ele>135.3</ele>
        <time>2016-06-20T06:21:48Z</time>
      </trkpt>
      <trkpt lat="48.13906" lon="-0.04826">
        <ele>135.3</ele>
        <time>2016-06-20T06:21:57Z</time>
      </trkpt>
      <trkpt lat="48.13915" lon="-0.04831">
        <ele>135.3</ele>
        <time>2016-06-20T06:22:06Z</time>
      </trkpt>
      <trkpt lat="48.13925" lon="-0.04836">
        <ele>135.3</ele>
        <time>2016-06-20T06:22:15Z</time>
      </trkpt>
      <trkpt lat="48.13934" lon="-0.04839">
        <ele>135.3</ele>
        <time>2016-06-20T06:22:23Z</time>
      </trkpt>
      <trkpt lat="48.13943" lon="-0.04844">
        <ele>135.3</ele>
        <time>2016-06-20T06:22:32Z</time>
      </trkpt>
      <trkpt lat="48.13952" lon="-0.04849">
        <ele>135.3</ele>
        <time>2016-06-20T06:22:40Z</time>
      </trkpt>
      <trkpt lat="48.13961" lon="-0.04855">
        <ele>134.8</ele>
        <time>2016-06-20T06:22:47Z</time>
      </trkpt>
      <trkpt lat="48.1397" lon="-0.04861">
        <ele>135.3</ele>
        <time>2016-06-20T06:22:54Z</time>
      </trkpt>
      <trkpt lat="48.13978" lon="-0.04866">
        <ele>135.1</ele>
        <time>2016-06-20T06:23:03Z</time>
      </trkpt>
      <trkpt lat="48.13987" lon="-0.04871">
        <ele>135.3</ele>
        <time>2016-06-20T06:23:12Z</time>
      </trkpt>
      <trkpt lat="48.13996" lon="-0.04876">
        <ele>134.8</ele>
        <time>2016-06-20T06:23:20Z</time>
      </trkpt>
      <trkpt lat="48.14006" lon="-0.0488">
        <ele>135.5</ele>
        <time>2016-06-20T06:23:28Z</time>
      </trkpt>
      <trkpt lat="48.14015" lon="-0.04884">
        <ele>135.8</ele>
        <time>2016-06-20T06:23:36Z</time>
      </trkpt>
      <trkpt lat="48.14023" lon="-0.04889">
        <ele>135.3</ele>
        <time>2016-06-20T06:23:44Z</time>
      </trkpt>
      <trkpt lat="48.14033" lon="-0.04893">
        <ele>135.7</ele>
        <time>2016-06-20T06:23:52Z</time>
      </trkpt>
      <trkpt lat="48.14042" lon="-0.04897">
        <ele>135.9</ele>
        <time>2016-06-20T06:24:01Z</time>
      </trkpt>
      <trkpt lat="48.14051" lon="-0.049">
        <ele>135.3</ele>
        <time>2016-06-20T06:24:27Z</time>
      </trkpt>
      <trkpt lat="48.1406" lon="-0.04904">
        <ele>135.8</ele>
        <time>2016-06-20T06:24:35Z</time>
      </trkpt>
      <trkpt lat="48.14068" lon="-0.04909">
        <ele>135.5</ele>
        <time>2016-06-20T06:24:42Z</time>
      </trkpt>
      <trkpt lat="48.14078" lon="-0.04911">
        <ele>135.4</ele>
        <time>2016-06-20T06:24:50Z</time>
      </trkpt>
      <trkpt lat="48.14088" lon="-0.04915">
        <ele>135.5</ele>
        <time>2016-06-20T06:24:58Z</time>
      </trkpt>
      <trkpt lat="48.14098" lon="-0.0492">
        <ele>135.7</ele>
        <time>2016-06-20T06:25:07Z</time>
      </trkpt>
      <trkpt lat="48.14107" lon="-0.04924">
        <ele>136.1</ele>
        <time>2016-06-20T06:25:15Z</time>
      </trkpt>
      <trkpt lat="48.14116" lon="-0.04928">
        <ele>136.5</ele>
        <time>2016-06-20T06:25:23Z</time>
      </trkpt>
      <trkpt lat="48.14125" lon="-0.04932">
        <ele>136.3</ele>
        <time>2016-06-20T06:25:31Z</time>
      </trkpt>
      <trkpt lat="48.14135" lon="-0.04937">
        <ele>136.2</ele>
        <time>2016-06-20T06:25:39Z</time>
      </trkpt>
      <trkpt lat="48.14143" lon="-0.0494">
        <ele>137</ele>
        <time>2016-06-20T06:25:47Z</time>
      </trkpt>
      <trkpt lat="48.14153" lon="-0.04945">
        <ele>136.8</ele>
        <time>2016-06-20T06:25:55Z</time>
      </trkpt>
      <trkpt lat="48.14162" lon="-0.04949">
        <ele>136.5</ele>
        <time>2016-06-20T06:26:05Z</time>
      </trkpt>
      <trkpt lat="48.14172" lon="-0.04952">
        <ele>136.7</ele>
        <time>2016-06-20T06:26:13Z</time>
      </trkpt>
      <trkpt lat="48.14178" lon="-0.04962">
        <ele>136.3</ele>
        <time>2016-06-20T06:26:21Z</time>
      </trkpt>
      <trkpt lat="48.14185" lon="-0.04971">
        <ele>137</ele>
        <time>2016-06-20T06:26:29Z</time>
      </trkpt>
      <trkpt lat="48.14194" lon="-0.04976">
        <ele>136</ele>
        <time>2016-06-20T06:26:58Z</time>
      </trkpt>
      <trkpt lat="48.14204" lon="-0.04981">
        <ele>136.1</ele>
        <time>2016-06-20T06:27:05Z</time>
      </trkpt>
      <trkpt lat="48.14212" lon="-0.04987">
        <ele>136.4</ele>
        <time>2016-06-20T06:27:12Z</time>
      </trkpt>
      <trkpt lat="48.14221" lon="-0.04994">
        <ele>136.5</ele>
        <time>2016-06-20T06:27:21Z</time>
      </trkpt>
      <trkpt lat="48.1423" lon="-0.05">
        <ele>136.4</ele>
        <time>2016-06-20T06:27:28Z</time>
      </trkpt>
      <trkpt lat="48.14239" lon="-0.05005">
        <ele>136.6</ele>
        <time>2016-06-20T06:27:36Z</time>
      </trkpt>
      <trkpt lat="48.14247" lon="-0.05011">
        <ele>136.9</ele>
        <time>2016-06-20T06:27:44Z</time>
      </trkpt>
      <trkpt lat="48.14257" lon="-0.05014">
        <ele>136.3</ele>
        <time>2016-06-20T06:27:53Z</time>
      </trkpt>
      <trkpt lat="48.14267" lon="-0.05016">
        <ele>136.3</ele>
        <time>2016-06-20T06:28:00Z</time>
      </trkpt>
      <trkpt lat="48.14275" lon="-0.05022">
        <ele>136.8</ele>
        <time>2016-06-20T06:28:07Z</time>
      </trkpt>
      <trkpt lat="48.14284" lon="-0.05027">
        <ele>137</ele>
        <time>2016-06-20T06:28:14Z</time>
      </trkpt>
      <trkpt lat="48.14294" lon="-0.0503">
        <ele>136.4</ele>
        <time>2016-06-20T06:28:22Z</time>
      </trkpt>
      <trkpt lat="48.14303" lon="-0.05034">
        <ele>136.2</ele>
        <time>2016-06-20T06:28:29Z</time>
      </trkpt>
      <trkpt lat="48.14312" lon="-0.05036">
        <ele>136.4</ele>
        <time>2016-06-20T06:28:36Z</time>
      </trkpt>
      <trkpt lat="48.14321" lon="-0.05041">
        <ele>136.2</ele>
        <time>2016-06-20T06:28:44Z</time>
      </trkpt>
      <trkpt lat="48.1433" lon="-0.05046">
        <ele>136.2</ele>
        <time>2016-06-20T06:28:51Z</time>
      </trkpt>
      <trkpt lat="48.14338" lon="-0.05052">
        <ele>135.9</ele>
        <time>2016-06-20T06:28:58Z</time>
      </trkpt>
      <trkpt lat="48.14346" lon="-0.05061">
        <ele>136.1</ele>
        <time>2016-06-20T06:29:05Z</time>
      </trkpt>
      <trkpt lat="48.14354" lon="-0.0507">
        <ele>136.4</ele>
        <time>2016-06-20T06:29:13Z</time>
      </trkpt>
      <trkpt lat="48.14362" lon="-0.05079">
        <ele>136.5</ele>
        <time>2016-06-20T06:29:21Z</time>
      </trkpt>
      <trkpt lat="48.14371" lon="-0.05087">
        <ele>136.2</ele>
        <time>2016-06-20T06:29:29Z</time>
      </trkpt>
      <trkpt lat="48.1438" lon="-0.05091">
        <ele>136.2</ele>
        <time>2016-06-20T06:29:37Z</time>
      </trkpt>
      <trkpt lat="48.1439" lon="-0.05094">
        <ele>136.7</ele>
        <time>2016-06-20T06:29:45Z</time>
      </trkpt>
      <trkpt lat="48.14399" lon="-0.0509">
        <ele>136.3</ele>
        <time>2016-06-20T06:29:53Z</time>
      </trkpt>
      <trkpt lat="48.14409" lon="-0.05087">
        <ele>136.5</ele>
        <time>2016-06-20T06:30:01Z</time>
      </trkpt>
      <trkpt lat="48.14417" lon="-0.05081">
        <ele>136.4</ele>
        <time>2016-06-20T06:30:12Z</time>
      </trkpt>
      <trkpt lat="48.14427" lon="-0.05078">
        <ele>136.5</ele>
        <time>2016-06-20T06:30:20Z</time>
      </trkpt>
      <trkpt lat="48.14436" lon="-0.05079">
        <ele>136</ele>
        <time>2016-06-20T06:30:27Z</time>
      </trkpt>
      <trkpt lat="48.14444" lon="-0.05086">
        <ele>136.1</ele>
        <time>2016-06-20T06:31:07Z</time>
      </trkpt>
      <trkpt lat="48.14453" lon="-0.0509">
        <ele>135.7</ele>
        <time>2016-06-20T06:31:15Z</time>
      </trkpt>
      <trkpt lat="48.14463" lon="-0.05094">
        <ele>135.3</ele>
        <time>2016-06-20T06:31:23Z</time>
      </trkpt>
      <trkpt lat="48.14471" lon="-0.05098">
        <ele>135.4</ele>
        <time>2016-06-20T06:31:31Z</time>
      </trkpt>
      <trkpt lat="48.1448" lon="-0.05103">
        <ele>135.2</ele>
        <time>2016-06-20T06:31:39Z</time>
      </trkpt>
      <trkpt lat="48.1449" lon="-0.05108">
        <ele>135</ele>
        <time>2016-06-20T06:31:48Z</time>
      </trkpt>
      <trkpt lat="48.14499" lon="-0.05112">
        <ele>135.3</ele>
        <time>2016-06-20T06:31:56Z</time>
      </trkpt>
      <trkpt lat="48.14508" lon="-0.05118">
        <ele>134.9</ele>
        <time>2016-06-20T06:32:04Z</time>
      </trkpt>
      <trkpt lat="48.14518" lon="-0.05124">
        <ele>135</ele>
        <time>2016-06-20T06:32:12Z</time>
      </trkpt>
      <trkpt lat="48.14527" lon="-0.05128">
        <ele>134.3</ele>
        <time>2016-06-20T06:32:20Z</time>
      </trkpt>
      <trkpt lat="48.14536" lon="-0.05134">
        <ele>134.5</ele>
        <time>2016-06-20T06:32:28Z</time>
      </trkpt>
      <trkpt lat="48.14545" lon="-0.05139">
        <ele>134</ele>
        <time>2016-06-20T06:32:35Z</time>
      </trkpt>
      <trkpt lat="48.14553" lon="-0.05145">
        <ele>134.1</ele>
        <time>2016-06-20T06:32:43Z</time>
      </trkpt>
      <trkpt lat="48.14562" lon="-0.05151">
        <ele>134.4</ele>
        <time>2016-06-20T06:32:51Z</time>
      </trkpt>
      <trkpt lat="48.14572" lon="-0.05156">
        <ele>134.5</ele>
        <time>2016-06-20T06:32:59Z</time>
      </trkpt>
      <trkpt lat="48.14581" lon="-0.05161">
        <ele>134.9</ele>
        <time>2016-06-20T06:33:07Z</time>
      </trkpt>
      <trkpt lat="48.1459" lon="-0.05167">
        <ele>135</ele>
        <time>2016-06-20T06:33:15Z</time>
      </trkpt>
      <trkpt lat="48.14599" lon="-0.05171">
        <ele>135.1</ele>
        <time>2016-06-20T06:33:22Z</time>
      </trkpt>
      <trkpt lat="48.14607" lon="-0.05177">
        <ele>135.4</ele>
        <time>2016-06-20T06:33:29Z</time>
      </trkpt>
      <trkpt lat="48.14617" lon="-0.05182">
        <ele>135.1</ele>
        <time>2016-06-20T06:33:37Z</time>
      </trkpt>
      <trkpt lat="48.14626" lon="-0.05186">
        <ele>135.2</ele>
        <time>2016-06-20T06:33:45Z</time>
      </trkpt>
      <trkpt lat="48.14635" lon="-0.05192">
        <ele>135.8</ele>
        <time>2016-06-20T06:33:53Z</time>
      </trkpt>
      <trkpt lat="48.14644" lon="-0.05198">
        <ele>135.9</ele>
        <time>2016-06-20T06:34:01Z</time>
      </trkpt>
      <trkpt lat="48.14653" lon="-0.05204">
        <ele>135.5</ele>
        <time>2016-06-20T06:34:08Z</time>
      </trkpt>
      <trkpt lat="48.14661" lon="-0.05209">
        <ele>136</ele>
        <time>2016-06-20T06:34:15Z</time>
      </trkpt>
      <trkpt lat="48.14671" lon="-0.05213">
        <ele>135.8</ele>
        <time>2016-06-20T06:34:23Z</time>
      </trkpt>
      <trkpt lat="48.14679" lon="-0.05218">
        <ele>136.2</ele>
        <time>2016-06-20T06:34:30Z</time>
      </trkpt>
      <trkpt lat="48.14689" lon="-0.05223">
        <ele>135.5</ele>
        <time>2016-06-20T06:34:38Z</time>
      </trkpt>
      <trkpt lat="48.14699" lon="-0.05228">
        <ele>135.2</ele>
        <time>2016-06-20T06:34:46Z</time>
      </trkpt>
      <trkpt lat="48.14707" lon="-0.05235">
        <ele>135.3</ele>
        <time>2016-06-20T06:34:53Z</time>
      </trkpt>
      <trkpt lat="48.14715" lon="-0.05241">
        <ele>135.9</ele>
        <time>2016-06-20T06:35:00Z</time>
      </trkpt>
      <trkpt lat="48.14724" lon="-0.05248">
        <ele>136.3</ele>
        <time>2016-06-20T06:35:08Z</time>
      </trkpt>
      <trkpt lat="48.14733" lon="-0.05253">
        <ele>136.6</ele>
        <time>2016-06-20T06:35:15Z</time>
      </trkpt>
      <trkpt lat="48.14741" lon="-0.05259">
        <ele>136.1</ele>
        <time>2016-06-20T06:35:22Z</time>
      </trkpt>
      <trkpt lat="48.14751" lon="-0.05264">
        <ele>136.1</ele>
        <time>2016-06-20T06:35:30Z</time>
      </trkpt>
      <trkpt lat="48.14759" lon="-0.05269">
        <ele>136.1</ele>
        <time>2016-06-20T06:35:37Z</time>
      </trkpt>
      <trkpt lat="48.14768" lon="-0.05274">
        <ele>136</ele>
        <time>2016-06-20T06:35:44Z</time>
      </trkpt>
      <trkpt lat="48.14776" lon="-0.0528">
        <ele>135.2</ele>
        <time>2016-06-20T06:35:51Z</time>
      </trkpt>
      <trkpt lat="48.14785" lon="-0.05285">
        <ele>134.7</ele>
        <time>2016-06-20T06:35:58Z</time>
      </trkpt>
      <trkpt lat="48.14794" lon="-0.05291">
        <ele>134.1</ele>
        <time>2016-06-20T06:36:05Z</time>
      </trkpt>
      <trkpt lat="48.14802" lon="-0.05296">
        <ele>134.9</ele>
        <time>2016-06-20T06:36:12Z</time>
      </trkpt>
      <trkpt lat="48.14811" lon="-0.05303">
        <ele>134.6</ele>
        <time>2016-06-20T06:36:19Z</time>
      </trkpt>
      <trkpt lat="48.14819" lon="-0.05309">
        <ele>134.6</ele>
        <time>2016-06-20T06:36:26Z</time>
      </trkpt>
      <trkpt lat="48.14827" lon="-0.05315">
        <ele>134.8</ele>
        <time>2016-06-20T06:36:33Z</time>
      </trkpt>
      <trkpt lat="48.14836" lon="-0.05322">
        <ele>134.4</ele>
        <time>2016-06-20T06:36:40Z</time>
      </trkpt>
      <trkpt lat="48.14844" lon="-0.05329">
        <ele>133.8</ele>
        <time>2016-06-20T06:36:48Z</time>
      </trkpt>
      <trkpt lat="48.14852" lon="-0.05336">
        <ele>134.1</ele>
        <time>2016-06-20T06:36:56Z</time>
      </trkpt>
      <trkpt lat="48.1486" lon="-0.05342">
        <ele>133.3</ele>
        <time>2016-06-20T06:37:03Z</time>
      </trkpt>
      <trkpt lat="48.14868" lon="-0.05349">
        <ele>133.3</ele>
        <time>2016-06-20T06:37:11Z</time>
      </trkpt>
      <trkpt lat="48.14874" lon="-0.05359">
        <ele>133.3</ele>
        <time>2016-06-20T06:37:33Z</time>
      </trkpt>
      <trkpt lat="48.14883" lon="-0.05366">
        <ele>133.6</ele>
        <time>2016-06-20T06:37:41Z</time>
      </trkpt>
      <trkpt lat="48.14892" lon="-0.05372">
        <ele>133.3</ele>
        <time>2016-06-20T06:37:49Z</time>
      </trkpt>
      <trkpt lat="48.14901" lon="-0.05379">
        <ele>132.8</ele>
        <time>2016-06-20T06:37:56Z</time>
      </trkpt>
      <trkpt lat="48.14909" lon="-0.05385">
        <ele>132.4</ele>
        <time>2016-06-20T06:38:03Z</time>
      </trkpt>
      <trkpt lat="48.14917" lon="-0.05392">
        <ele>132.2</ele>
        <time>2016-06-20T06:38:10Z</time>
      </trkpt>
      <trkpt lat="48.14925" lon="-0.05398">
        <ele>132.5</ele>
        <time>2016-06-20T06:38:18Z</time>
      </trkpt>
      <trkpt lat="48.14933" lon="-0.05406">
        <ele>132.5</ele>
        <time>2016-06-20T06:38:25Z</time>
      </trkpt>
      <trkpt lat="48.14942" lon="-0.05411">
        <ele>132.5</ele>
        <time>2016-06-20T06:38:33Z</time>
      </trkpt>
      <trkpt lat="48.1495" lon="-0.05418">
        <ele>132.6</ele>
        <time>2016-06-20T06:38:40Z</time>
      </trkpt>
      <trkpt lat="48.14959" lon="-0.05427">
        <ele>133.1</ele>
        <time>2016-06-20T06:38:47Z</time>
      </trkpt>
      <trkpt lat="48.14968" lon="-0.05436">
        <ele>133.1</ele>
        <time>2016-06-20T06:38:54Z</time>
      </trkpt>
      <trkpt lat="48.14975" lon="-0.05445">
        <ele>133.3</ele>
        <time>2016-06-20T06:39:01Z</time>
      </trkpt>
      <trkpt lat="48.14983" lon="-0.05451">
        <ele>132.9</ele>
        <time>2016-06-20T06:39:09Z</time>
      </trkpt>
      <trkpt lat="48.14992" lon="-0.05457">
        <ele>133.2</ele>
        <time>2016-06-20T06:39:17Z</time>
      </trkpt>
      <trkpt lat="48.15001" lon="-0.05461">
        <ele>132.4</ele>
        <time>2016-06-20T06:39:25Z</time>
      </trkpt>
      <trkpt lat="48.1501" lon="-0.05467">
        <ele>131.9</ele>
        <time>2016-06-20T06:39:33Z</time>
      </trkpt>
      <trkpt lat="48.15019" lon="-0.05474">
        <ele>133.1</ele>
        <time>2016-06-20T06:39:41Z</time>
      </trkpt>
      <trkpt lat="48.15026" lon="-0.05483">
        <ele>133.6</ele>
        <time>2016-06-20T06:39:47Z</time>
      </trkpt>
      <trkpt lat="48.15034" lon="-0.05493">
        <ele>133.5</ele>
        <time>2016-06-20T06:39:54Z</time>
      </trkpt>
      <trkpt lat="48.15042" lon="-0.05502">
        <ele>133.4</ele>
        <time>2016-06-20T06:40:00Z</time>
      </trkpt>
      <trkpt lat="48.1505" lon="-0.05509">
        <ele>134</ele>
        <time>2016-06-20T06:40:07Z</time>
      </trkpt>
      <trkpt lat="48.15059" lon="-0.05516">
        <ele>133.2</ele>
        <time>2016-06-20T06:40:14Z</time>
      </trkpt>
      <trkpt lat="48.15066" lon="-0.05523">
        <ele>133.4</ele>
        <time>2016-06-20T06:40:21Z</time>
      </trkpt>
      <trkpt lat="48.15076" lon="-0.05529">
        <ele>133.5</ele>
        <time>2016-06-20T06:40:29Z</time>
      </trkpt>
      <trkpt lat="48.15084" lon="-0.05536">
        <ele>133.6</ele>
        <time>2016-06-20T06:40:36Z</time>
      </trkpt>
      <trkpt lat="48.15092" lon="-0.05543">
        <ele>134.4</ele>
        <time>2016-06-20T06:40:43Z</time>
      </trkpt>
      <trkpt lat="48.15101" lon="-0.05545">
        <ele>134.6</ele>
        <time>2016-06-20T06:41:07Z</time>
      </trkpt>
      <trkpt lat="48.1511" lon="-0.0555">
        <ele>134.6</ele>
        <time>2016-06-20T06:41:15Z</time>
      </trkpt>
      <trkpt lat="48.1512" lon="-0.05555">
        <ele>134.8</ele>
        <time>2016-06-20T06:41:23Z</time>
      </trkpt>
      <trkpt lat="48.15129" lon="-0.0556">
        <ele>136</ele>
        <time>2016-06-20T06:41:32Z</time>
      </trkpt>
      <trkpt lat="48.15139" lon="-0.05565">
        <ele>136.8</ele>
        <time>2016-06-20T06:41:40Z</time>
      </trkpt>
      <trkpt lat="48.15148" lon="-0.05569">
        <ele>136.3</ele>
        <time>2016-06-20T06:41:47Z</time>
      </trkpt>
      <trkpt lat="48.15157" lon="-0.05574">
        <ele>136.9</ele>
        <time>2016-06-20T06:41:55Z</time>
      </trkpt>
      <trkpt lat="48.15165" lon="-0.05581">
        <ele>137.1</ele>
        <time>2016-06-20T06:42:03Z</time>
      </trkpt>
      <trkpt lat="48.15175" lon="-0.05586">
        <ele>137</ele>
        <time>2016-06-20T06:42:11Z</time>
      </trkpt>
      <trkpt lat="48.15183" lon="-0.05592">
        <ele>136.9</ele>
        <time>2016-06-20T06:42:18Z</time>
      </trkpt>
      <trkpt lat="48.15192" lon="-0.05597">
        <ele>137.4</ele>
        <time>2016-06-20T06:42:26Z</time>
      </trkpt>
      <trkpt lat="48.15201" lon="-0.05602">
        <ele>137.5</ele>
        <time>2016-06-20T06:42:33Z</time>
      </trkpt>
      <trkpt lat="48.1521" lon="-0.05608">
        <ele>137.8</ele>
        <time>2016-06-20T06:42:41Z</time>
      </trkpt>
      <trkpt lat="48.15219" lon="-0.05614">
        <ele>138.2</ele>
        <time>2016-06-20T06:42:49Z</time>
      </trkpt>
      <trkpt lat="48.15227" lon="-0.05621">
        <ele>138.5</ele>
        <time>2016-06-20T06:42:56Z</time>
      </trkpt>
      <trkpt lat="48.15236" lon="-0.05625">
        <ele>139.5</ele>
        <time>2016-06-20T06:43:04Z</time>
      </trkpt>
      <trkpt lat="48.15245" lon="-0.0563">
        <ele>140.1</ele>
        <time>2016-06-20T06:43:12Z</time>
      </trkpt>
      <trkpt lat="48.1525" lon="-0.05641">
        <ele>141.2</ele>
        <time>2016-06-20T06:43:42Z</time>
      </trkpt>
      <trkpt lat="48.15259" lon="-0.05646">
        <ele>139.8</ele>
        <time>2016-06-20T06:44:20Z</time>
      </trkpt>
      <trkpt lat="48.15268" lon="-0.0565">
        <ele>140.5</ele>
        <time>2016-06-20T06:44:28Z</time>
      </trkpt>
      <trkpt lat="48.15277" lon="-0.05656">
        <ele>140.5</ele>
        <time>2016-06-20T06:44:35Z</time>
      </trkpt>
      <trkpt lat="48.15285" lon="-0.05664">
        <ele>140.5</ele>
        <time>2016-06-20T06:44:42Z</time>
      </trkpt>
      <trkpt lat="48.15294" lon="-0.0567">
        <ele>140.4</ele>
        <time>2016-06-20T06:44:50Z</time>
      </trkpt>
      <trkpt lat="48.15303" lon="-0.05676">
        <ele>140.9</ele>
        <time>2016-06-20T06:44:58Z</time>
      </trkpt>
      <trkpt lat="48.15311" lon="-0.05681">
        <ele>140.9</ele>
        <time>2016-06-20T06:45:05Z</time>
      </trkpt>
      <trkpt lat="48.1532" lon="-0.05688">
        <ele>140.9</ele>
        <time>2016-06-20T06:45:13Z</time>
      </trkpt>
      <trkpt lat="48.15329" lon="-0.05694">
        <ele>140.5</ele>
        <time>2016-06-20T06:45:21Z</time>
      </trkpt>
      <trkpt lat="48.15338" lon="-0.05698">
        <ele>141</ele>
        <time>2016-06-20T06:45:28Z</time>
      </trkpt>
      <trkpt lat="48.15346" lon="-0.05705">
        <ele>140.5</ele>
        <time>2016-06-20T06:45:35Z</time>
      </trkpt>
      <trkpt lat="48.15354" lon="-0.0571">
        <ele>140.2</ele>
        <time>2016-06-20T06:45:42Z</time>
      </trkpt>
      <trkpt lat="48.15363" lon="-0.05717">
        <ele>141</ele>
        <time>2016-06-20T06:45:50Z</time>
      </trkpt>
      <trkpt lat="48.15372" lon="-0.05724">
        <ele>139.8</ele>
        <time>2016-06-20T06:45:57Z</time>
      </trkpt>
      <trkpt lat="48.1538" lon="-0.05731">
        <ele>140.4</ele>
        <time>2016-06-20T06:46:04Z</time>
      </trkpt>
      <trkpt lat="48.15388" lon="-0.05737">
        <ele>140.2</ele>
        <time>2016-06-20T06:46:11Z</time>
      </trkpt>
      <trkpt lat="48.15397" lon="-0.05742">
        <ele>139.6</ele>
        <time>2016-06-20T06:46:19Z</time>
      </trkpt>
      <trkpt lat="48.15406" lon="-0.05748">
        <ele>139.5</ele>
        <time>2016-06-20T06:46:26Z</time>
      </trkpt>
      <trkpt lat="48.15415" lon="-0.05754">
        <ele>140.3</ele>
        <time>2016-06-20T06:46:34Z</time>
      </trkpt>
      <trkpt lat="48.15423" lon="-0.05761">
        <ele>139.7</ele>
        <time>2016-06-20T06:46:41Z</time>
      </trkpt>
      <trkpt lat="48.15433" lon="-0.05768">
        <ele>139.2</ele>
        <time>2016-06-20T06:46:49Z</time>
      </trkpt>
      <trkpt lat="48.1544" lon="-0.05775">
        <ele>138.8</ele>
        <time>2016-06-20T06:46:56Z</time>
      </trkpt>
      <trkpt lat="48.15449" lon="-0.05783">
        <ele>139.5</ele>
        <time>2016-06-20T06:47:04Z</time>
      </trkpt>
      <trkpt lat="48.15458" lon="-0.05789">
        <ele>139.4</ele>
        <time>2016-06-20T06:47:13Z</time>
      </trkpt>
      <trkpt lat="48.15467" lon="-0.05794">
        <ele>139.9</ele>
        <time>2016-06-20T06:47:21Z</time>
      </trkpt>
      <trkpt lat="48.15476" lon="-0.058">
        <ele>140.1</ele>
        <time>2016-06-20T06:47:29Z</time>
      </trkpt>
      <trkpt lat="48.15485" lon="-0.05806">
        <ele>139.4</ele>
        <time>2016-06-20T06:47:37Z</time>
      </trkpt>
      <trkpt lat="48.15494" lon="-0.05811">
        <ele>140</ele>
        <time>2016-06-20T06:47:45Z</time>
      </trkpt>
      <trkpt lat="48.15504" lon="-0.05816">
        <ele>140.2</ele>
        <time>2016-06-20T06:47:53Z</time>
      </trkpt>
      <trkpt lat="48.15512" lon="-0.05823">
        <ele>141.8</ele>
        <time>2016-06-20T06:48:04Z</time>
      </trkpt>
      <trkpt lat="48.1552" lon="-0.0583">
        <ele>140.7</ele>
        <time>2016-06-20T06:48:10Z</time>
      </trkpt>
      <trkpt lat="48.1553" lon="-0.05834">
        <ele>140.4</ele>
        <time>2016-06-20T06:48:17Z</time>
      </trkpt>
      <trkpt lat="48.15538" lon="-0.0584">
        <ele>139.5</ele>
        <time>2016-06-20T06:48:24Z</time>
      </trkpt>
      <trkpt lat="48.15546" lon="-0.05846">
        <ele>138.9</ele>
        <time>2016-06-20T06:48:31Z</time>
      </trkpt>
      <trkpt lat="48.15555" lon="-0.0585">
        <ele>138.9</ele>
        <time>2016-06-20T06:48:38Z</time>
      </trkpt>
      <trkpt lat="48.15564" lon="-0.05856">
        <ele>138.9</ele>
        <time>2016-06-20T06:48:45Z</time>
      </trkpt>
      <trkpt lat="48.15573" lon="-0.05861">
        <ele>139</ele>
        <time>2016-06-20T06:48:53Z</time>
      </trkpt>
      <trkpt lat="48.15583" lon="-0.05866">
        <ele>138.9</ele>
        <time>2016-06-20T06:49:01Z</time>
      </trkpt>
      <trkpt lat="48.15592" lon="-0.05871">
        <ele>139.1</ele>
        <time>2016-06-20T06:49:09Z</time>
      </trkpt>
      <trkpt lat="48.15602" lon="-0.05875">
        <ele>139</ele>
        <time>2016-06-20T06:49:17Z</time>
      </trkpt>
      <trkpt lat="48.15611" lon="-0.0588">
        <ele>139.6</ele>
        <time>2016-06-20T06:49:25Z</time>
      </trkpt>
      <trkpt lat="48.1562" lon="-0.05884">
        <ele>139.4</ele>
        <time>2016-06-20T06:49:33Z</time>
      </trkpt>
      <trkpt lat="48.15629" lon="-0.0589">
        <ele>139.9</ele>
        <time>2016-06-20T06:49:40Z</time>
      </trkpt>
      <trkpt lat="48.15638" lon="-0.05896">
        <ele>140.7</ele>
        <time>2016-06-20T06:49:48Z</time>
      </trkpt>
      <trkpt lat="48.15648" lon="-0.059">
        <ele>140.5</ele>
        <time>2016-06-20T06:49:56Z</time>
      </trkpt>
      <trkpt lat="48.15657" lon="-0.05904">
        <ele>141.3</ele>
        <time>2016-06-20T06:50:04Z</time>
      </trkpt>
      <trkpt lat="48.15667" lon="-0.05907">
        <ele>141.1</ele>
        <time>2016-06-20T06:50:12Z</time>
      </trkpt>
      <trkpt lat="48.15676" lon="-0.05913">
        <ele>141.2</ele>
        <time>2016-06-20T06:50:20Z</time>
      </trkpt>
      <trkpt lat="48.15685" lon="-0.0592">
        <ele>141.5</ele>
        <time>2016-06-20T06:50:27Z</time>
      </trkpt>
      <trkpt lat="48.15694" lon="-0.05925">
        <ele>141.9</ele>
        <time>2016-06-20T06:50:52Z</time>
      </trkpt>
      <trkpt lat="48.15703" lon="-0.0593">
        <ele>140.9</ele>
        <time>2016-06-20T06:51:00Z</time>
      </trkpt>
      <trkpt lat="48.15711" lon="-0.05936">
        <ele>142.3</ele>
        <time>2016-06-20T06:51:34Z</time>
      </trkpt>
      <trkpt lat="48.1572" lon="-0.0594">
        <ele>141.4</ele>
        <time>2016-06-20T06:51:41Z</time>
      </trkpt>
      <trkpt lat="48.15729" lon="-0.05945">
        <ele>142.4</ele>
        <time>2016-06-20T06:51:49Z</time>
      </trkpt>
      <trkpt lat="48.15738" lon="-0.0595">
        <ele>142.5</ele>
        <time>2016-06-20T06:51:56Z</time>
      </trkpt>
      <trkpt lat="48.15747" lon="-0.05956">
        <ele>142.3</ele>
        <time>2016-06-20T06:52:03Z</time>
      </trkpt>
      <trkpt lat="48.15755" lon="-0.05961">
        <ele>143</ele>
        <time>2016-06-20T06:52:10Z</time>
      </trkpt>
      <trkpt lat="48.15765" lon="-0.05965">
        <ele>142.9</ele>
        <time>2016-06-20T06:52:17Z</time>
      </trkpt>
      <trkpt lat="48.15774" lon="-0.05969">
        <ele>143.5</ele>
        <time>2016-06-20T06:52:24Z</time>
      </trkpt>
      <trkpt lat="48.15782" lon="-0.05973">
        <ele>143.4</ele>
        <time>2016-06-20T06:52:36Z</time>
      </trkpt>
      <trkpt lat="48.15774" lon="-0.05968">
        <ele>143.7</ele>
        <time>2016-06-20T06:54:29Z</time>
      </trkpt>
      <trkpt lat="48.15765" lon="-0.05962">
        <ele>144</ele>
        <time>2016-06-20T06:54:38Z</time>
      </trkpt>
      <trkpt lat="48.15756" lon="-0.05958">
        <ele>143.6</ele>
        <time>2016-06-20T06:54:45Z</time>
      </trkpt>
      <trkpt lat="48.15748" lon="-0.05952">
        <ele>143.1</ele>
        <time>2016-06-20T06:54:52Z</time>
      </trkpt>
      <trkpt lat="48.15738" lon="-0.05947">
        <ele>142.9</ele>
        <time>2016-06-20T06:55:00Z</time>
      </trkpt>
      <trkpt lat="48.1573" lon="-0.0594">
        <ele>142.8</ele>
        <time>2016-06-20T06:55:07Z</time>
      </trkpt>
      <trkpt lat="48.15732" lon="-0.05927">
        <ele>142.5</ele>
        <time>2016-06-20T06:55:14Z</time>
      </trkpt>
      <trkpt lat="48.15741" lon="-0.05922">
        <ele>143.3</ele>
        <time>2016-06-20T06:55:22Z</time>
      </trkpt>
      <trkpt lat="48.15751" lon="-0.05921">
        <ele>143.8</ele>
        <time>2016-06-20T06:55:30Z</time>
      </trkpt>
      <trkpt lat="48.15761" lon="-0.05919">
        <ele>144.2</ele>
        <time>2016-06-20T06:55:37Z</time>
      </trkpt>
      <trkpt lat="48.1577" lon="-0.05919">
        <ele>144.1</ele>
        <time>2016-06-20T06:55:44Z</time>
      </trkpt>
      <trkpt lat="48.1578" lon="-0.05919">
        <ele>144.5</ele>
        <time>2016-06-20T06:55:51Z</time>
      </trkpt>
      <trkpt lat="48.1579" lon="-0.05918">
        <ele>144.1</ele>
        <time>2016-06-20T06:55:59Z</time>
      </trkpt>
      <trkpt lat="48.15799" lon="-0.05918">
        <ele>144.1</ele>
        <time>2016-06-20T06:56:06Z</time>
      </trkpt>
      <trkpt lat="48.15809" lon="-0.05917">
        <ele>143.9</ele>
        <time>2016-06-20T06:56:13Z</time>
      </trkpt>
      <trkpt lat="48.15819" lon="-0.05917">
        <ele>144.4</ele>
        <time>2016-06-20T06:56:20Z</time>
      </trkpt>
      <trkpt lat="48.15828" lon="-0.05917">
        <ele>144.2</ele>
        <time>2016-06-20T06:56:27Z</time>
      </trkpt>
      <trkpt lat="48.15838" lon="-0.05917">
        <ele>145.8</ele>
        <time>2016-06-20T06:56:34Z</time>
      </trkpt>
      <trkpt lat="48.15848" lon="-0.05917">
        <ele>146</ele>
        <time>2016-06-20T06:56:41Z</time>
      </trkpt>
      <trkpt lat="48.15858" lon="-0.05917">
        <ele>145.6</ele>
        <time>2016-06-20T06:56:48Z</time>
      </trkpt>
      <trkpt lat="48.15867" lon="-0.05916">
        <ele>144.9</ele>
        <time>2016-06-20T06:56:55Z</time>
      </trkpt>
      <trkpt lat="48.15877" lon="-0.05915">
        <ele>145.7</ele>
        <time>2016-06-20T06:57:02Z</time>
      </trkpt>
      <trkpt lat="48.15887" lon="-0.05915">
        <ele>145.3</ele>
        <time>2016-06-20T06:57:09Z</time>
      </trkpt>
      <trkpt lat="48.15897" lon="-0.05914">
        <ele>146</ele>
        <time>2016-06-20T06:57:16Z</time>
      </trkpt>
      <trkpt lat="48.15906" lon="-0.05914">
        <ele>145.6</ele>
        <time>2016-06-20T06:57:23Z</time>
      </trkpt>
      <trkpt lat="48.15915" lon="-0.05914">
        <ele>145.5</ele>
        <time>2016-06-20T06:57:30Z</time>
      </trkpt>
      <trkpt lat="48.15925" lon="-0.05913">
        <ele>144.1</ele>
        <time>2016-06-20T06:57:37Z</time>
      </trkpt>
      <trkpt lat="48.15935" lon="-0.05913">
        <ele>144.3</ele>
        <time>2016-06-20T06:57:44Z</time>
      </trkpt>
      <trkpt lat="48.15945" lon="-0.05913">
        <ele>145.1</ele>
        <time>2016-06-20T06:57:51Z</time>
      </trkpt>
      <trkpt lat="48.15955" lon="-0.05912">
        <ele>145.6</ele>
        <time>2016-06-20T06:57:58Z</time>
      </trkpt>
      <trkpt lat="48.15965" lon="-0.05911">
        <ele>145</ele>
        <time>2016-06-20T06:58:05Z</time>
      </trkpt>
      <trkpt lat="48.15975" lon="-0.0591">
        <ele>145.2</ele>
        <time>2016-06-20T06:58:12Z</time>
      </trkpt>
      <trkpt lat="48.15985" lon="-0.05908">
        <ele>145.7</ele>
        <time>2016-06-20T06:58:19Z</time>
      </trkpt>
      <trkpt lat="48.15994" lon="-0.05907">
        <ele>146.5</ele>
        <time>2016-06-20T06:58:26Z</time>
      </trkpt>
      <trkpt lat="48.16004" lon="-0.05907">
        <ele>146.1</ele>
        <time>2016-06-20T06:58:33Z</time>
      </trkpt>
      <trkpt lat="48.16014" lon="-0.05906">
        <ele>145.9</ele>
        <time>2016-06-20T06:58:40Z</time>
      </trkpt>
      <trkpt lat="48.16023" lon="-0.05906">
        <ele>145</ele>
        <time>2016-06-20T06:58:47Z</time>
      </trkpt>
      <trkpt lat="48.16033" lon="-0.05906">
        <ele>145</ele>
        <time>2016-06-20T06:58:54Z</time>
      </trkpt>
      <trkpt lat="48.16042" lon="-0.05906">
        <ele>146.1</ele>
        <time>2016-06-20T06:59:01Z</time>
      </trkpt>
      <trkpt lat="48.16052" lon="-0.05906">
        <ele>146</ele>
        <time>2016-06-20T06:59:08Z</time>
      </trkpt>
      <trkpt lat="48.16061" lon="-0.05904">
        <ele>146.4</ele>
        <time>2016-06-20T06:59:17Z</time>
      </trkpt>
      <trkpt lat="48.1607" lon="-0.05904">
        <ele>146</ele>
        <time>2016-06-20T06:59:39Z</time>
      </trkpt>
      <trkpt lat="48.1608" lon="-0.05904">
        <ele>146.4</ele>
        <time>2016-06-20T06:59:47Z</time>
      </trkpt>
      <trkpt lat="48.1609" lon="-0.05904">
        <ele>146.6</ele>
        <time>2016-06-20T06:59:55Z</time>
      </trkpt>
      <trkpt lat="48.16099" lon="-0.05904">
        <ele>146.9</ele>
        <time>2016-06-20T07:00:03Z</time>
      </trkpt>
      <trkpt lat="48.16109" lon="-0.05904">
        <ele>146.2</ele>
        <time>2016-06-20T07:00:11Z</time>
      </trkpt>
      <trkpt lat="48.16118" lon="-0.05902">
        <ele>146.3</ele>
        <time>2016-06-20T07:00:18Z</time>
      </trkpt>
      <trkpt lat="48.16128" lon="-0.05903">
        <ele>146.8</ele>
        <time>2016-06-20T07:00:26Z</time>
      </trkpt>
      <trkpt lat="48.16137" lon="-0.05903">
        <ele>147.4</ele>
        <time>2016-06-20T07:00:34Z</time>
      </trkpt>
      <trkpt lat="48.16148" lon="-0.05903">
        <ele>147.3</ele>
        <time>2016-06-20T07:00:42Z</time>
      </trkpt>
      <trkpt lat="48.16158" lon="-0.05902">
        <ele>147.5</ele>
        <time>2016-06-20T07:00:50Z</time>
      </trkpt>
      <trkpt lat="48.16168" lon="-0.05902">
        <ele>148</ele>
        <time>2016-06-20T07:00:58Z</time>
      </trkpt>
      <trkpt lat="48.16177" lon="-0.05901">
        <ele>147.8</ele>
        <time>2016-06-20T07:01:05Z</time>
      </trkpt>
      <trkpt lat="48.16186" lon="-0.05901">
        <ele>148</ele>
        <time>2016-06-20T07:01:12Z</time>
      </trkpt>
      <trkpt lat="48.16196" lon="-0.05901">
        <ele>147.8</ele>
        <time>2016-06-20T07:01:19Z</time>
      </trkpt>
      <trkpt lat="48.16205" lon="-0.059">
        <ele>148</ele>
        <time>2016-06-20T07:01:26Z</time>
      </trkpt>
      <trkpt lat="48.16215" lon="-0.059">
        <ele>148.7</ele>
        <time>2016-06-20T07:01:34Z</time>
      </trkpt>
      <trkpt lat="48.16224" lon="-0.059">
        <ele>148</ele>
        <time>2016-06-20T07:01:41Z</time>
      </trkpt>
      <trkpt lat="48.16233" lon="-0.05901">
        <ele>147.7</ele>
        <time>2016-06-20T07:01:48Z</time>
      </trkpt>
      <trkpt lat="48.16243" lon="-0.05901">
        <ele>148.7</ele>
        <time>2016-06-20T07:01:56Z</time>
      </trkpt>
      <trkpt lat="48.16253" lon="-0.05901">
        <ele>147.7</ele>
        <time>2016-06-20T07:02:04Z</time>
      </trkpt>
      <trkpt lat="48.16262" lon="-0.05903">
        <ele>147.4</ele>
        <time>2016-06-20T07:02:12Z</time>
      </trkpt>
      <trkpt lat="48.16271" lon="-0.05908">
        <ele>147.2</ele>
        <time>2016-06-20T07:02:37Z</time>
      </trkpt>
      <trkpt lat="48.1628" lon="-0.0591">
        <ele>147.4</ele>
        <time>2016-06-20T07:02:45Z</time>
      </trkpt>
      <trkpt lat="48.1629" lon="-0.0591">
        <ele>147.6</ele>
        <time>2016-06-20T07:02:53Z</time>
      </trkpt>
      <trkpt lat="48.16299" lon="-0.05912">
        <ele>148.2</ele>
        <time>2016-06-20T07:03:00Z</time>
      </trkpt>
      <trkpt lat="48.16308" lon="-0.05913">
        <ele>147.7</ele>
        <time>2016-06-20T07:03:07Z</time>
      </trkpt>
      <trkpt lat="48.16317" lon="-0.05913">
        <ele>147</ele>
        <time>2016-06-20T07:03:15Z</time>
      </trkpt>
      <trkpt lat="48.16326" lon="-0.05916">
        <ele>147.2</ele>
        <time>2016-06-20T07:03:23Z</time>
      </trkpt>
      <trkpt lat="48.16336" lon="-0.0592">
        <ele>148.6</ele>
        <time>2016-06-20T07:03:46Z</time>
      </trkpt>
      <trkpt lat="48.16345" lon="-0.0592">
        <ele>148</ele>
        <time>2016-06-20T07:03:54Z</time>
      </trkpt>
      <trkpt lat="48.16354" lon="-0.05922">
        <ele>148.1</ele>
        <time>2016-06-20T07:04:02Z</time>
      </trkpt>
      <trkpt lat="48.16364" lon="-0.05924">
        <ele>148.1</ele>
        <time>2016-06-20T07:04:10Z</time>
      </trkpt>
      <trkpt lat="48.16373" lon="-0.05927">
        <ele>147.6</ele>
        <time>2016-06-20T07:04:17Z</time>
      </trkpt>
      <trkpt lat="48.16383" lon="-0.05928">
        <ele>147.7</ele>
        <time>2016-06-20T07:04:25Z</time>
      </trkpt>
      <trkpt lat="48.16393" lon="-0.05931">
        <ele>147.5</ele>
        <time>2016-06-20T07:04:33Z</time>
      </trkpt>
      <trkpt lat="48.16402" lon="-0.05932">
        <ele>147.9</ele>
        <time>2016-06-20T07:04:40Z</time>
      </trkpt>
      <trkpt lat="48.16412" lon="-0.05933">
        <ele>147.5</ele>
        <time>2016-06-20T07:04:48Z</time>
      </trkpt>
      <trkpt lat="48.16421" lon="-0.05933">
        <ele>147.6</ele>
        <time>2016-06-20T07:04:56Z</time>
      </trkpt>
      <trkpt lat="48.16431" lon="-0.05937">
        <ele>147.7</ele>
        <time>2016-06-20T07:05:04Z</time>
      </trkpt>
      <trkpt lat="48.1644" lon="-0.0594">
        <ele>148.5</ele>
        <time>2016-06-20T07:05:12Z</time>
      </trkpt>
      <trkpt lat="48.1645" lon="-0.05943">
        <ele>148.6</ele>
        <time>2016-06-20T07:05:20Z</time>
      </trkpt>
      <trkpt lat="48.1646" lon="-0.05944">
        <ele>148.2</ele>
        <time>2016-06-20T07:05:28Z</time>
      </trkpt>
      <trkpt lat="48.16468" lon="-0.05949">
        <ele>148</ele>
        <time>2016-06-20T07:05:35Z</time>
      </trkpt>
      <trkpt lat="48.16477" lon="-0.05954">
        <ele>147.9</ele>
        <time>2016-06-20T07:05:43Z</time>
      </trkpt>
      <trkpt lat="48.16486" lon="-0.05957">
        <ele>148.1</ele>
        <time>2016-06-20T07:05:51Z</time>
      </trkpt>
      <trkpt lat="48.16495" lon="-0.05959">
        <ele>148.4</ele>
        <time>2016-06-20T07:05:58Z</time>
      </trkpt>
      <trkpt lat="48.16504" lon="-0.05963">
        <ele>148</ele>
        <time>2016-06-20T07:06:05Z</time>
      </trkpt>
      <trkpt lat="48.16513" lon="-0.05967">
        <ele>148.1</ele>
        <time>2016-06-20T07:06:12Z</time>
      </trkpt>
      <trkpt lat="48.16523" lon="-0.05971">
        <ele>148.4</ele>
        <time>2016-06-20T07:06:20Z</time>
      </trkpt>
      <trkpt lat="48.16532" lon="-0.05973">
        <ele>148.2</ele>
        <time>2016-06-20T07:06:27Z</time>
      </trkpt>
      <trkpt lat="48.16541" lon="-0.05975">
        <ele>148.4</ele>
        <time>2016-06-20T07:06:35Z</time>
      </trkpt>
      <trkpt lat="48.16551" lon="-0.05977">
        <ele>148.4</ele>
        <time>2016-06-20T07:06:43Z</time>
      </trkpt>
      <trkpt lat="48.16561" lon="-0.05977">
        <ele>148.5</ele>
        <time>2016-06-20T07:07:12Z</time>
      </trkpt>
      <trkpt lat="48.1657" lon="-0.05979">
        <ele>148.4</ele>
        <time>2016-06-20T07:07:20Z</time>
      </trkpt>
      <trkpt lat="48.16579" lon="-0.05983">
        <ele>148.7</ele>
        <time>2016-06-20T07:07:27Z</time>
      </trkpt>
      <trkpt lat="48.16588" lon="-0.05984">
        <ele>148.9</ele>
        <time>2016-06-20T07:07:35Z</time>
      </trkpt>
      <trkpt lat="48.16598" lon="-0.05988">
        <ele>148.4</ele>
        <time>2016-06-20T07:07:44Z</time>
      </trkpt>
      <trkpt lat="48.16608" lon="-0.0599">
        <ele>149.1</ele>
        <time>2016-06-20T07:07:53Z</time>
      </trkpt>
      <trkpt lat="48.16617" lon="-0.05994">
        <ele>147.8</ele>
        <time>2016-06-20T07:08:01Z</time>
      </trkpt>
      <trkpt lat="48.16626" lon="-0.05996">
        <ele>148.6</ele>
        <time>2016-06-20T07:08:09Z</time>
      </trkpt>
      <trkpt lat="48.16635" lon="-0.06002">
        <ele>148.5</ele>
        <time>2016-06-20T07:08:16Z</time>
      </trkpt>
      <trkpt lat="48.16644" lon="-0.06005">
        <ele>148.4</ele>
        <time>2016-06-20T07:08:24Z</time>
      </trkpt>
      <trkpt lat="48.16654" lon="-0.06007">
        <ele>148.4</ele>
        <time>2016-06-20T07:08:33Z</time>
      </trkpt>
      <trkpt lat="48.16663" lon="-0.0601">
        <ele>148.3</ele>
        <time>2016-06-20T07:08:41Z</time>
      </trkpt>
      <trkpt lat="48.16673" lon="-0.06013">
        <ele>148.4</ele>
        <time>2016-06-20T07:08:49Z</time>
      </trkpt>
      <trkpt lat="48.16682" lon="-0.06016">
        <ele>148.5</ele>
        <time>2016-06-20T07:08:56Z</time>
      </trkpt>
      <trkpt lat="48.16691" lon="-0.06018">
        <ele>147.8</ele>
        <time>2016-06-20T07:09:04Z</time>
      </trkpt>
      <trkpt lat="48.16701" lon="-0.06022">
        <ele>148.2</ele>
        <time>2016-06-20T07:09:13Z</time>
      </trkpt>
      <trkpt lat="48.1671" lon="-0.06022">
        <ele>148.8</ele>
        <time>2016-06-20T07:09:25Z</time>
      </trkpt>
      <trkpt lat="48.16718" lon="-0.06028">
        <ele>149.5</ele>
        <time>2016-06-20T07:17:40Z</time>
      </trkpt>
      <trkpt lat="48.16728" lon="-0.06031">
        <ele>148.8</ele>
        <time>2016-06-20T07:17:54Z</time>
      </trkpt>
      <trkpt lat="48.16738" lon="-0.06034">
        <ele>148.5</ele>
        <time>2016-06-20T07:18:03Z</time>
      </trkpt>
      <trkpt lat="48.16747" lon="-0.06036">
        <ele>149.2</ele>
        <time>2016-06-20T07:18:11Z</time>
      </trkpt>
      <trkpt lat="48.16757" lon="-0.06038">
        <ele>149.5</ele>
        <time>2016-06-20T07:18:19Z</time>
      </trkpt>
      <trkpt lat="48.16766" lon="-0.06035">
        <ele>148.9</ele>
        <time>2016-06-20T07:18:27Z</time>
      </trkpt>
      <trkpt lat="48.16776" lon="-0.06034">
        <ele>149.2</ele>
        <time>2016-06-20T07:18:35Z</time>
      </trkpt>
      <trkpt lat="48.16785" lon="-0.06031">
        <ele>149.3</ele>
        <time>2016-06-20T07:18:42Z</time>
      </trkpt>
      <trkpt lat="48.16794" lon="-0.0603">
        <ele>149.3</ele>
        <time>2016-06-20T07:18:50Z</time>
      </trkpt>
      <trkpt lat="48.16804" lon="-0.06031">
        <ele>148.9</ele>
        <time>2016-06-20T07:18:58Z</time>
      </trkpt>
      <trkpt lat="48.16813" lon="-0.0603">
        <ele>148.4</ele>
        <time>2016-06-20T07:19:06Z</time>
      </trkpt>
      <trkpt lat="48.16823" lon="-0.0603">
        <ele>149</ele>
        <time>2016-06-20T07:19:14Z</time>
      </trkpt>
      <trkpt lat="48.16832" lon="-0.0603">
        <ele>148.2</ele>
        <time>2016-06-20T07:19:23Z</time>
      </trkpt>
      <trkpt lat="48.16841" lon="-0.06027">
        <ele>148.4</ele>
        <time>2016-06-20T07:19:34Z</time>
      </trkpt>
      <trkpt lat="48.16851" lon="-0.06028">
        <ele>148.5</ele>
        <time>2016-06-20T07:20:56Z</time>
      </trkpt>
      <trkpt lat="48.16861" lon="-0.06028">
        <ele>148</ele>
        <time>2016-06-20T07:22:06Z</time>
      </trkpt>
      <trkpt lat="48.1687" lon="-0.0603">
        <ele>147.6</ele>
        <time>2016-06-20T07:22:15Z</time>
      </trkpt>
      <trkpt lat="48.16878" lon="-0.06039">
        <ele>147.9</ele>
        <time>2016-06-20T07:22:24Z</time>
      </trkpt>
      <trkpt lat="48.16887" lon="-0.06042">
        <ele>146.5</ele>
        <time>2016-06-20T07:22:31Z</time>
      </trkpt>
      <trkpt lat="48.16896" lon="-0.06046">
        <ele>146</ele>
        <time>2016-06-20T07:22:39Z</time>
      </trkpt>
      <trkpt lat="48.16905" lon="-0.06051">
        <ele>145.6</ele>
        <time>2016-06-20T07:22:46Z</time>
      </trkpt>
      <trkpt lat="48.16914" lon="-0.06057">
        <ele>145</ele>
        <time>2016-06-20T07:22:53Z</time>
      </trkpt>
      <trkpt lat="48.16923" lon="-0.06063">
        <ele>144.8</ele>
        <time>2016-06-20T07:23:01Z</time>
      </trkpt>
      <trkpt lat="48.16932" lon="-0.0607">
        <ele>144.7</ele>
        <time>2016-06-20T07:23:08Z</time>
      </trkpt>
      <trkpt lat="48.16941" lon="-0.06077">
        <ele>143.5</ele>
        <time>2016-06-20T07:23:15Z</time>
      </trkpt>
      <trkpt lat="48.16948" lon="-0.06086">
        <ele>142.9</ele>
        <time>2016-06-20T07:23:22Z</time>
      </trkpt>
      <trkpt lat="48.16956" lon="-0.06094">
        <ele>143.1</ele>
        <time>2016-06-20T07:23:31Z</time>
      </trkpt>
      <trkpt lat="48.16964" lon="-0.06102">
        <ele>142.8</ele>
        <time>2016-06-20T07:23:38Z</time>
      </trkpt>
      <trkpt lat="48.16971" lon="-0.06111">
        <ele>142.8</ele>
        <time>2016-06-20T07:23:45Z</time>
      </trkpt>
      <trkpt lat="48.16977" lon="-0.06122">
        <ele>142.5</ele>
        <time>2016-06-20T07:23:54Z</time>
      </trkpt>
      <trkpt lat="48.16983" lon="-0.06133">
        <ele>142.7</ele>
        <time>2016-06-20T07:24:04Z</time>
      </trkpt>
      <trkpt lat="48.16986" lon="-0.06146">
        <ele>141.9</ele>
        <time>2016-06-20T07:24:13Z</time>
      </trkpt>
      <trkpt lat="48.16987" lon="-0.06162">
        <ele>142.7</ele>
        <time>2016-06-20T07:24:21Z</time>
      </trkpt>
      <trkpt lat="48.16988" lon="-0.06177">
        <ele>143.3</ele>
        <time>2016-06-20T07:24:29Z</time>
      </trkpt>
      <trkpt lat="48.16991" lon="-0.06191">
        <ele>142.9</ele>
        <time>2016-06-20T07:24:37Z</time>
      </trkpt>
      <trkpt lat="48.16994" lon="-0.06205">
        <ele>144.3</ele>
        <time>2016-06-20T07:24:45Z</time>
      </trkpt>
      <trkpt lat="48.16998" lon="-0.06219">
        <ele>144.2</ele>
        <time>2016-06-20T07:24:54Z</time>
      </trkpt>
      <trkpt lat="48.17004" lon="-0.06231">
        <ele>144.6</ele>
        <time>2016-06-20T07:25:03Z</time>
      </trkpt>
      <trkpt lat="48.17009" lon="-0.06243">
        <ele>145.5</ele>
        <time>2016-06-20T07:25:12Z</time>
      </trkpt>
      <trkpt lat="48.17013" lon="-0.06255">
        <ele>145.2</ele>
        <time>2016-06-20T07:25:19Z</time>
      </trkpt>
      <trkpt lat="48.17019" lon="-0.06266">
        <ele>146.6</ele>
        <time>2016-06-20T07:25:27Z</time>
      </trkpt>
      <trkpt lat="48.17024" lon="-0.06279">
        <ele>146.7</ele>
        <time>2016-06-20T07:25:35Z</time>
      </trkpt>
      <trkpt lat="48.1703" lon="-0.06289">
        <ele>146.7</ele>
        <time>2016-06-20T07:25:43Z</time>
      </trkpt>
      <trkpt lat="48.17036" lon="-0.063">
        <ele>147.8</ele>
        <time>2016-06-20T07:25:51Z</time>
      </trkpt>
      <trkpt lat="48.17042" lon="-0.06311">
        <ele>148.2</ele>
        <time>2016-06-20T07:26:00Z</time>
      </trkpt>
      <trkpt lat="48.1705" lon="-0.06319">
        <ele>147.8</ele>
        <time>2016-06-20T07:26:08Z</time>
      </trkpt>
      <trkpt lat="48.17057" lon="-0.06328">
        <ele>149</ele>
        <time>2016-06-20T07:26:16Z</time>
      </trkpt>
      <trkpt lat="48.17063" lon="-0.06338">
        <ele>148.9</ele>
        <time>2016-06-20T07:26:24Z</time>
      </trkpt>
      <trkpt lat="48.17071" lon="-0.06347">
        <ele>149.7</ele>
        <time>2016-06-20T07:26:33Z</time>
      </trkpt>
      <trkpt lat="48.17079" lon="-0.06356">
        <ele>149</ele>
        <time>2016-06-20T07:26:41Z</time>
      </trkpt>
      <trkpt lat="48.17086" lon="-0.06365">
        <ele>148.6</ele>
        <time>2016-06-20T07:26:50Z</time>
      </trkpt>
      <trkpt lat="48.17094" lon="-0.06371">
        <ele>149.1</ele>
        <time>2016-06-20T07:26:57Z</time>
      </trkpt>
      <trkpt lat="48.17102" lon="-0.06377">
        <ele>148.6</ele>
        <time>2016-06-20T07:27:04Z</time>
      </trkpt>
      <trkpt lat="48.1711" lon="-0.06386">
        <ele>147.9</ele>
        <time>2016-06-20T07:27:11Z</time>
      </trkpt>
      <trkpt lat="48.17118" lon="-0.06394">
        <ele>147.5</ele>
        <time>2016-06-20T07:27:19Z</time>
      </trkpt>
      <trkpt lat="48.17125" lon="-0.06404">
        <ele>146.6</ele>
        <time>2016-06-20T07:27:27Z</time>
      </trkpt>
      <trkpt lat="48.17131" lon="-0.06413">
        <ele>146.3</ele>
        <time>2016-06-20T07:27:34Z</time>
      </trkpt>
      <trkpt lat="48.17135" lon="-0.06427">
        <ele>145.6</ele>
        <time>2016-06-20T07:27:42Z</time>
      </trkpt>
      <trkpt lat="48.17141" lon="-0.06438">
        <ele>145.3</ele>
        <time>2016-06-20T07:27:50Z</time>
      </trkpt>
      <trkpt lat="48.17147" lon="-0.0645">
        <ele>145.2</ele>
        <time>2016-06-20T07:28:00Z</time>
      </trkpt>
      <trkpt lat="48.17151" lon="-0.06462">
        <ele>144.6</ele>
        <time>2016-06-20T07:28:08Z</time>
      </trkpt>
      <trkpt lat="48.17156" lon="-0.06474">
        <ele>144.2</ele>
        <time>2016-06-20T07:28:17Z</time>
      </trkpt>
      <trkpt lat="48.17161" lon="-0.06487">
        <ele>144.2</ele>
        <time>2016-06-20T07:28:25Z</time>
      </trkpt>
      <trkpt lat="48.17167" lon="-0.06498">
        <ele>144.3</ele>
        <time>2016-06-20T07:28:32Z</time>
      </trkpt>
      <trkpt lat="48.17174" lon="-0.06509">
        <ele>143.4</ele>
        <time>2016-06-20T07:28:41Z</time>
      </trkpt>
      <trkpt lat="48.17183" lon="-0.06515">
        <ele>144</ele>
        <time>2016-06-20T07:28:49Z</time>
      </trkpt>
      <trkpt lat="48.17192" lon="-0.06519">
        <ele>144.8</ele>
        <time>2016-06-20T07:28:59Z</time>
      </trkpt>
      <trkpt lat="48.17197" lon="-0.06531">
        <ele>144.5</ele>
        <time>2016-06-20T07:35:42Z</time>
      </trkpt>
      <trkpt lat="48.172" lon="-0.06545">
        <ele>146.5</ele>
        <time>2016-06-20T07:35:51Z</time>
      </trkpt>
      <trkpt lat="48.17204" lon="-0.06558">
        <ele>146.7</ele>
        <time>2016-06-20T07:36:00Z</time>
      </trkpt>
      <trkpt lat="48.17207" lon="-0.06572">
        <ele>147.5</ele>
        <time>2016-06-20T07:36:09Z</time>
      </trkpt>
      <trkpt lat="48.17208" lon="-0.06586">
        <ele>147.4</ele>
        <time>2016-06-20T07:36:17Z</time>
      </trkpt>
      <trkpt lat="48.17209" lon="-0.066">
        <ele>147.6</ele>
        <time>2016-06-20T07:36:25Z</time>
      </trkpt>
      <trkpt lat="48.17211" lon="-0.06614">
        <ele>149.4</ele>
        <time>2016-06-20T07:36:33Z</time>
      </trkpt>
      <trkpt lat="48.17212" lon="-0.06628">
        <ele>148.9</ele>
        <time>2016-06-20T07:36:41Z</time>
      </trkpt>
      <trkpt lat="48.17212" lon="-0.06641">
        <ele>149.6</ele>
        <time>2016-06-20T07:37:08Z</time>
      </trkpt>
      <trkpt lat="48.17213" lon="-0.06656">
        <ele>148.2</ele>
        <time>2016-06-20T07:37:34Z</time>
      </trkpt>
      <trkpt lat="48.17216" lon="-0.06669">
        <ele>149.3</ele>
        <time>2016-06-20T07:37:42Z</time>
      </trkpt>
      <trkpt lat="48.17218" lon="-0.06683">
        <ele>150.2</ele>
        <time>2016-06-20T07:37:50Z</time>
      </trkpt>
      <trkpt lat="48.17218" lon="-0.06698">
        <ele>151.8</ele>
        <time>2016-06-20T07:37:58Z</time>
      </trkpt>
      <trkpt lat="48.17219" lon="-0.06712">
        <ele>151.9</ele>
        <time>2016-06-20T07:38:05Z</time>
      </trkpt>
      <trkpt lat="48.1722" lon="-0.06725">
        <ele>152.3</ele>
        <time>2016-06-20T07:38:12Z</time>
      </trkpt>
      <trkpt lat="48.17222" lon="-0.06739">
        <ele>152.7</ele>
        <time>2016-06-20T07:38:19Z</time>
      </trkpt>
      <trkpt lat="48.17223" lon="-0.06754">
        <ele>152.3</ele>
        <time>2016-06-20T07:38:26Z</time>
      </trkpt>
      <trkpt lat="48.17227" lon="-0.06766">
        <ele>152.1</ele>
        <time>2016-06-20T07:38:32Z</time>
      </trkpt>
      <trkpt lat="48.1723" lon="-0.0678">
        <ele>151.9</ele>
        <time>2016-06-20T07:38:39Z</time>
      </trkpt>
      <trkpt lat="48.17231" lon="-0.06794">
        <ele>153.8</ele>
        <time>2016-06-20T07:38:46Z</time>
      </trkpt>
      <trkpt lat="48.17231" lon="-0.06808">
        <ele>153.6</ele>
        <time>2016-06-20T07:38:53Z</time>
      </trkpt>
      <trkpt lat="48.17232" lon="-0.06823">
        <ele>153.4</ele>
        <time>2016-06-20T07:39:00Z</time>
      </trkpt>
      <trkpt lat="48.17233" lon="-0.06837">
        <ele>154.1</ele>
        <time>2016-06-20T07:39:07Z</time>
      </trkpt>
      <trkpt lat="48.17233" lon="-0.06852">
        <ele>153.8</ele>
        <time>2016-06-20T07:39:14Z</time>
      </trkpt>
      <trkpt lat="48.17235" lon="-0.06867">
        <ele>154.7</ele>
        <time>2016-06-20T07:39:21Z</time>
      </trkpt>
      <trkpt lat="48.17233" lon="-0.06881">
        <ele>155</ele>
        <time>2016-06-20T07:39:30Z</time>
      </trkpt>
      <trkpt lat="48.17234" lon="-0.06895">
        <ele>152.5</ele>
        <time>2016-06-20T07:41:45Z</time>
      </trkpt>
      <trkpt lat="48.17235" lon="-0.06909">
        <ele>151.8</ele>
        <time>2016-06-20T07:41:52Z</time>
      </trkpt>
      <trkpt lat="48.17236" lon="-0.06924">
        <ele>151</ele>
        <time>2016-06-20T07:42:01Z</time>
      </trkpt>
      <trkpt lat="48.17234" lon="-0.06939">
        <ele>152</ele>
        <time>2016-06-20T07:42:09Z</time>
      </trkpt>
      <trkpt lat="48.17234" lon="-0.06953">
        <ele>151.6</ele>
        <time>2016-06-20T07:42:17Z</time>
      </trkpt>
      <trkpt lat="48.17233" lon="-0.06967">
        <ele>151.4</ele>
        <time>2016-06-20T07:42:24Z</time>
      </trkpt>
      <trkpt lat="48.17233" lon="-0.06981">
        <ele>151.7</ele>
        <time>2016-06-20T07:42:31Z</time>
      </trkpt>
      <trkpt lat="48.17231" lon="-0.06995">
        <ele>151.5</ele>
        <time>2016-06-20T07:42:39Z</time>
      </trkpt>
      <trkpt lat="48.17231" lon="-0.07009">
        <ele>151.5</ele>
        <time>2016-06-20T07:42:47Z</time>
      </trkpt>
      <trkpt lat="48.17231" lon="-0.07023">
        <ele>151.3</ele>
        <time>2016-06-20T07:42:54Z</time>
      </trkpt>
      <trkpt lat="48.17232" lon="-0.07037">
        <ele>151.6</ele>
        <time>2016-06-20T07:43:01Z</time>
      </trkpt>
      <trkpt lat="48.17232" lon="-0.07052">
        <ele>151.3</ele>
        <time>2016-06-20T07:43:09Z</time>
      </trkpt>
      <trkpt lat="48.17231" lon="-0.07067">
        <ele>150.4</ele>
        <time>2016-06-20T07:43:16Z</time>
      </trkpt>
      <trkpt lat="48.17233" lon="-0.07081">
        <ele>150.8</ele>
        <time>2016-06-20T07:43:24Z</time>
      </trkpt>
      <trkpt lat="48.17232" lon="-0.07096">
        <ele>151.4</ele>
        <time>2016-06-20T07:43:32Z</time>
      </trkpt>
      <trkpt lat="48.17232" lon="-0.0711">
        <ele>151.4</ele>
        <time>2016-06-20T07:43:40Z</time>
      </trkpt>
      <trkpt lat="48.17235" lon="-0.07123">
        <ele>151.3</ele>
        <time>2016-06-20T07:43:48Z</time>
      </trkpt>
      <trkpt lat="48.17237" lon="-0.07137">
        <ele>150.5</ele>
        <time>2016-06-20T07:43:56Z</time>
      </trkpt>
      <trkpt lat="48.17239" lon="-0.07151">
        <ele>150.3</ele>
        <time>2016-06-20T07:44:03Z</time>
      </trkpt>
      <trkpt lat="48.17242" lon="-0.07164">
        <ele>150.2</ele>
        <time>2016-06-20T07:44:10Z</time>
      </trkpt>
      <trkpt lat="48.17246" lon="-0.07178">
        <ele>149.7</ele>
        <time>2016-06-20T07:44:18Z</time>
      </trkpt>
      <trkpt lat="48.17249" lon="-0.07191">
        <ele>149.2</ele>
        <time>2016-06-20T07:44:26Z</time>
      </trkpt>
      <trkpt lat="48.17252" lon="-0.07205">
        <ele>148.3</ele>
        <time>2016-06-20T07:44:34Z</time>
      </trkpt>
      <trkpt lat="48.17257" lon="-0.07218">
        <ele>147.8</ele>
        <time>2016-06-20T07:44:42Z</time>
      </trkpt>
      <trkpt lat="48.17261" lon="-0.0723">
        <ele>147.6</ele>
        <time>2016-06-20T07:44:50Z</time>
      </trkpt>
      <trkpt lat="48.17267" lon="-0.07243">
        <ele>148.1</ele>
        <time>2016-06-20T07:44:58Z</time>
      </trkpt>
      <trkpt lat="48.17273" lon="-0.07255">
        <ele>148</ele>
        <time>2016-06-20T07:45:06Z</time>
      </trkpt>
      <trkpt lat="48.17279" lon="-0.07267">
        <ele>147.9</ele>
        <time>2016-06-20T07:45:14Z</time>
      </trkpt>
      <trkpt lat="48.17286" lon="-0.07278">
        <ele>146.9</ele>
        <time>2016-06-20T07:45:22Z</time>
      </trkpt>
      <trkpt lat="48.17293" lon="-0.07287">
        <ele>146.4</ele>
        <time>2016-06-20T07:45:32Z</time>
      </trkpt>
      <trkpt lat="48.17299" lon="-0.07297">
        <ele>146.3</ele>
        <time>2016-06-20T07:45:38Z</time>
      </trkpt>
      <trkpt lat="48.17306" lon="-0.07308">
        <ele>145.4</ele>
        <time>2016-06-20T07:45:46Z</time>
      </trkpt>
      <trkpt lat="48.17311" lon="-0.0732">
        <ele>144.9</ele>
        <time>2016-06-20T07:45:54Z</time>
      </trkpt>
      <trkpt lat="48.17316" lon="-0.07332">
        <ele>144.2</ele>
        <time>2016-06-20T07:46:01Z</time>
      </trkpt>
      <trkpt lat="48.17322" lon="-0.07344">
        <ele>144</ele>
        <time>2016-06-20T07:46:08Z</time>
      </trkpt>
      <trkpt lat="48.17326" lon="-0.07357">
        <ele>143.6</ele>
        <time>2016-06-20T07:46:16Z</time>
      </trkpt>
      <trkpt lat="48.17332" lon="-0.07368">
        <ele>142.9</ele>
        <time>2016-06-20T07:46:24Z</time>
      </trkpt>
      <trkpt lat="48.17334" lon="-0.07381">
        <ele>142.8</ele>
        <time>2016-06-20T07:46:31Z</time>
      </trkpt>
      <trkpt lat="48.17338" lon="-0.07395">
        <ele>141.7</ele>
        <time>2016-06-20T07:46:55Z</time>
      </trkpt>
      <trkpt lat="48.17343" lon="-0.07407">
        <ele>141.8</ele>
        <time>2016-06-20T07:47:03Z</time>
      </trkpt>
      <trkpt lat="48.17347" lon="-0.0742">
        <ele>142.1</ele>
        <time>2016-06-20T07:47:10Z</time>
      </trkpt>
      <trkpt lat="48.17352" lon="-0.07432">
        <ele>141.9</ele>
        <time>2016-06-20T07:47:20Z</time>
      </trkpt>
      <trkpt lat="48.17357" lon="-0.07444">
        <ele>141.1</ele>
        <time>2016-06-20T07:47:27Z</time>
      </trkpt>
      <trkpt lat="48.17361" lon="-0.07457">
        <ele>141.2</ele>
        <time>2016-06-20T07:47:33Z</time>
      </trkpt>
      <trkpt lat="48.17364" lon="-0.0747">
        <ele>141.5</ele>
        <time>2016-06-20T07:47:41Z</time>
      </trkpt>
      <trkpt lat="48.17368" lon="-0.07483">
        <ele>141.7</ele>
        <time>2016-06-20T07:47:48Z</time>
      </trkpt>
      <trkpt lat="48.17375" lon="-0.07493">
        <ele>142.4</ele>
        <time>2016-06-20T07:47:55Z</time>
      </trkpt>
      <trkpt lat="48.17379" lon="-0.07506">
        <ele>140.9</ele>
        <time>2016-06-20T07:48:03Z</time>
      </trkpt>
      <trkpt lat="48.17382" lon="-0.07521">
        <ele>144</ele>
        <time>2016-06-20T07:48:12Z</time>
      </trkpt>
      <trkpt lat="48.17386" lon="-0.07537">
        <ele>145.6</ele>
        <time>2016-06-20T07:48:22Z</time>
      </trkpt>
      <trkpt lat="48.17389" lon="-0.07551">
        <ele>144.9</ele>
        <time>2016-06-20T07:48:31Z</time>
      </trkpt>
      <trkpt lat="48.17394" lon="-0.07564">
        <ele>145.3</ele>
        <time>2016-06-20T07:48:40Z</time>
      </trkpt>
      <trkpt lat="48.17398" lon="-0.07577">
        <ele>146.9</ele>
        <time>2016-06-20T07:48:48Z</time>
      </trkpt>
      <trkpt lat="48.17401" lon="-0.07591">
        <ele>145.8</ele>
        <time>2016-06-20T07:48:56Z</time>
      </trkpt>
      <trkpt lat="48.17402" lon="-0.07605">
        <ele>145.9</ele>
        <time>2016-06-20T07:49:04Z</time>
      </trkpt>
      <trkpt lat="48.17394" lon="-0.07613">
        <ele>148.3</ele>
        <time>2016-06-20T07:49:28Z</time>
      </trkpt>
      <trkpt lat="48.17388" lon="-0.07628">
        <ele>147.5</ele>
        <time>2016-06-20T07:49:37Z</time>
      </trkpt>
      <trkpt lat="48.17379" lon="-0.07631">
        <ele>146.5</ele>
        <time>2016-06-20T07:49:43Z</time>
      </trkpt>
      <trkpt lat="48.17372" lon="-0.07639">
        <ele>145.7</ele>
        <time>2016-06-20T07:49:50Z</time>
      </trkpt>
      <trkpt lat="48.17363" lon="-0.07644">
        <ele>145.9</ele>
        <time>2016-06-20T07:49:58Z</time>
      </trkpt>
      <trkpt lat="48.17354" lon="-0.07649">
        <ele>145.4</ele>
        <time>2016-06-20T07:50:06Z</time>
      </trkpt>
      <trkpt lat="48.17345" lon="-0.07653">
        <ele>144.5</ele>
        <time>2016-06-20T07:50:13Z</time>
      </trkpt>
      <trkpt lat="48.17336" lon="-0.07659">
        <ele>143.3</ele>
        <time>2016-06-20T07:50:21Z</time>
      </trkpt>
      <trkpt lat="48.17327" lon="-0.07663">
        <ele>143.2</ele>
        <time>2016-06-20T07:50:29Z</time>
      </trkpt>
      <trkpt lat="48.17319" lon="-0.07669">
        <ele>142.7</ele>
        <time>2016-06-20T07:50:37Z</time>
      </trkpt>
      <trkpt lat="48.1731" lon="-0.07674">
        <ele>142.5</ele>
        <time>2016-06-20T07:50:45Z</time>
      </trkpt>
      <trkpt lat="48.17302" lon="-0.07679">
        <ele>141.8</ele>
        <time>2016-06-20T07:50:53Z</time>
      </trkpt>
      <trkpt lat="48.17292" lon="-0.07684">
        <ele>141.4</ele>
        <time>2016-06-20T07:51:01Z</time>
      </trkpt>
      <trkpt lat="48.17283" lon="-0.07689">
        <ele>141.1</ele>
        <time>2016-06-20T07:51:09Z</time>
      </trkpt>
      <trkpt lat="48.17274" lon="-0.07694">
        <ele>140.7</ele>
        <time>2016-06-20T07:51:17Z</time>
      </trkpt>
      <trkpt lat="48.17265" lon="-0.07701">
        <ele>140.8</ele>
        <time>2016-06-20T07:51:25Z</time>
      </trkpt>
      <trkpt lat="48.17258" lon="-0.07711">
        <ele>141.5</ele>
        <time>2016-06-20T07:51:35Z</time>
      </trkpt>
      <trkpt lat="48.17263" lon="-0.07723">
        <ele>140.7</ele>
        <time>2016-06-20T07:51:47Z</time>
      </trkpt>
      <trkpt lat="48.17268" lon="-0.07735">
        <ele>140.7</ele>
        <time>2016-06-20T07:51:56Z</time>
      </trkpt>
      <trkpt lat="48.17273" lon="-0.07747">
        <ele>140.8</ele>
        <time>2016-06-20T07:52:04Z</time>
      </trkpt>
      <trkpt lat="48.17279" lon="-0.07758">
        <ele>140.9</ele>
        <time>2016-06-20T07:52:12Z</time>
      </trkpt>
      <trkpt lat="48.17286" lon="-0.0777">
        <ele>140</ele>
        <time>2016-06-20T07:52:21Z</time>
      </trkpt>
      <trkpt lat="48.17291" lon="-0.07782">
        <ele>140.4</ele>
        <time>2016-06-20T07:52:29Z</time>
      </trkpt>
      <trkpt lat="48.17295" lon="-0.07794">
        <ele>140.2</ele>
        <time>2016-06-20T07:53:01Z</time>
      </trkpt>
      <trkpt lat="48.17298" lon="-0.07808">
        <ele>140.2</ele>
        <time>2016-06-20T07:53:09Z</time>
      </trkpt>
      <trkpt lat="48.17302" lon="-0.07822">
        <ele>141.4</ele>
        <time>2016-06-20T07:53:17Z</time>
      </trkpt>
      <trkpt lat="48.17305" lon="-0.07835">
        <ele>140.7</ele>
        <time>2016-06-20T07:53:25Z</time>
      </trkpt>
      <trkpt lat="48.17308" lon="-0.0785">
        <ele>140.9</ele>
        <time>2016-06-20T07:53:33Z</time>
      </trkpt>
      <trkpt lat="48.17311" lon="-0.07864">
        <ele>140</ele>
        <time>2016-06-20T07:53:41Z</time>
      </trkpt>
      <trkpt lat="48.17314" lon="-0.07877">
        <ele>139.5</ele>
        <time>2016-06-20T07:53:50Z</time>
      </trkpt>
      <trkpt lat="48.17317" lon="-0.07891">
        <ele>139</ele>
        <time>2016-06-20T07:53:58Z</time>
      </trkpt>
      <trkpt lat="48.17318" lon="-0.07906">
        <ele>139.6</ele>
        <time>2016-06-20T07:54:06Z</time>
      </trkpt>
      <trkpt lat="48.1732" lon="-0.0792">
        <ele>139.6</ele>
        <time>2016-06-20T07:54:13Z</time>
      </trkpt>
      <trkpt lat="48.17322" lon="-0.07933">
        <ele>139.6</ele>
        <time>2016-06-20T07:54:20Z</time>
      </trkpt>
      <trkpt lat="48.17324" lon="-0.07947">
        <ele>139.8</ele>
        <time>2016-06-20T07:54:28Z</time>
      </trkpt>
      <trkpt lat="48.17326" lon="-0.07961">
        <ele>139.7</ele>
        <time>2016-06-20T07:54:36Z</time>
      </trkpt>
      <trkpt lat="48.17331" lon="-0.07974">
        <ele>138.6</ele>
        <time>2016-06-20T07:54:44Z</time>
      </trkpt>
      <trkpt lat="48.17335" lon="-0.07987">
        <ele>137.8</ele>
        <time>2016-06-20T07:54:52Z</time>
      </trkpt>
      <trkpt lat="48.17337" lon="-0.08001">
        <ele>138.9</ele>
        <time>2016-06-20T07:55:00Z</time>
      </trkpt>
      <trkpt lat="48.17339" lon="-0.08015">
        <ele>138.9</ele>
        <time>2016-06-20T07:55:08Z</time>
      </trkpt>
      <trkpt lat="48.17342" lon="-0.08029">
        <ele>139.4</ele>
        <time>2016-06-20T07:55:16Z</time>
      </trkpt>
      <trkpt lat="48.17345" lon="-0.08043">
        <ele>139</ele>
        <time>2016-06-20T07:55:24Z</time>
      </trkpt>
      <trkpt lat="48.17347" lon="-0.08056">
        <ele>138.2</ele>
        <time>2016-06-20T07:55:32Z</time>
      </trkpt>
      <trkpt lat="48.17352" lon="-0.0807">
        <ele>137.9</ele>
        <time>2016-06-20T07:55:40Z</time>
      </trkpt>
      <trkpt lat="48.17357" lon="-0.08083">
        <ele>137.6</ele>
        <time>2016-06-20T07:55:48Z</time>
      </trkpt>
      <trkpt lat="48.17361" lon="-0.08095">
        <ele>137.9</ele>
        <time>2016-06-20T07:55:56Z</time>
      </trkpt>
      <trkpt lat="48.17363" lon="-0.08109">
        <ele>138.2</ele>
        <time>2016-06-20T07:56:04Z</time>
      </trkpt>
      <trkpt lat="48.17365" lon="-0.08122">
        <ele>138.5</ele>
        <time>2016-06-20T07:56:12Z</time>
      </trkpt>
      <trkpt lat="48.17367" lon="-0.08136">
        <ele>138</ele>
        <time>2016-06-20T07:56:20Z</time>
      </trkpt>
      <trkpt lat="48.17371" lon="-0.0815">
        <ele>137.9</ele>
        <time>2016-06-20T07:56:28Z</time>
      </trkpt>
      <trkpt lat="48.17374" lon="-0.08163">
        <ele>139</ele>
        <time>2016-06-20T07:56:37Z</time>
      </trkpt>
      <trkpt lat="48.17378" lon="-0.08177">
        <ele>139.7</ele>
        <time>2016-06-20T07:56:45Z</time>
      </trkpt>
      <trkpt lat="48.1738" lon="-0.0819">
        <ele>139.7</ele>
        <time>2016-06-20T07:57:29Z</time>
      </trkpt>
      <trkpt lat="48.17384" lon="-0.08203">
        <ele>138.8</ele>
        <time>2016-06-20T07:57:38Z</time>
      </trkpt>
      <trkpt lat="48.17388" lon="-0.08216">
        <ele>139.3</ele>
        <time>2016-06-20T07:57:47Z</time>
      </trkpt>
      <trkpt lat="48.17391" lon="-0.08229">
        <ele>139.5</ele>
        <time>2016-06-20T07:57:56Z</time>
      </trkpt>
      <trkpt lat="48.17394" lon="-0.08242">
        <ele>138.9</ele>
        <time>2016-06-20T07:58:03Z</time>
      </trkpt>
      <trkpt lat="48.17396" lon="-0.08255">
        <ele>139</ele>
        <time>2016-06-20T07:58:10Z</time>
      </trkpt>
      <trkpt lat="48.17399" lon="-0.08269">
        <ele>139.9</ele>
        <time>2016-06-20T07:58:17Z</time>
      </trkpt>
      <trkpt lat="48.17399" lon="-0.08283">
        <ele>140.5</ele>
        <time>2016-06-20T07:58:24Z</time>
      </trkpt>
      <trkpt lat="48.174" lon="-0.08297">
        <ele>140.7</ele>
        <time>2016-06-20T07:58:31Z</time>
      </trkpt>
      <trkpt lat="48.17402" lon="-0.08311">
        <ele>140.6</ele>
        <time>2016-06-20T07:58:39Z</time>
      </trkpt>
      <trkpt lat="48.17404" lon="-0.08325">
        <ele>140.3</ele>
        <time>2016-06-20T07:58:47Z</time>
      </trkpt>
      <trkpt lat="48.17406" lon="-0.08339">
        <ele>141</ele>
        <time>2016-06-20T07:58:55Z</time>
      </trkpt>
      <trkpt lat="48.17409" lon="-0.08353">
        <ele>141.5</ele>
        <time>2016-06-20T07:59:03Z</time>
      </trkpt>
      <trkpt lat="48.17412" lon="-0.08367">
        <ele>141.4</ele>
        <time>2016-06-20T07:59:11Z</time>
      </trkpt>
      <trkpt lat="48.17415" lon="-0.0838">
        <ele>141.8</ele>
        <time>2016-06-20T07:59:18Z</time>
      </trkpt>
      <trkpt lat="48.17418" lon="-0.08394">
        <ele>141.4</ele>
        <time>2016-06-20T07:59:27Z</time>
      </trkpt>
      <trkpt lat="48.17421" lon="-0.08408">
        <ele>141.8</ele>
        <time>2016-06-20T07:59:35Z</time>
      </trkpt>
      <trkpt lat="48.17424" lon="-0.08422">
        <ele>142.4</ele>
        <time>2016-06-20T07:59:43Z</time>
      </trkpt>
      <trkpt lat="48.17428" lon="-0.08435">
        <ele>143.1</ele>
        <time>2016-06-20T07:59:52Z</time>
      </trkpt>
      <trkpt lat="48.17431" lon="-0.08449">
        <ele>143.6</ele>
        <time>2016-06-20T08:00:01Z</time>
      </trkpt>
      <trkpt lat="48.17435" lon="-0.08462">
        <ele>143.1</ele>
        <time>2016-06-20T08:00:08Z</time>
      </trkpt>
      <trkpt lat="48.17436" lon="-0.08477">
        <ele>142.9</ele>
        <time>2016-06-20T08:00:16Z</time>
      </trkpt>
      <trkpt lat="48.17439" lon="-0.08492">
        <ele>144</ele>
        <time>2016-06-20T08:00:25Z</time>
      </trkpt>
      <trkpt lat="48.17441" lon="-0.08505">
        <ele>143.8</ele>
        <time>2016-06-20T08:00:33Z</time>
      </trkpt>
      <trkpt lat="48.17446" lon="-0.08518">
        <ele>144.4</ele>
        <time>2016-06-20T08:00:40Z</time>
      </trkpt>
      <trkpt lat="48.17448" lon="-0.08532">
        <ele>143.4</ele>
        <time>2016-06-20T08:00:49Z</time>
      </trkpt>
      <trkpt lat="48.1745" lon="-0.08546">
        <ele>144.2</ele>
        <time>2016-06-20T08:00:56Z</time>
      </trkpt>
      <trkpt lat="48.17453" lon="-0.0856">
        <ele>144.6</ele>
        <time>2016-06-20T08:01:04Z</time>
      </trkpt>
      <trkpt lat="48.17455" lon="-0.08574">
        <ele>145</ele>
        <time>2016-06-20T08:01:11Z</time>
      </trkpt>
      <trkpt lat="48.1746" lon="-0.08586">
        <ele>145.7</ele>
        <time>2016-06-20T08:01:18Z</time>
      </trkpt>
      <trkpt lat="48.1746" lon="-0.08601">
        <ele>146.5</ele>
        <time>2016-06-20T08:02:27Z</time>
      </trkpt>
      <trkpt lat="48.17462" lon="-0.08615">
        <ele>146.3</ele>
        <time>2016-06-20T08:02:35Z</time>
      </trkpt>
      <trkpt lat="48.17466" lon="-0.08627">
        <ele>146.6</ele>
        <time>2016-06-20T08:02:43Z</time>
      </trkpt>
      <trkpt lat="48.17472" lon="-0.08639">
        <ele>147.3</ele>
        <time>2016-06-20T08:02:51Z</time>
      </trkpt>
      <trkpt lat="48.17477" lon="-0.08651">
        <ele>147.5</ele>
        <time>2016-06-20T08:03:00Z</time>
      </trkpt>
      <trkpt lat="48.17483" lon="-0.08662">
        <ele>148.4</ele>
        <time>2016-06-20T08:03:08Z</time>
      </trkpt>
      <trkpt lat="48.1749" lon="-0.08674">
        <ele>149.5</ele>
        <time>2016-06-20T08:03:17Z</time>
      </trkpt>
      <trkpt lat="48.17497" lon="-0.08685">
        <ele>149.4</ele>
        <time>2016-06-20T08:03:26Z</time>
      </trkpt>
      <trkpt lat="48.17502" lon="-0.08697">
        <ele>150.3</ele>
        <time>2016-06-20T08:03:35Z</time>
      </trkpt>
      <trkpt lat="48.17508" lon="-0.08708">
        <ele>151.1</ele>
        <time>2016-06-20T08:03:45Z</time>
      </trkpt>
      <trkpt lat="48.17515" lon="-0.08718">
        <ele>151.7</ele>
        <time>2016-06-20T08:03:53Z</time>
      </trkpt>
      <trkpt lat="48.17522" lon="-0.08727">
        <ele>151.7</ele>
        <time>2016-06-20T08:04:02Z</time>
      </trkpt>
      <trkpt lat="48.17529" lon="-0.08736">
        <ele>151.2</ele>
        <time>2016-06-20T08:04:10Z</time>
      </trkpt>
      <trkpt lat="48.17537" lon="-0.08745">
        <ele>152.4</ele>
        <time>2016-06-20T08:04:19Z</time>
      </trkpt>
      <trkpt lat="48.17544" lon="-0.08753">
        <ele>153</ele>
        <time>2016-06-20T08:04:28Z</time>
      </trkpt>
      <trkpt lat="48.17552" lon="-0.08762">
        <ele>153.1</ele>
        <time>2016-06-20T08:04:36Z</time>
      </trkpt>
      <trkpt lat="48.1756" lon="-0.0877">
        <ele>153.3</ele>
        <time>2016-06-20T08:04:44Z</time>
      </trkpt>
      <trkpt lat="48.17567" lon="-0.08779">
        <ele>153.5</ele>
        <time>2016-06-20T08:04:52Z</time>
      </trkpt>
      <trkpt lat="48.17575" lon="-0.08787">
        <ele>153.6</ele>
        <time>2016-06-20T08:05:00Z</time>
      </trkpt>
      <trkpt lat="48.17582" lon="-0.08795">
        <ele>155.1</ele>
        <time>2016-06-20T08:05:08Z</time>
      </trkpt>
      <trkpt lat="48.1759" lon="-0.08805">
        <ele>155.3</ele>
        <time>2016-06-20T08:05:16Z</time>
      </trkpt>
      <trkpt lat="48.17597" lon="-0.08814">
        <ele>154.9</ele>
        <time>2016-06-20T08:05:24Z</time>
      </trkpt>
      <trkpt lat="48.17604" lon="-0.08825">
        <ele>155.6</ele>
        <time>2016-06-20T08:05:32Z</time>
      </trkpt>
      <trkpt lat="48.17609" lon="-0.08836">
        <ele>154.9</ele>
        <time>2016-06-20T08:05:40Z</time>
      </trkpt>
      <trkpt lat="48.17615" lon="-0.08847">
        <ele>155.2</ele>
        <time>2016-06-20T08:05:48Z</time>
      </trkpt>
      <trkpt lat="48.1762" lon="-0.0886">
        <ele>156.2</ele>
        <time>2016-06-20T08:05:57Z</time>
      </trkpt>
      <trkpt lat="48.17627" lon="-0.08871">
        <ele>156.5</ele>
        <time>2016-06-20T08:06:05Z</time>
      </trkpt>
      <trkpt lat="48.17632" lon="-0.08883">
        <ele>156.2</ele>
        <time>2016-06-20T08:06:13Z</time>
      </trkpt>
      <trkpt lat="48.17638" lon="-0.08893">
        <ele>156.4</ele>
        <time>2016-06-20T08:06:20Z</time>
      </trkpt>
      <trkpt lat="48.17643" lon="-0.08905">
        <ele>156.9</ele>
        <time>2016-06-20T08:06:28Z</time>
      </trkpt>
      <trkpt lat="48.17649" lon="-0.08918">
        <ele>157.3</ele>
        <time>2016-06-20T08:06:36Z</time>
      </trkpt>
      <trkpt lat="48.17654" lon="-0.08929">
        <ele>157.6</ele>
        <time>2016-06-20T08:06:43Z</time>
      </trkpt>
      <trkpt lat="48.1766" lon="-0.08941">
        <ele>157.8</ele>
        <time>2016-06-20T08:06:51Z</time>
      </trkpt>
      <trkpt lat="48.17666" lon="-0.08951">
        <ele>157.3</ele>
        <time>2016-06-20T08:06:59Z</time>
      </trkpt>
      <trkpt lat="48.17671" lon="-0.08964">
        <ele>157</ele>
        <time>2016-06-20T08:07:07Z</time>
      </trkpt>
      <trkpt lat="48.17676" lon="-0.08975">
        <ele>157.3</ele>
        <time>2016-06-20T08:07:14Z</time>
      </trkpt>
      <trkpt lat="48.17683" lon="-0.08987">
        <ele>157.5</ele>
        <time>2016-06-20T08:07:22Z</time>
      </trkpt>
      <trkpt lat="48.17689" lon="-0.08999">
        <ele>157.8</ele>
        <time>2016-06-20T08:07:30Z</time>
      </trkpt>
      <trkpt lat="48.17694" lon="-0.09011">
        <ele>157.9</ele>
        <time>2016-06-20T08:07:38Z</time>
      </trkpt>
      <trkpt lat="48.177" lon="-0.09023">
        <ele>158.4</ele>
        <time>2016-06-20T08:07:47Z</time>
      </trkpt>
      <trkpt lat="48.17706" lon="-0.09034">
        <ele>159.1</ele>
        <time>2016-06-20T08:07:55Z</time>
      </trkpt>
      <trkpt lat="48.17713" lon="-0.09045">
        <ele>159.7</ele>
        <time>2016-06-20T08:08:03Z</time>
      </trkpt>
      <trkpt lat="48.17719" lon="-0.09056">
        <ele>159.5</ele>
        <time>2016-06-20T08:08:11Z</time>
      </trkpt>
      <trkpt lat="48.17725" lon="-0.09068">
        <ele>159.7</ele>
        <time>2016-06-20T08:08:19Z</time>
      </trkpt>
      <trkpt lat="48.17732" lon="-0.09078">
        <ele>159.5</ele>
        <time>2016-06-20T08:08:27Z</time>
      </trkpt>
      <trkpt lat="48.17739" lon="-0.0909">
        <ele>159.8</ele>
        <time>2016-06-20T08:08:50Z</time>
      </trkpt>
      <trkpt lat="48.17745" lon="-0.09101">
        <ele>160</ele>
        <time>2016-06-20T08:08:58Z</time>
      </trkpt>
      <trkpt lat="48.17752" lon="-0.09112">
        <ele>160.5</ele>
        <time>2016-06-20T08:09:06Z</time>
      </trkpt>
      <trkpt lat="48.17757" lon="-0.09123">
        <ele>160.4</ele>
        <time>2016-06-20T08:09:13Z</time>
      </trkpt>
      <trkpt lat="48.17764" lon="-0.09135">
        <ele>160.5</ele>
        <time>2016-06-20T08:09:21Z</time>
      </trkpt>
      <trkpt lat="48.1777" lon="-0.09147">
        <ele>160.1</ele>
        <time>2016-06-20T08:09:30Z</time>
      </trkpt>
      <trkpt lat="48.17776" lon="-0.09159">
        <ele>160</ele>
        <time>2016-06-20T08:09:38Z</time>
      </trkpt>
      <trkpt lat="48.17783" lon="-0.0917">
        <ele>160.1</ele>
        <time>2016-06-20T08:09:47Z</time>
      </trkpt>
      <trkpt lat="48.17789" lon="-0.09181">
        <ele>160.3</ele>
        <time>2016-06-20T08:09:55Z</time>
      </trkpt>
      <trkpt lat="48.17796" lon="-0.09191">
        <ele>160</ele>
        <time>2016-06-20T08:10:02Z</time>
      </trkpt>
      <trkpt lat="48.17802" lon="-0.09201">
        <ele>160.4</ele>
        <time>2016-06-20T08:10:10Z</time>
      </trkpt>
      <trkpt lat="48.17809" lon="-0.09211">
        <ele>160.7</ele>
        <time>2016-06-20T08:10:18Z</time>
      </trkpt>
      <trkpt lat="48.17817" lon="-0.09221">
        <ele>160.6</ele>
        <time>2016-06-20T08:10:26Z</time>
      </trkpt>
      <trkpt lat="48.17825" lon="-0.09231">
        <ele>160.2</ele>
        <time>2016-06-20T08:10:34Z</time>
      </trkpt>
      <trkpt lat="48.17833" lon="-0.09241">
        <ele>160</ele>
        <time>2016-06-20T08:10:42Z</time>
      </trkpt>
      <trkpt lat="48.1784" lon="-0.09251">
        <ele>159.9</ele>
        <time>2016-06-20T08:10:50Z</time>
      </trkpt>
      <trkpt lat="48.17847" lon="-0.09261">
        <ele>159.7</ele>
        <time>2016-06-20T08:10:58Z</time>
      </trkpt>
      <trkpt lat="48.17854" lon="-0.09271">
        <ele>160</ele>
        <time>2016-06-20T08:11:07Z</time>
      </trkpt>
      <trkpt lat="48.17861" lon="-0.09281">
        <ele>159.7</ele>
        <time>2016-06-20T08:11:15Z</time>
      </trkpt>
      <trkpt lat="48.17868" lon="-0.09291">
        <ele>160.2</ele>
        <time>2016-06-20T08:11:23Z</time>
      </trkpt>
      <trkpt lat="48.17875" lon="-0.09301">
        <ele>160</ele>
        <time>2016-06-20T08:11:31Z</time>
      </trkpt>
      <trkpt lat="48.17882" lon="-0.09311">
        <ele>160.5</ele>
        <time>2016-06-20T08:11:39Z</time>
      </trkpt>
      <trkpt lat="48.17888" lon="-0.09321">
        <ele>159.8</ele>
        <time>2016-06-20T08:12:09Z</time>
      </trkpt>
      <trkpt lat="48.17895" lon="-0.09332">
        <ele>159.9</ele>
        <time>2016-06-20T08:12:23Z</time>
      </trkpt>
      <trkpt lat="48.17902" lon="-0.09343">
        <ele>160.1</ele>
        <time>2016-06-20T08:12:31Z</time>
      </trkpt>
      <trkpt lat="48.17908" lon="-0.09352">
        <ele>159.7</ele>
        <time>2016-06-20T08:12:41Z</time>
      </trkpt>
      <trkpt lat="48.17916" lon="-0.0936">
        <ele>159.2</ele>
        <time>2016-06-20T08:12:49Z</time>
      </trkpt>
      <trkpt lat="48.17925" lon="-0.09368">
        <ele>159.3</ele>
        <time>2016-06-20T08:12:57Z</time>
      </trkpt>
      <trkpt lat="48.17933" lon="-0.09376">
        <ele>159.8</ele>
        <time>2016-06-20T08:13:05Z</time>
      </trkpt>
      <trkpt lat="48.17941" lon="-0.09385">
        <ele>160.1</ele>
        <time>2016-06-20T08:13:13Z</time>
      </trkpt>
      <trkpt lat="48.17949" lon="-0.09394">
        <ele>160.3</ele>
        <time>2016-06-20T08:13:21Z</time>
      </trkpt>
      <trkpt lat="48.17957" lon="-0.09402">
        <ele>159.2</ele>
        <time>2016-06-20T08:13:29Z</time>
      </trkpt>
      <trkpt lat="48.17964" lon="-0.09412">
        <ele>159.5</ele>
        <time>2016-06-20T08:13:36Z</time>
      </trkpt>
      <trkpt lat="48.17971" lon="-0.09421">
        <ele>160.5</ele>
        <time>2016-06-20T08:13:43Z</time>
      </trkpt>
      <trkpt lat="48.17978" lon="-0.09431">
        <ele>160.7</ele>
        <time>2016-06-20T08:13:51Z</time>
      </trkpt>
      <trkpt lat="48.17984" lon="-0.09441">
        <ele>161.1</ele>
        <time>2016-06-20T08:13:59Z</time>
      </trkpt>
      <trkpt lat="48.17991" lon="-0.0945">
        <ele>161</ele>
        <time>2016-06-20T08:14:06Z</time>
      </trkpt>
      <trkpt lat="48.17997" lon="-0.09462">
        <ele>160.2</ele>
        <time>2016-06-20T08:14:15Z</time>
      </trkpt>
      <trkpt lat="48.18004" lon="-0.09473">
        <ele>160.7</ele>
        <time>2016-06-20T08:14:24Z</time>
      </trkpt>
      <trkpt lat="48.18008" lon="-0.09485">
        <ele>161.7</ele>
        <time>2016-06-20T08:14:53Z</time>
      </trkpt>
      <trkpt lat="48.18014" lon="-0.09496">
        <ele>161.7</ele>
        <time>2016-06-20T08:15:00Z</time>
      </trkpt>
      <trkpt lat="48.18018" lon="-0.09508">
        <ele>161</ele>
        <time>2016-06-20T08:15:07Z</time>
      </trkpt>
      <trkpt lat="48.18022" lon="-0.09521">
        <ele>161.8</ele>
        <time>2016-06-20T08:15:15Z</time>
      </trkpt>
      <trkpt lat="48.18028" lon="-0.09534">
        <ele>162.7</ele>
        <time>2016-06-20T08:15:23Z</time>
      </trkpt>
      <trkpt lat="48.18031" lon="-0.09547">
        <ele>161.8</ele>
        <time>2016-06-20T08:15:31Z</time>
      </trkpt>
      <trkpt lat="48.18036" lon="-0.09559">
        <ele>160.9</ele>
        <time>2016-06-20T08:15:38Z</time>
      </trkpt>
      <trkpt lat="48.18041" lon="-0.09573">
        <ele>160.9</ele>
        <time>2016-06-20T08:15:46Z</time>
      </trkpt>
      <trkpt lat="48.18045" lon="-0.09586">
        <ele>160.8</ele>
        <time>2016-06-20T08:15:53Z</time>
      </trkpt>
      <trkpt lat="48.18048" lon="-0.09599">
        <ele>160.9</ele>
        <time>2016-06-20T08:16:02Z</time>
      </trkpt>
      <trkpt lat="48.18052" lon="-0.09613">
        <ele>160.3</ele>
        <time>2016-06-20T08:16:10Z</time>
      </trkpt>
      <trkpt lat="48.18056" lon="-0.09625">
        <ele>160.9</ele>
        <time>2016-06-20T08:16:17Z</time>
      </trkpt>
      <trkpt lat="48.18055" lon="-0.09639">
        <ele>161.4</ele>
        <time>2016-06-20T08:16:25Z</time>
      </trkpt>
      <trkpt lat="48.1806" lon="-0.09652">
        <ele>164.6</ele>
        <time>2016-06-20T08:16:49Z</time>
      </trkpt>
      <trkpt lat="48.18066" lon="-0.09663">
        <ele>163</ele>
        <time>2016-06-20T08:16:57Z</time>
      </trkpt>
      <trkpt lat="48.18071" lon="-0.09675">
        <ele>162.3</ele>
        <time>2016-06-20T08:17:04Z</time>
      </trkpt>
      <trkpt lat="48.18076" lon="-0.09688">
        <ele>161.7</ele>
        <time>2016-06-20T08:17:11Z</time>
      </trkpt>
      <trkpt lat="48.18078" lon="-0.09703">
        <ele>161.8</ele>
        <time>2016-06-20T08:17:20Z</time>
      </trkpt>
      <trkpt lat="48.18082" lon="-0.09715">
        <ele>160.5</ele>
        <time>2016-06-20T08:17:27Z</time>
      </trkpt>
      <trkpt lat="48.18087" lon="-0.09728">
        <ele>160.9</ele>
        <time>2016-06-20T08:17:35Z</time>
      </trkpt>
      <trkpt lat="48.1809" lon="-0.09741">
        <ele>160.2</ele>
        <time>2016-06-20T08:17:42Z</time>
      </trkpt>
      <trkpt lat="48.18091" lon="-0.09755">
        <ele>161.3</ele>
        <time>2016-06-20T08:17:50Z</time>
      </trkpt>
      <trkpt lat="48.18094" lon="-0.09769">
        <ele>162.3</ele>
        <time>2016-06-20T08:17:57Z</time>
      </trkpt>
      <trkpt lat="48.18095" lon="-0.09784">
        <ele>162.3</ele>
        <time>2016-06-20T08:18:06Z</time>
      </trkpt>
      <trkpt lat="48.18097" lon="-0.09797">
        <ele>161.8</ele>
        <time>2016-06-20T08:18:13Z</time>
      </trkpt>
      <trkpt lat="48.181" lon="-0.0981">
        <ele>160.9</ele>
        <time>2016-06-20T08:18:20Z</time>
      </trkpt>
      <trkpt lat="48.18101" lon="-0.09824">
        <ele>161.1</ele>
        <time>2016-06-20T08:18:28Z</time>
      </trkpt>
      <trkpt lat="48.18102" lon="-0.09838">
        <ele>161.9</ele>
        <time>2016-06-20T08:18:36Z</time>
      </trkpt>
      <trkpt lat="48.18104" lon="-0.09852">
        <ele>162.8</ele>
        <time>2016-06-20T08:18:44Z</time>
      </trkpt>
      <trkpt lat="48.18105" lon="-0.09867">
        <ele>162.8</ele>
        <time>2016-06-20T08:18:52Z</time>
      </trkpt>
      <trkpt lat="48.18107" lon="-0.09881">
        <ele>163.6</ele>
        <time>2016-06-20T08:19:00Z</time>
      </trkpt>
      <trkpt lat="48.18107" lon="-0.09895">
        <ele>164.3</ele>
        <time>2016-06-20T08:19:08Z</time>
      </trkpt>
      <trkpt lat="48.18108" lon="-0.09909">
        <ele>164.2</ele>
        <time>2016-06-20T08:19:15Z</time>
      </trkpt>
      <trkpt lat="48.18109" lon="-0.09923">
        <ele>163.7</ele>
        <time>2016-06-20T08:19:23Z</time>
      </trkpt>
      <trkpt lat="48.18111" lon="-0.09937">
        <ele>164.6</ele>
        <time>2016-06-20T08:19:31Z</time>
      </trkpt>
      <trkpt lat="48.18111" lon="-0.09951">
        <ele>165.4</ele>
        <time>2016-06-20T08:19:40Z</time>
      </trkpt>
      <trkpt lat="48.18113" lon="-0.09966">
        <ele>163.9</ele>
        <time>2016-06-20T08:19:48Z</time>
      </trkpt>
      <trkpt lat="48.18114" lon="-0.0998">
        <ele>167</ele>
        <time>2016-06-20T08:19:56Z</time>
      </trkpt>
      <trkpt lat="48.18113" lon="-0.09995">
        <ele>166.7</ele>
        <time>2016-06-20T08:20:04Z</time>
      </trkpt>
      <trkpt lat="48.18114" lon="-0.1001">
        <ele>166.7</ele>
        <time>2016-06-20T08:20:12Z</time>
      </trkpt>
      <trkpt lat="48.18115" lon="-0.10025">
        <ele>167.2</ele>
        <time>2016-06-20T08:20:21Z</time>
      </trkpt>
      <trkpt lat="48.18117" lon="-0.1004">
        <ele>166.6</ele>
        <time>2016-06-20T08:20:29Z</time>
      </trkpt>
      <trkpt lat="48.18117" lon="-0.10054">
        <ele>167.4</ele>
        <time>2016-06-20T08:20:57Z</time>
      </trkpt>
      <trkpt lat="48.18119" lon="-0.10069">
        <ele>169.3</ele>
        <time>2016-06-20T08:21:06Z</time>
      </trkpt>
      <trkpt lat="48.1812" lon="-0.10083">
        <ele>168.5</ele>
        <time>2016-06-20T08:21:14Z</time>
      </trkpt>
      <trkpt lat="48.18121" lon="-0.10097">
        <ele>170</ele>
        <time>2016-06-20T08:21:22Z</time>
      </trkpt>
      <trkpt lat="48.18121" lon="-0.10111">
        <ele>170.2</ele>
        <time>2016-06-20T08:21:30Z</time>
      </trkpt>
      <trkpt lat="48.18121" lon="-0.10126">
        <ele>170.8</ele>
        <time>2016-06-20T08:21:39Z</time>
      </trkpt>
      <trkpt lat="48.18123" lon="-0.10139">
        <ele>170.1</ele>
        <time>2016-06-20T08:21:46Z</time>
      </trkpt>
      <trkpt lat="48.18124" lon="-0.10154">
        <ele>170.9</ele>
        <time>2016-06-20T08:21:54Z</time>
      </trkpt>
      <trkpt lat="48.18125" lon="-0.10168">
        <ele>172</ele>
        <time>2016-06-20T08:22:02Z</time>
      </trkpt>
      <trkpt lat="48.18126" lon="-0.10183">
        <ele>170.8</ele>
        <time>2016-06-20T08:22:10Z</time>
      </trkpt>
      <trkpt lat="48.18127" lon="-0.10197">
        <ele>172.3</ele>
        <time>2016-06-20T08:22:19Z</time>
      </trkpt>
      <trkpt lat="48.18127" lon="-0.10212">
        <ele>173.2</ele>
        <time>2016-06-20T08:22:28Z</time>
      </trkpt>
      <trkpt lat="48.18128" lon="-0.10226">
        <ele>172.6</ele>
        <time>2016-06-20T08:22:36Z</time>
      </trkpt>
      <trkpt lat="48.1813" lon="-0.1024">
        <ele>173.5</ele>
        <time>2016-06-20T08:22:44Z</time>
      </trkpt>
      <trkpt lat="48.1813" lon="-0.10255">
        <ele>173.1</ele>
        <time>2016-06-20T08:22:53Z</time>
      </trkpt>
      <trkpt lat="48.18131" lon="-0.10269">
        <ele>174</ele>
        <time>2016-06-20T08:23:01Z</time>
      </trkpt>
      <trkpt lat="48.18134" lon="-0.10282">
        <ele>174.2</ele>
        <time>2016-06-20T08:23:08Z</time>
      </trkpt>
      <trkpt lat="48.18135" lon="-0.10295">
        <ele>175.9</ele>
        <time>2016-06-20T08:23:16Z</time>
      </trkpt>
      <trkpt lat="48.18136" lon="-0.1031">
        <ele>174.7</ele>
        <time>2016-06-20T08:23:24Z</time>
      </trkpt>
      <trkpt lat="48.18139" lon="-0.10324">
        <ele>175.3</ele>
        <time>2016-06-20T08:23:32Z</time>
      </trkpt>
      <trkpt lat="48.1814" lon="-0.10339">
        <ele>175.6</ele>
        <time>2016-06-20T08:23:40Z</time>
      </trkpt>
      <trkpt lat="48.1814" lon="-0.10353">
        <ele>176.5</ele>
        <time>2016-06-20T08:23:48Z</time>
      </trkpt>
      <trkpt lat="48.18142" lon="-0.10367">
        <ele>176.3</ele>
        <time>2016-06-20T08:23:56Z</time>
      </trkpt>
      <trkpt lat="48.18144" lon="-0.10382">
        <ele>175.3</ele>
        <time>2016-06-20T08:24:04Z</time>
      </trkpt>
      <trkpt lat="48.18146" lon="-0.10396">
        <ele>175.5</ele>
        <time>2016-06-20T08:24:11Z</time>
      </trkpt>
      <trkpt lat="48.18149" lon="-0.10409">
        <ele>175.6</ele>
        <time>2016-06-20T08:24:18Z</time>
      </trkpt>
      <trkpt lat="48.1815" lon="-0.10424">
        <ele>175.6</ele>
        <time>2016-06-20T08:24:27Z</time>
      </trkpt>
      <trkpt lat="48.18152" lon="-0.10438">
        <ele>176</ele>
        <time>2016-06-20T08:25:19Z</time>
      </trkpt>
      <trkpt lat="48.18154" lon="-0.10453">
        <ele>175.8</ele>
        <time>2016-06-20T08:25:27Z</time>
      </trkpt>
      <trkpt lat="48.18156" lon="-0.10467">
        <ele>174.7</ele>
        <time>2016-06-20T08:25:35Z</time>
      </trkpt>
      <trkpt lat="48.18158" lon="-0.1048">
        <ele>174.9</ele>
        <time>2016-06-20T08:25:42Z</time>
      </trkpt>
      <trkpt lat="48.18159" lon="-0.10494">
        <ele>173.9</ele>
        <time>2016-06-20T08:25:50Z</time>
      </trkpt>
      <trkpt lat="48.18162" lon="-0.10508">
        <ele>174.7</ele>
        <time>2016-06-20T08:25:57Z</time>
      </trkpt>
      <trkpt lat="48.18163" lon="-0.10521">
        <ele>173.6</ele>
        <time>2016-06-20T08:26:04Z</time>
      </trkpt>
      <trkpt lat="48.18165" lon="-0.10535">
        <ele>173.9</ele>
        <time>2016-06-20T08:26:12Z</time>
      </trkpt>
      <trkpt lat="48.18166" lon="-0.1055">
        <ele>173.6</ele>
        <time>2016-06-20T08:26:20Z</time>
      </trkpt>
      <trkpt lat="48.18169" lon="-0.10565">
        <ele>173.4</ele>
        <time>2016-06-20T08:26:28Z</time>
      </trkpt>
      <trkpt lat="48.1817" lon="-0.10578">
        <ele>173.3</ele>
        <time>2016-06-20T08:26:36Z</time>
      </trkpt>
      <trkpt lat="48.18172" lon="-0.10592">
        <ele>172.5</ele>
        <time>2016-06-20T08:26:45Z</time>
      </trkpt>
      <trkpt lat="48.18176" lon="-0.10604">
        <ele>172.1</ele>
        <time>2016-06-20T08:26:52Z</time>
      </trkpt>
      <trkpt lat="48.18178" lon="-0.10619">
        <ele>170.9</ele>
        <time>2016-06-20T08:27:00Z</time>
      </trkpt>
      <trkpt lat="48.1818" lon="-0.10632">
        <ele>170.7</ele>
        <time>2016-06-20T08:27:07Z</time>
      </trkpt>
      <trkpt lat="48.18182" lon="-0.10647">
        <ele>169.8</ele>
        <time>2016-06-20T08:27:15Z</time>
      </trkpt>
      <trkpt lat="48.18185" lon="-0.10661">
        <ele>169.3</ele>
        <time>2016-06-20T08:27:23Z</time>
      </trkpt>
      <trkpt lat="48.18187" lon="-0.10675">
        <ele>168.5</ele>
        <time>2016-06-20T08:27:31Z</time>
      </trkpt>
      <trkpt lat="48.18189" lon="-0.10689">
        <ele>167.8</ele>
        <time>2016-06-20T08:27:39Z</time>
      </trkpt>
      <trkpt lat="48.1819" lon="-0.10703">
        <ele>167.2</ele>
        <time>2016-06-20T08:27:47Z</time>
      </trkpt>
      <trkpt lat="48.18193" lon="-0.10717">
        <ele>167.2</ele>
        <time>2016-06-20T08:27:55Z</time>
      </trkpt>
      <trkpt lat="48.18194" lon="-0.10732">
        <ele>166.9</ele>
        <time>2016-06-20T08:28:03Z</time>
      </trkpt>
      <trkpt lat="48.18195" lon="-0.10747">
        <ele>166.2</ele>
        <time>2016-06-20T08:28:11Z</time>
      </trkpt>
      <trkpt lat="48.18197" lon="-0.10762">
        <ele>165</ele>
        <time>2016-06-20T08:28:19Z</time>
      </trkpt>
      <trkpt lat="48.18198" lon="-0.10776">
        <ele>165</ele>
        <time>2016-06-20T08:28:27Z</time>
      </trkpt>
      <trkpt lat="48.182" lon="-0.10789">
        <ele>164.8</ele>
        <time>2016-06-20T08:28:35Z</time>
      </trkpt>
      <trkpt lat="48.18203" lon="-0.10802">
        <ele>164.8</ele>
        <time>2016-06-20T08:28:45Z</time>
      </trkpt>
      <trkpt lat="48.18211" lon="-0.10808">
        <ele>164.5</ele>
        <time>2016-06-20T08:29:32Z</time>
      </trkpt>
      <trkpt lat="48.1822" lon="-0.10814">
        <ele>164.3</ele>
        <time>2016-06-20T08:29:41Z</time>
      </trkpt>
      <trkpt lat="48.18229" lon="-0.1082">
        <ele>163.9</ele>
        <time>2016-06-20T08:29:49Z</time>
      </trkpt>
      <trkpt lat="48.18237" lon="-0.10828">
        <ele>164.5</ele>
        <time>2016-06-20T08:29:58Z</time>
      </trkpt>
      <trkpt lat="48.18243" lon="-0.1084">
        <ele>163.7</ele>
        <time>2016-06-20T08:30:06Z</time>
      </trkpt>
      <trkpt lat="48.18247" lon="-0.10853">
        <ele>163.6</ele>
        <time>2016-06-20T08:30:14Z</time>
      </trkpt>
      <trkpt lat="48.1825" lon="-0.10866">
        <ele>163.9</ele>
        <time>2016-06-20T08:30:23Z</time>
      </trkpt>
      <trkpt lat="48.18252" lon="-0.10881">
        <ele>164.2</ele>
        <time>2016-06-20T08:30:31Z</time>
      </trkpt>
      <trkpt lat="48.18254" lon="-0.10895">
        <ele>163.6</ele>
        <time>2016-06-20T08:30:39Z</time>
      </trkpt>
      <trkpt lat="48.18256" lon="-0.10909">
        <ele>163.4</ele>
        <time>2016-06-20T08:30:47Z</time>
      </trkpt>
      <trkpt lat="48.18257" lon="-0.10923">
        <ele>163.9</ele>
        <time>2016-06-20T08:30:55Z</time>
      </trkpt>
      <trkpt lat="48.18259" lon="-0.10938">
        <ele>163.9</ele>
        <time>2016-06-20T08:31:03Z</time>
      </trkpt>
      <trkpt lat="48.18261" lon="-0.10951">
        <ele>163.9</ele>
        <time>2016-06-20T08:31:10Z</time>
      </trkpt>
      <trkpt lat="48.18262" lon="-0.10965">
        <ele>163.4</ele>
        <time>2016-06-20T08:31:17Z</time>
      </trkpt>
      <trkpt lat="48.18264" lon="-0.10979">
        <ele>162.5</ele>
        <time>2016-06-20T08:31:25Z</time>
      </trkpt>
      <trkpt lat="48.18265" lon="-0.10992">
        <ele>163.4</ele>
        <time>2016-06-20T08:31:32Z</time>
      </trkpt>
      <trkpt lat="48.18264" lon="-0.11007">
        <ele>164</ele>
        <time>2016-06-20T08:31:41Z</time>
      </trkpt>
      <trkpt lat="48.18265" lon="-0.11021">
        <ele>162.7</ele>
        <time>2016-06-20T08:31:50Z</time>
      </trkpt>
      <trkpt lat="48.18266" lon="-0.11035">
        <ele>163</ele>
        <time>2016-06-20T08:31:59Z</time>
      </trkpt>
      <trkpt lat="48.18266" lon="-0.11051">
        <ele>163.8</ele>
        <time>2016-06-20T08:32:07Z</time>
      </trkpt>
      <trkpt lat="48.18267" lon="-0.11065">
        <ele>163.8</ele>
        <time>2016-06-20T08:32:15Z</time>
      </trkpt>
      <trkpt lat="48.18266" lon="-0.11079">
        <ele>164.6</ele>
        <time>2016-06-20T08:32:23Z</time>
      </trkpt>
      <trkpt lat="48.18267" lon="-0.11093">
        <ele>164.9</ele>
        <time>2016-06-20T08:32:31Z</time>
      </trkpt>
      <trkpt lat="48.18269" lon="-0.11106">
        <ele>163.7</ele>
        <time>2016-06-20T08:32:38Z</time>
      </trkpt>
      <trkpt lat="48.1827" lon="-0.11121">
        <ele>165</ele>
        <time>2016-06-20T08:32:47Z</time>
      </trkpt>
      <trkpt lat="48.18271" lon="-0.11135">
        <ele>165.9</ele>
        <time>2016-06-20T08:32:55Z</time>
      </trkpt>
      <trkpt lat="48.1827" lon="-0.11149">
        <ele>165.5</ele>
        <time>2016-06-20T08:33:03Z</time>
      </trkpt>
      <trkpt lat="48.18272" lon="-0.11163">
        <ele>166.3</ele>
        <time>2016-06-20T08:33:11Z</time>
      </trkpt>
      <trkpt lat="48.18272" lon="-0.11177">
        <ele>165.3</ele>
        <time>2016-06-20T08:33:19Z</time>
      </trkpt>
      <trkpt lat="48.18275" lon="-0.11192">
        <ele>166.7</ele>
        <time>2016-06-20T08:33:28Z</time>
      </trkpt>
      <trkpt lat="48.18278" lon="-0.11206">
        <ele>167</ele>
        <time>2016-06-20T08:33:36Z</time>
      </trkpt>
      <trkpt lat="48.18279" lon="-0.11219">
        <ele>167.1</ele>
        <time>2016-06-20T08:33:44Z</time>
      </trkpt>
      <trkpt lat="48.18281" lon="-0.11233">
        <ele>168.1</ele>
        <time>2016-06-20T08:33:51Z</time>
      </trkpt>
      <trkpt lat="48.18284" lon="-0.11246">
        <ele>168.1</ele>
        <time>2016-06-20T08:34:45Z</time>
      </trkpt>
      <trkpt lat="48.18287" lon="-0.1126">
        <ele>166.9</ele>
        <time>2016-06-20T08:34:53Z</time>
      </trkpt>
      <trkpt lat="48.18289" lon="-0.11274">
        <ele>168.3</ele>
        <time>2016-06-20T08:35:01Z</time>
      </trkpt>
      <trkpt lat="48.18291" lon="-0.11289">
        <ele>168.1</ele>
        <time>2016-06-20T08:35:09Z</time>
      </trkpt>
      <trkpt lat="48.18291" lon="-0.11304">
        <ele>168</ele>
        <time>2016-06-20T08:35:17Z</time>
      </trkpt>
      <trkpt lat="48.18294" lon="-0.11319">
        <ele>166.6</ele>
        <time>2016-06-20T08:35:25Z</time>
      </trkpt>
      <trkpt lat="48.18294" lon="-0.11333">
        <ele>165.6</ele>
        <time>2016-06-20T08:35:33Z</time>
      </trkpt>
      <trkpt lat="48.18297" lon="-0.11348">
        <ele>166.1</ele>
        <time>2016-06-20T08:35:40Z</time>
      </trkpt>
      <trkpt lat="48.18298" lon="-0.11361">
        <ele>165.7</ele>
        <time>2016-06-20T08:35:47Z</time>
      </trkpt>
      <trkpt lat="48.18299" lon="-0.11376">
        <ele>165.7</ele>
        <time>2016-06-20T08:35:55Z</time>
      </trkpt>
      <trkpt lat="48.18299" lon="-0.11391">
        <ele>166.4</ele>
        <time>2016-06-20T08:36:03Z</time>
      </trkpt>
      <trkpt lat="48.18301" lon="-0.11405">
        <ele>167.5</ele>
        <time>2016-06-20T08:36:11Z</time>
      </trkpt>
      <trkpt lat="48.18301" lon="-0.11419">
        <ele>167.1</ele>
        <time>2016-06-20T08:36:20Z</time>
      </trkpt>
      <trkpt lat="48.18303" lon="-0.11434">
        <ele>167.7</ele>
        <time>2016-06-20T08:36:28Z</time>
      </trkpt>
      <trkpt lat="48.18305" lon="-0.11449">
        <ele>168.6</ele>
        <time>2016-06-20T08:36:35Z</time>
      </trkpt>
      <trkpt lat="48.18307" lon="-0.11462">
        <ele>167.7</ele>
        <time>2016-06-20T08:36:42Z</time>
      </trkpt>
      <trkpt lat="48.18311" lon="-0.11474">
        <ele>167.5</ele>
        <time>2016-06-20T08:36:49Z</time>
      </trkpt>
      <trkpt lat="48.18313" lon="-0.11489">
        <ele>167.2</ele>
        <time>2016-06-20T08:36:58Z</time>
      </trkpt>
      <trkpt lat="48.1832" lon="-0.11498">
        <ele>167.3</ele>
        <time>2016-06-20T08:37:20Z</time>
      </trkpt>
      <trkpt lat="48.18326" lon="-0.1151">
        <ele>167.4</ele>
        <time>2016-06-20T08:37:29Z</time>
      </trkpt>
      <trkpt lat="48.18323" lon="-0.11522">
        <ele>168.2</ele>
        <time>2016-06-20T08:38:09Z</time>
      </trkpt>
      <trkpt lat="48.18325" lon="-0.11537">
        <ele>166.9</ele>
        <time>2016-06-20T08:38:17Z</time>
      </trkpt>
      <trkpt lat="48.18325" lon="-0.11551">
        <ele>166.3</ele>
        <time>2016-06-20T08:38:26Z</time>
      </trkpt>
      <trkpt lat="48.18325" lon="-0.11566">
        <ele>167.4</ele>
        <time>2016-06-20T08:38:33Z</time>
      </trkpt>
      <trkpt lat="48.18324" lon="-0.1158">
        <ele>166.8</ele>
        <time>2016-06-20T08:38:41Z</time>
      </trkpt>
      <trkpt lat="48.18322" lon="-0.11595">
        <ele>165.8</ele>
        <time>2016-06-20T08:38:49Z</time>
      </trkpt>
      <trkpt lat="48.18322" lon="-0.11609">
        <ele>165.7</ele>
        <time>2016-06-20T08:38:57Z</time>
      </trkpt>
      <trkpt lat="48.18321" lon="-0.11624">
        <ele>165.9</ele>
        <time>2016-06-20T08:39:05Z</time>
      </trkpt>
      <trkpt lat="48.18321" lon="-0.11639">
        <ele>165.8</ele>
        <time>2016-06-20T08:39:13Z</time>
      </trkpt>
      <trkpt lat="48.18321" lon="-0.11653">
        <ele>164.7</ele>
        <time>2016-06-20T08:39:20Z</time>
      </trkpt>
      <trkpt lat="48.1832" lon="-0.11666">
        <ele>165.4</ele>
        <time>2016-06-20T08:39:28Z</time>
      </trkpt>
      <trkpt lat="48.1832" lon="-0.11681">
        <ele>165.2</ele>
        <time>2016-06-20T08:39:36Z</time>
      </trkpt>
      <trkpt lat="48.18319" lon="-0.11696">
        <ele>164.9</ele>
        <time>2016-06-20T08:39:44Z</time>
      </trkpt>
      <trkpt lat="48.18317" lon="-0.11711">
        <ele>164.4</ele>
        <time>2016-06-20T08:39:52Z</time>
      </trkpt>
      <trkpt lat="48.18315" lon="-0.11725">
        <ele>164.9</ele>
        <time>2016-06-20T08:40:00Z</time>
      </trkpt>
      <trkpt lat="48.18315" lon="-0.11739">
        <ele>164.3</ele>
        <time>2016-06-20T08:40:09Z</time>
      </trkpt>
      <trkpt lat="48.18315" lon="-0.11753">
        <ele>164.4</ele>
        <time>2016-06-20T08:40:16Z</time>
      </trkpt>
      <trkpt lat="48.18314" lon="-0.11767">
        <ele>163.6</ele>
        <time>2016-06-20T08:40:24Z</time>
      </trkpt>
      <trkpt lat="48.18313" lon="-0.11782">
        <ele>164.2</ele>
        <time>2016-06-20T08:40:32Z</time>
      </trkpt>
      <trkpt lat="48.18312" lon="-0.11796">
        <ele>164.1</ele>
        <time>2016-06-20T08:40:40Z</time>
      </trkpt>
      <trkpt lat="48.18309" lon="-0.1181">
        <ele>163.6</ele>
        <time>2016-06-20T08:40:52Z</time>
      </trkpt>
      <trkpt lat="48.18305" lon="-0.11823">
        <ele>164.3</ele>
        <time>2016-06-20T08:41:00Z</time>
      </trkpt>
      <trkpt lat="48.18302" lon="-0.11838">
        <ele>163.2</ele>
        <time>2016-06-20T08:41:09Z</time>
      </trkpt>
      <trkpt lat="48.18298" lon="-0.1185">
        <ele>163</ele>
        <time>2016-06-20T08:41:17Z</time>
      </trkpt>
      <trkpt lat="48.18296" lon="-0.11864">
        <ele>162.8</ele>
        <time>2016-06-20T08:41:25Z</time>
      </trkpt>
      <trkpt lat="48.18293" lon="-0.11878">
        <ele>163.7</ele>
        <time>2016-06-20T08:41:34Z</time>
      </trkpt>
      <trkpt lat="48.18291" lon="-0.11892">
        <ele>162.8</ele>
        <time>2016-06-20T08:41:41Z</time>
      </trkpt>
      <trkpt lat="48.18287" lon="-0.11905">
        <ele>161.9</ele>
        <time>2016-06-20T08:41:49Z</time>
      </trkpt>
      <trkpt lat="48.18286" lon="-0.1192">
        <ele>162.2</ele>
        <time>2016-06-20T08:41:57Z</time>
      </trkpt>
      <trkpt lat="48.18285" lon="-0.11935">
        <ele>162.4</ele>
        <time>2016-06-20T08:42:06Z</time>
      </trkpt>
      <trkpt lat="48.18283" lon="-0.11948">
        <ele>162.4</ele>
        <time>2016-06-20T08:42:15Z</time>
      </trkpt>
      <trkpt lat="48.1828" lon="-0.11962">
        <ele>161.4</ele>
        <time>2016-06-20T08:42:23Z</time>
      </trkpt>
      <trkpt lat="48.18278" lon="-0.11976">
        <ele>162.2</ele>
        <time>2016-06-20T08:42:31Z</time>
      </trkpt>
      <trkpt lat="48.18275" lon="-0.11989">
        <ele>161.7</ele>
        <time>2016-06-20T08:42:39Z</time>
      </trkpt>
      <trkpt lat="48.18274" lon="-0.12003">
        <ele>162.4</ele>
        <time>2016-06-20T08:42:47Z</time>
      </trkpt>
      <trkpt lat="48.18272" lon="-0.12017">
        <ele>163</ele>
        <time>2016-06-20T08:42:54Z</time>
      </trkpt>
      <trkpt lat="48.18272" lon="-0.12031">
        <ele>162</ele>
        <time>2016-06-20T08:43:03Z</time>
      </trkpt>
      <trkpt lat="48.1827" lon="-0.12045">
        <ele>162.2</ele>
        <time>2016-06-20T08:43:11Z</time>
      </trkpt>
      <trkpt lat="48.18269" lon="-0.1206">
        <ele>162</ele>
        <time>2016-06-20T08:43:19Z</time>
      </trkpt>
      <trkpt lat="48.18267" lon="-0.12074">
        <ele>161.7</ele>
        <time>2016-06-20T08:43:27Z</time>
      </trkpt>
      <trkpt lat="48.18265" lon="-0.12088">
        <ele>161.9</ele>
        <time>2016-06-20T08:43:35Z</time>
      </trkpt>
      <trkpt lat="48.18265" lon="-0.12102">
        <ele>160.4</ele>
        <time>2016-06-20T08:43:43Z</time>
      </trkpt>
      <trkpt lat="48.18265" lon="-0.12117">
        <ele>160.3</ele>
        <time>2016-06-20T08:43:51Z</time>
      </trkpt>
      <trkpt lat="48.18263" lon="-0.12132">
        <ele>160.2</ele>
        <time>2016-06-20T08:44:00Z</time>
      </trkpt>
      <trkpt lat="48.18263" lon="-0.12147">
        <ele>158.9</ele>
        <time>2016-06-20T08:44:08Z</time>
      </trkpt>
      <trkpt lat="48.18262" lon="-0.12162">
        <ele>158.9</ele>
        <time>2016-06-20T08:44:17Z</time>
      </trkpt>
      <trkpt lat="48.18261" lon="-0.12177">
        <ele>158.4</ele>
        <time>2016-06-20T08:44:26Z</time>
      </trkpt>
      <trkpt lat="48.1826" lon="-0.12192">
        <ele>158</ele>
        <time>2016-06-20T08:44:36Z</time>
      </trkpt>
      <trkpt lat="48.1826" lon="-0.12207">
        <ele>157.9</ele>
        <time>2016-06-20T08:44:44Z</time>
      </trkpt>
      <trkpt lat="48.18263" lon="-0.1222">
        <ele>157.4</ele>
        <time>2016-06-20T08:44:52Z</time>
      </trkpt>
      <trkpt lat="48.18263" lon="-0.12234">
        <ele>157.3</ele>
        <time>2016-06-20T08:44:59Z</time>
      </trkpt>
      <trkpt lat="48.18262" lon="-0.12248">
        <ele>156.1</ele>
        <time>2016-06-20T08:45:08Z</time>
      </trkpt>
      <trkpt lat="48.18259" lon="-0.12262">
        <ele>156.1</ele>
        <time>2016-06-20T08:45:17Z</time>
      </trkpt>
      <trkpt lat="48.18258" lon="-0.12277">
        <ele>156</ele>
        <time>2016-06-20T08:45:24Z</time>
      </trkpt>
      <trkpt lat="48.1826" lon="-0.1229">
        <ele>155.4</ele>
        <time>2016-06-20T08:45:31Z</time>
      </trkpt>
      <trkpt lat="48.18259" lon="-0.12305">
        <ele>155.4</ele>
        <time>2016-06-20T08:45:41Z</time>
      </trkpt>
      <trkpt lat="48.18262" lon="-0.12318">
        <ele>154.9</ele>
        <time>2016-06-20T08:45:51Z</time>
      </trkpt>
      <trkpt lat="48.18262" lon="-0.12332">
        <ele>154.9</ele>
        <time>2016-06-20T08:45:58Z</time>
      </trkpt>
      <trkpt lat="48.18257" lon="-0.12344">
        <ele>154.7</ele>
        <time>2016-06-20T08:46:03Z</time>
      </trkpt>
      <trkpt lat="48.18258" lon="-0.12359">
        <ele>154.7</ele>
        <time>2016-06-20T08:46:11Z</time>
      </trkpt>
      <trkpt lat="48.18261" lon="-0.12373">
        <ele>154</ele>
        <time>2016-06-20T08:46:19Z</time>
      </trkpt>
      <trkpt lat="48.1826" lon="-0.12386">
        <ele>153.3</ele>
        <time>2016-06-20T08:46:27Z</time>
      </trkpt>
      <trkpt lat="48.1826" lon="-0.124">
        <ele>154.2</ele>
        <time>2016-06-20T08:46:34Z</time>
      </trkpt>
      <trkpt lat="48.1826" lon="-0.12414">
        <ele>152.7</ele>
        <time>2016-06-20T08:46:42Z</time>
      </trkpt>
      <trkpt lat="48.18259" lon="-0.12428">
        <ele>152.7</ele>
        <time>2016-06-20T08:46:48Z</time>
      </trkpt>
      <trkpt lat="48.18259" lon="-0.12444">
        <ele>153.4</ele>
        <time>2016-06-20T08:46:57Z</time>
      </trkpt>
      <trkpt lat="48.1826" lon="-0.12458">
        <ele>152.2</ele>
        <time>2016-06-20T08:47:08Z</time>
      </trkpt>
      <trkpt lat="48.18263" lon="-0.12472">
        <ele>153.3</ele>
        <time>2016-06-20T08:47:15Z</time>
      </trkpt>
      <trkpt lat="48.18266" lon="-0.12485">
        <ele>152.6</ele>
        <time>2016-06-20T08:47:21Z</time>
      </trkpt>
      <trkpt lat="48.18267" lon="-0.12499">
        <ele>153</ele>
        <time>2016-06-20T08:47:29Z</time>
      </trkpt>
      <trkpt lat="48.18268" lon="-0.12513">
        <ele>153.4</ele>
        <time>2016-06-20T08:47:48Z</time>
      </trkpt>
      <trkpt lat="48.1827" lon="-0.12527">
        <ele>154</ele>
        <time>2016-06-20T08:47:56Z</time>
      </trkpt>
      <trkpt lat="48.18272" lon="-0.1254">
        <ele>155.2</ele>
        <time>2016-06-20T08:48:04Z</time>
      </trkpt>
      <trkpt lat="48.18272" lon="-0.12554">
        <ele>155.7</ele>
        <time>2016-06-20T08:48:11Z</time>
      </trkpt>
      <trkpt lat="48.18276" lon="-0.12567">
        <ele>154</ele>
        <time>2016-06-20T08:48:17Z</time>
      </trkpt>
      <trkpt lat="48.1828" lon="-0.12579">
        <ele>155.2</ele>
        <time>2016-06-20T08:48:27Z</time>
      </trkpt>
      <trkpt lat="48.18277" lon="-0.12592">
        <ele>155.7</ele>
        <time>2016-06-20T08:48:35Z</time>
      </trkpt>
      <trkpt lat="48.18284" lon="-0.12601">
        <ele>154.9</ele>
        <time>2016-06-20T08:48:43Z</time>
      </trkpt>
      <trkpt lat="48.1829" lon="-0.12612">
        <ele>155.5</ele>
        <time>2016-06-20T08:48:51Z</time>
      </trkpt>
      <trkpt lat="48.18297" lon="-0.12622">
        <ele>157</ele>
        <time>2016-06-20T08:49:00Z</time>
      </trkpt>
      <trkpt lat="48.18304" lon="-0.12634">
        <ele>157.6</ele>
        <time>2016-06-20T08:49:14Z</time>
      </trkpt>
      <trkpt lat="48.18311" lon="-0.12645">
        <ele>158.1</ele>
        <time>2016-06-20T08:49:21Z</time>
      </trkpt>
      <trkpt lat="48.18314" lon="-0.12659">
        <ele>156.8</ele>
        <time>2016-06-20T08:49:31Z</time>
      </trkpt>
      <trkpt lat="48.18321" lon="-0.12668">
        <ele>159.1</ele>
        <time>2016-06-20T08:49:39Z</time>
      </trkpt>
      <trkpt lat="48.18326" lon="-0.12679">
        <ele>159.7</ele>
        <time>2016-06-20T08:49:48Z</time>
      </trkpt>
      <trkpt lat="48.1833" lon="-0.12693">
        <ele>159.9</ele>
        <time>2016-06-20T08:49:57Z</time>
      </trkpt>
      <trkpt lat="48.1834" lon="-0.12699">
        <ele>160.6</ele>
        <time>2016-06-20T08:50:05Z</time>
      </trkpt>
      <trkpt lat="48.18342" lon="-0.12714">
        <ele>161.1</ele>
        <time>2016-06-20T08:50:18Z</time>
      </trkpt>
      <trkpt lat="48.18348" lon="-0.12724">
        <ele>162.4</ele>
        <time>2016-06-20T08:50:26Z</time>
      </trkpt>
      <trkpt lat="48.18356" lon="-0.12731">
        <ele>162.8</ele>
        <time>2016-06-20T08:50:42Z</time>
      </trkpt>
      <trkpt lat="48.1836" lon="-0.12743">
        <ele>162.3</ele>
        <time>2016-06-20T08:50:47Z</time>
      </trkpt>
      <trkpt lat="48.18366" lon="-0.12756">
        <ele>164</ele>
        <time>2016-06-20T08:50:57Z</time>
      </trkpt>
      <trkpt lat="48.18369" lon="-0.12769">
        <ele>166.3</ele>
        <time>2016-06-20T08:53:05Z</time>
      </trkpt>
      <trkpt lat="48.18378" lon="-0.12777">
        <ele>166.1</ele>
        <time>2016-06-20T08:53:15Z</time>
      </trkpt>
      <trkpt lat="48.18385" lon="-0.12785">
        <ele>167</ele>
        <time>2016-06-20T08:53:22Z</time>
      </trkpt>
      <trkpt lat="48.1839" lon="-0.12798">
        <ele>168.6</ele>
        <time>2016-06-20T08:53:33Z</time>
      </trkpt>
      <trkpt lat="48.18399" lon="-0.12803">
        <ele>169.6</ele>
        <time>2016-06-20T08:53:43Z</time>
      </trkpt>
      <trkpt lat="48.18404" lon="-0.12817">
        <ele>169.6</ele>
        <time>2016-06-20T08:53:53Z</time>
      </trkpt>
      <trkpt lat="48.1841" lon="-0.12826">
        <ele>171.9</ele>
        <time>2016-06-20T08:54:08Z</time>
      </trkpt>
      <trkpt lat="48.18415" lon="-0.12838">
        <ele>173.8</ele>
        <time>2016-06-20T08:54:17Z</time>
      </trkpt>
      <trkpt lat="48.18419" lon="-0.12852">
        <ele>174.7</ele>
        <time>2016-06-20T08:54:26Z</time>
      </trkpt>
      <trkpt lat="48.18428" lon="-0.12853">
        <ele>174.4</ele>
        <time>2016-06-20T08:54:31Z</time>
      </trkpt>
      <trkpt lat="48.18433" lon="-0.12864">
        <ele>175.2</ele>
        <time>2016-06-20T08:54:43Z</time>
      </trkpt>
      <trkpt lat="48.18441" lon="-0.12873">
        <ele>177.9</ele>
        <time>2016-06-20T08:54:51Z</time>
      </trkpt>
      <trkpt lat="48.18451" lon="-0.1288">
        <ele>178.4</ele>
        <time>2016-06-20T08:54:58Z</time>
      </trkpt>
      <trkpt lat="48.18459" lon="-0.12887">
        <ele>179.1</ele>
        <time>2016-06-20T08:55:05Z</time>
      </trkpt>
      <trkpt lat="48.18468" lon="-0.12887">
        <ele>179.3</ele>
        <time>2016-06-20T08:55:12Z</time>
      </trkpt>
      <trkpt lat="48.18478" lon="-0.12885">
        <ele>180.2</ele>
        <time>2016-06-20T08:55:21Z</time>
      </trkpt>
      <trkpt lat="48.18487" lon="-0.1288">
        <ele>180.1</ele>
        <time>2016-06-20T08:55:31Z</time>
      </trkpt>
      <trkpt lat="48.18493" lon="-0.12869">
        <ele>181.1</ele>
        <time>2016-06-20T08:55:38Z</time>
      </trkpt>
      <trkpt lat="48.18493" lon="-0.12883">
        <ele>181.1</ele>
        <time>2016-06-20T09:20:05Z</time>
      </trkpt>
      <trkpt lat="48.18502" lon="-0.12888">
        <ele>181.8</ele>
        <time>2016-06-20T09:20:40Z</time>
      </trkpt>
      <trkpt lat="48.18511" lon="-0.12893">
        <ele>183.5</ele>
        <time>2016-06-20T09:20:48Z</time>
      </trkpt>
      <trkpt lat="48.18519" lon="-0.12898">
        <ele>183.8</ele>
        <time>2016-06-20T09:20:57Z</time>
      </trkpt>
      <trkpt lat="48.18526" lon="-0.12907">
        <ele>185.3</ele>
        <time>2016-06-20T09:21:09Z</time>
      </trkpt>
      <trkpt lat="48.18523" lon="-0.1292">
        <ele>186.9</ele>
        <time>2016-06-20T09:21:30Z</time>
      </trkpt>
      <trkpt lat="48.18521" lon="-0.12934">
        <ele>189</ele>
        <time>2016-06-20T09:21:39Z</time>
      </trkpt>
      <trkpt lat="48.18521" lon="-0.12948">
        <ele>189.7</ele>
        <time>2016-06-20T09:21:50Z</time>
      </trkpt>
      <trkpt lat="48.18528" lon="-0.12957">
        <ele>191.9</ele>
        <time>2016-06-20T09:22:16Z</time>
      </trkpt>
      <trkpt lat="48.18535" lon="-0.12967">
        <ele>194.2</ele>
        <time>2016-06-20T09:22:28Z</time>
      </trkpt>
      <trkpt lat="48.18534" lon="-0.12981">
        <ele>195.4</ele>
        <time>2016-06-20T09:22:36Z</time>
      </trkpt>
      <trkpt lat="48.18525" lon="-0.12984">
        <ele>196.1</ele>
        <time>2016-06-20T09:22:43Z</time>
      </trkpt>
      <trkpt lat="48.18525" lon="-0.12999">
        <ele>196.5</ele>
        <time>2016-06-20T09:22:54Z</time>
      </trkpt>
      <trkpt lat="48.18521" lon="-0.13013">
        <ele>197.3</ele>
        <time>2016-06-20T09:23:05Z</time>
      </trkpt>
      <trkpt lat="48.18517" lon="-0.13025">
        <ele>198</ele>
        <time>2016-06-20T09:23:15Z</time>
      </trkpt>
      <trkpt lat="48.18511" lon="-0.13036">
        <ele>198.7</ele>
        <time>2016-06-20T09:23:24Z</time>
      </trkpt>
      <trkpt lat="48.18505" lon="-0.13048">
        <ele>199.1</ele>
        <time>2016-06-20T09:23:34Z</time>
      </trkpt>
      <trkpt lat="48.18502" lon="-0.13061">
        <ele>200.3</ele>
        <time>2016-06-20T09:23:43Z</time>
      </trkpt>
      <trkpt lat="48.18505" lon="-0.13076">
        <ele>202</ele>
        <time>2016-06-20T09:23:59Z</time>
      </trkpt>
      <trkpt lat="48.18507" lon="-0.1309">
        <ele>203.2</ele>
        <time>2016-06-20T09:24:10Z</time>
      </trkpt>
      <trkpt lat="48.18514" lon="-0.13098">
        <ele>206.7</ele>
        <time>2016-06-20T09:24:24Z</time>
      </trkpt>
      <trkpt lat="48.18522" lon="-0.13108">
        <ele>209.8</ele>
        <time>2016-06-20T09:24:50Z</time>
      </trkpt>
      <trkpt lat="48.18531" lon="-0.13114">
        <ele>211.3</ele>
        <time>2016-06-20T09:25:00Z</time>
      </trkpt>
      <trkpt lat="48.1854" lon="-0.13115">
        <ele>213</ele>
        <time>2016-06-20T09:25:09Z</time>
      </trkpt>
      <trkpt lat="48.18549" lon="-0.13117">
        <ele>215.1</ele>
        <time>2016-06-20T09:25:19Z</time>
      </trkpt>
      <trkpt lat="48.18559" lon="-0.13118">
        <ele>216.3</ele>
        <time>2016-06-20T09:25:31Z</time>
      </trkpt>
      <trkpt lat="48.18567" lon="-0.13122">
        <ele>218.4</ele>
        <time>2016-06-20T09:26:22Z</time>
      </trkpt>
      <trkpt lat="48.18577" lon="-0.13126">
        <ele>221.2</ele>
        <time>2016-06-20T09:26:34Z</time>
      </trkpt>
      <trkpt lat="48.18584" lon="-0.13135">
        <ele>221.3</ele>
        <time>2016-06-20T09:26:45Z</time>
      </trkpt>
      <trkpt lat="48.18588" lon="-0.13147">
        <ele>224.3</ele>
        <time>2016-06-20T09:27:10Z</time>
      </trkpt>
      <trkpt lat="48.18587" lon="-0.1316">
        <ele>224.2</ele>
        <time>2016-06-20T09:27:18Z</time>
      </trkpt>
      <trkpt lat="48.18583" lon="-0.13173">
        <ele>225.1</ele>
        <time>2016-06-20T09:27:33Z</time>
      </trkpt>
      <trkpt lat="48.18576" lon="-0.13182">
        <ele>225</ele>
        <time>2016-06-20T09:27:54Z</time>
      </trkpt>
      <trkpt lat="48.18567" lon="-0.13184">
        <ele>223.3</ele>
        <time>2016-06-20T09:28:01Z</time>
      </trkpt>
      <trkpt lat="48.18576" lon="-0.13185">
        <ele>222.8</ele>
        <time>2016-06-20T09:28:26Z</time>
      </trkpt>
      <trkpt lat="48.18585" lon="-0.13178">
        <ele>225.2</ele>
        <time>2016-06-20T09:28:42Z</time>
      </trkpt>
      <trkpt lat="48.18576" lon="-0.13185">
        <ele>224.7</ele>
        <time>2016-06-20T09:29:49Z</time>
      </trkpt>
      <trkpt lat="48.18567" lon="-0.13185">
        <ele>222.9</ele>
        <time>2016-06-20T09:29:58Z</time>
      </trkpt>
      <trkpt lat="48.18557" lon="-0.13182">
        <ele>221.6</ele>
        <time>2016-06-20T09:30:06Z</time>
      </trkpt>
      <trkpt lat="48.18549" lon="-0.13175">
        <ele>218.9</ele>
        <time>2016-06-20T09:30:39Z</time>
      </trkpt>
      <trkpt lat="48.1854" lon="-0.13174">
        <ele>217.4</ele>
        <time>2016-06-20T09:30:50Z</time>
      </trkpt>
      <trkpt lat="48.18531" lon="-0.13171">
        <ele>213.6</ele>
        <time>2016-06-20T09:31:11Z</time>
      </trkpt>
      <trkpt lat="48.18522" lon="-0.13167">
        <ele>212.1</ele>
        <time>2016-06-20T09:31:20Z</time>
      </trkpt>
      <trkpt lat="48.18513" lon="-0.13159">
        <ele>208.3</ele>
        <time>2016-06-20T09:31:48Z</time>
      </trkpt>
      <trkpt lat="48.18504" lon="-0.13153">
        <ele>205.3</ele>
        <time>2016-06-20T09:32:08Z</time>
      </trkpt>
      <trkpt lat="48.18494" lon="-0.13153">
        <ele>203.5</ele>
        <time>2016-06-20T09:32:18Z</time>
      </trkpt>
      <trkpt lat="48.18485" lon="-0.13148">
        <ele>202.4</ele>
        <time>2016-06-20T09:32:24Z</time>
      </trkpt>
      <trkpt lat="48.18494" lon="-0.13142">
        <ele>202.2</ele>
        <time>2016-06-20T09:32:27Z</time>
      </trkpt>
      <trkpt lat="48.18484" lon="-0.13142">
        <ele>201</ele>
        <time>2016-06-20T09:32:38Z</time>
      </trkpt>
      <trkpt lat="48.18482" lon="-0.13155">
        <ele>199.5</ele>
        <time>2016-06-20T09:33:19Z</time>
      </trkpt>
      <trkpt lat="48.18481" lon="-0.13168">
        <ele>200.9</ele>
        <time>2016-06-20T09:33:32Z</time>
      </trkpt>
      <trkpt lat="48.18482" lon="-0.13182">
        <ele>201.9</ele>
        <time>2016-06-20T09:33:43Z</time>
      </trkpt>
      <trkpt lat="48.18485" lon="-0.13195">
        <ele>203</ele>
        <time>2016-06-20T09:33:52Z</time>
      </trkpt>
      <trkpt lat="48.18487" lon="-0.13208">
        <ele>205.3</ele>
        <time>2016-06-20T09:34:10Z</time>
      </trkpt>
      <trkpt lat="48.1849" lon="-0.13222">
        <ele>206.1</ele>
        <time>2016-06-20T09:34:20Z</time>
      </trkpt>
      <trkpt lat="48.18488" lon="-0.13236">
        <ele>206.3</ele>
        <time>2016-06-20T09:34:31Z</time>
      </trkpt>
      <trkpt lat="48.1849" lon="-0.1325">
        <ele>206.8</ele>
        <time>2016-06-20T09:34:42Z</time>
      </trkpt>
      <trkpt lat="48.18492" lon="-0.13264">
        <ele>207.9</ele>
        <time>2016-06-20T09:34:55Z</time>
      </trkpt>
      <trkpt lat="48.18497" lon="-0.13277">
        <ele>208.9</ele>
        <time>2016-06-20T09:35:05Z</time>
      </trkpt>
      <trkpt lat="48.18502" lon="-0.13289">
        <ele>210.2</ele>
        <time>2016-06-20T09:35:15Z</time>
      </trkpt>
      <trkpt lat="48.18504" lon="-0.13302">
        <ele>210.8</ele>
        <time>2016-06-20T09:35:25Z</time>
      </trkpt>
      <trkpt lat="48.18507" lon="-0.13316">
        <ele>211.2</ele>
        <time>2016-06-20T09:35:38Z</time>
      </trkpt>
      <trkpt lat="48.18507" lon="-0.1333">
        <ele>211.9</ele>
        <time>2016-06-20T09:35:47Z</time>
      </trkpt>
      <trkpt lat="48.1851" lon="-0.13343">
        <ele>213.2</ele>
        <time>2016-06-20T09:35:56Z</time>
      </trkpt>
      <trkpt lat="48.18511" lon="-0.13358">
        <ele>214.2</ele>
        <time>2016-06-20T09:36:07Z</time>
      </trkpt>
      <trkpt lat="48.18511" lon="-0.13372">
        <ele>215</ele>
        <time>2016-06-20T09:36:20Z</time>
      </trkpt>
      <trkpt lat="48.18516" lon="-0.13384">
        <ele>215.7</ele>
        <time>2016-06-20T09:36:28Z</time>
      </trkpt>
      <trkpt lat="48.18518" lon="-0.13397">
        <ele>216.6</ele>
        <time>2016-06-20T09:36:38Z</time>
      </trkpt>
      <trkpt lat="48.18523" lon="-0.13409">
        <ele>217.6</ele>
        <time>2016-06-20T09:36:49Z</time>
      </trkpt>
      <trkpt lat="48.18527" lon="-0.13422">
        <ele>219.3</ele>
        <time>2016-06-20T09:37:01Z</time>
      </trkpt>
      <trkpt lat="48.18536" lon="-0.13433">
        <ele>221.2</ele>
        <time>2016-06-20T09:37:13Z</time>
      </trkpt>
      <trkpt lat="48.18541" lon="-0.13444">
        <ele>222.2</ele>
        <time>2016-06-20T09:37:26Z</time>
      </trkpt>
      <trkpt lat="48.18547" lon="-0.13455">
        <ele>223.5</ele>
        <time>2016-06-20T09:37:37Z</time>
      </trkpt>
      <trkpt lat="48.18548" lon="-0.1347">
        <ele>224.5</ele>
        <time>2016-06-20T09:38:15Z</time>
      </trkpt>
      <trkpt lat="48.18555" lon="-0.13482">
        <ele>224.3</ele>
        <time>2016-06-20T09:38:20Z</time>
      </trkpt>
      <trkpt lat="48.18561" lon="-0.13493">
        <ele>224.6</ele>
        <time>2016-06-20T09:38:26Z</time>
      </trkpt>
      <trkpt lat="48.18568" lon="-0.13503">
        <ele>225.3</ele>
        <time>2016-06-20T09:38:36Z</time>
      </trkpt>
      <trkpt lat="48.18577" lon="-0.13504">
        <ele>226.9</ele>
        <time>2016-06-20T09:38:49Z</time>
      </trkpt>
      <trkpt lat="48.18587" lon="-0.13506">
        <ele>228.6</ele>
        <time>2016-06-20T09:39:08Z</time>
      </trkpt>
      <trkpt lat="48.18595" lon="-0.13513">
        <ele>230</ele>
        <time>2016-06-20T09:39:19Z</time>
      </trkpt>
      <trkpt lat="48.18596" lon="-0.13498">
        <ele>230</ele>
        <time>2016-06-20T09:39:21Z</time>
      </trkpt>
      <trkpt lat="48.18603" lon="-0.13506">
        <ele>231.5</ele>
        <time>2016-06-20T09:39:40Z</time>
      </trkpt>
      <trkpt lat="48.18611" lon="-0.13515">
        <ele>233.3</ele>
        <time>2016-06-20T09:39:53Z</time>
      </trkpt>
      <trkpt lat="48.18618" lon="-0.13523">
        <ele>234.1</ele>
        <time>2016-06-20T09:40:03Z</time>
      </trkpt>
      <trkpt lat="48.18626" lon="-0.13531">
        <ele>234.4</ele>
        <time>2016-06-20T09:40:16Z</time>
      </trkpt>
      <trkpt lat="48.18632" lon="-0.1354">
        <ele>234.5</ele>
        <time>2016-06-20T09:40:25Z</time>
      </trkpt>
      <trkpt lat="48.1864" lon="-0.13547">
        <ele>235</ele>
        <time>2016-06-20T09:40:33Z</time>
      </trkpt>
      <trkpt lat="48.18648" lon="-0.13554">
        <ele>236.5</ele>
        <time>2016-06-20T09:40:44Z</time>
      </trkpt>
      <trkpt lat="48.18656" lon="-0.13564">
        <ele>236.4</ele>
        <time>2016-06-20T09:40:53Z</time>
      </trkpt>
      <trkpt lat="48.18664" lon="-0.13568">
        <ele>236.7</ele>
        <time>2016-06-20T09:41:01Z</time>
      </trkpt>
      <trkpt lat="48.18673" lon="-0.13576">
        <ele>236.7</ele>
        <time>2016-06-20T09:41:11Z</time>
      </trkpt>
      <trkpt lat="48.18681" lon="-0.13584">
        <ele>237.2</ele>
        <time>2016-06-20T09:41:19Z</time>
      </trkpt>
      <trkpt lat="48.18689" lon="-0.13593">
        <ele>226.2</ele>
        <time>2016-06-20T09:41:27Z</time>
      </trkpt>
      <trkpt lat="48.18692" lon="-0.13606">
        <ele>226.4</ele>
        <time>2016-06-20T09:41:35Z</time>
      </trkpt>
      <trkpt lat="48.18697" lon="-0.13619">
        <ele>240.5</ele>
        <time>2016-06-20T09:41:55Z</time>
      </trkpt>
      <trkpt lat="48.187" lon="-0.13631">
        <ele>242.2</ele>
        <time>2016-06-20T09:42:05Z</time>
      </trkpt>
      <trkpt lat="48.18706" lon="-0.13642">
        <ele>234.8</ele>
        <time>2016-06-20T09:42:13Z</time>
      </trkpt>
      <trkpt lat="48.18711" lon="-0.13655">
        <ele>238.1</ele>
        <time>2016-06-20T09:42:23Z</time>
      </trkpt>
      <trkpt lat="48.18714" lon="-0.13668">
        <ele>239.3</ele>
        <time>2016-06-20T09:42:33Z</time>
      </trkpt>
      <trkpt lat="48.18718" lon="-0.13682">
        <ele>239</ele>
        <time>2016-06-20T09:42:44Z</time>
      </trkpt>
      <trkpt lat="48.18723" lon="-0.13694">
        <ele>239.5</ele>
        <time>2016-06-20T09:42:52Z</time>
      </trkpt>
      <trkpt lat="48.18728" lon="-0.13706">
        <ele>239.8</ele>
        <time>2016-06-20T09:43:02Z</time>
      </trkpt>
      <trkpt lat="48.18733" lon="-0.13718">
        <ele>240.1</ele>
        <time>2016-06-20T09:43:10Z</time>
      </trkpt>
      <trkpt lat="48.18735" lon="-0.13732">
        <ele>240.6</ele>
        <time>2016-06-20T09:43:19Z</time>
      </trkpt>
      <trkpt lat="48.1874" lon="-0.13743">
        <ele>241.1</ele>
        <time>2016-06-20T09:43:29Z</time>
      </trkpt>
      <trkpt lat="48.18744" lon="-0.13756">
        <ele>241.4</ele>
        <time>2016-06-20T09:43:37Z</time>
      </trkpt>
      <trkpt lat="48.18748" lon="-0.13768">
        <ele>242.4</ele>
        <time>2016-06-20T09:43:47Z</time>
      </trkpt>
      <trkpt lat="48.18753" lon="-0.1378">
        <ele>243.3</ele>
        <time>2016-06-20T09:43:57Z</time>
      </trkpt>
      <trkpt lat="48.18758" lon="-0.13791">
        <ele>244.3</ele>
        <time>2016-06-20T09:44:08Z</time>
      </trkpt>
      <trkpt lat="48.18762" lon="-0.13805">
        <ele>244.6</ele>
        <time>2016-06-20T09:44:13Z</time>
      </trkpt>
      <trkpt lat="48.18769" lon="-0.13813">
        <ele>245.7</ele>
        <time>2016-06-20T09:44:25Z</time>
      </trkpt>
      <trkpt lat="48.18776" lon="-0.13824">
        <ele>246.5</ele>
        <time>2016-06-20T09:44:36Z</time>
      </trkpt>
      <trkpt lat="48.18781" lon="-0.1384">
        <ele>247</ele>
        <time>2016-06-20T09:44:46Z</time>
      </trkpt>
      <trkpt lat="48.18788" lon="-0.1385">
        <ele>248.1</ele>
        <time>2016-06-20T09:44:56Z</time>
      </trkpt>
      <trkpt lat="48.18797" lon="-0.13856">
        <ele>248.8</ele>
        <time>2016-06-20T09:45:09Z</time>
      </trkpt>
      <trkpt lat="48.18805" lon="-0.13863">
        <ele>249.3</ele>
        <time>2016-06-20T09:45:16Z</time>
      </trkpt>
      <trkpt lat="48.18811" lon="-0.13873">
        <ele>249.4</ele>
        <time>2016-06-20T09:45:25Z</time>
      </trkpt>
      <trkpt lat="48.18818" lon="-0.13883">
        <ele>249.6</ele>
        <time>2016-06-20T09:45:34Z</time>
      </trkpt>
      <trkpt lat="48.18825" lon="-0.13892">
        <ele>248.9</ele>
        <time>2016-06-20T09:45:42Z</time>
      </trkpt>
      <trkpt lat="48.18832" lon="-0.13902">
        <ele>249</ele>
        <time>2016-06-20T09:45:51Z</time>
      </trkpt>
      <trkpt lat="48.18839" lon="-0.13911">
        <ele>249.5</ele>
        <time>2016-06-20T09:46:00Z</time>
      </trkpt>
      <trkpt lat="48.18847" lon="-0.13918">
        <ele>248.8</ele>
        <time>2016-06-20T09:46:47Z</time>
      </trkpt>
      <trkpt lat="48.18854" lon="-0.13927">
        <ele>248.2</ele>
        <time>2016-06-20T09:46:54Z</time>
      </trkpt>
      <trkpt lat="48.1886" lon="-0.13937">
        <ele>247.2</ele>
        <time>2016-06-20T09:47:02Z</time>
      </trkpt>
      <trkpt lat="48.18868" lon="-0.13945">
        <ele>248.2</ele>
        <time>2016-06-20T09:47:09Z</time>
      </trkpt>
      <trkpt lat="48.18876" lon="-0.13954">
        <ele>246.6</ele>
        <time>2016-06-20T09:47:17Z</time>
      </trkpt>
      <trkpt lat="48.18884" lon="-0.13963">
        <ele>246.5</ele>
        <time>2016-06-20T09:47:24Z</time>
      </trkpt>
      <trkpt lat="48.1889" lon="-0.13973">
        <ele>244.6</ele>
        <time>2016-06-20T09:47:31Z</time>
      </trkpt>
      <trkpt lat="48.18899" lon="-0.13981">
        <ele>244.2</ele>
        <time>2016-06-20T09:47:40Z</time>
      </trkpt>
      <trkpt lat="48.18905" lon="-0.13991">
        <ele>244.5</ele>
        <time>2016-06-20T09:47:49Z</time>
      </trkpt>
      <trkpt lat="48.18913" lon="-0.13987">
        <ele>243.4</ele>
        <time>2016-06-20T09:49:35Z</time>
      </trkpt>
      <trkpt lat="48.18918" lon="-0.13974">
        <ele>244.6</ele>
        <time>2016-06-20T09:49:53Z</time>
      </trkpt>
      <trkpt lat="48.1892" lon="-0.1396">
        <ele>243.3</ele>
        <time>2016-06-20T09:50:00Z</time>
      </trkpt>
      <trkpt lat="48.18925" lon="-0.13948">
        <ele>244</ele>
        <time>2016-06-20T09:50:07Z</time>
      </trkpt>
      <trkpt lat="48.18928" lon="-0.13934">
        <ele>244.6</ele>
        <time>2016-06-20T09:50:14Z</time>
      </trkpt>
      <trkpt lat="48.18935" lon="-0.13924">
        <ele>244.5</ele>
        <time>2016-06-20T09:50:21Z</time>
      </trkpt>
      <trkpt lat="48.1894" lon="-0.13912">
        <ele>244.5</ele>
        <time>2016-06-20T09:50:29Z</time>
      </trkpt>
      <trkpt lat="48.18948" lon="-0.13904">
        <ele>244.3</ele>
        <time>2016-06-20T09:50:35Z</time>
      </trkpt>
      <trkpt lat="48.18955" lon="-0.13894">
        <ele>244.8</ele>
        <time>2016-06-20T09:50:42Z</time>
      </trkpt>
      <trkpt lat="48.18963" lon="-0.13887">
        <ele>245.1</ele>
        <time>2016-06-20T09:50:50Z</time>
      </trkpt>
      <trkpt lat="48.18971" lon="-0.1388">
        <ele>245.5</ele>
        <time>2016-06-20T09:50:59Z</time>
      </trkpt>
      <trkpt lat="48.18982" lon="-0.13872">
        <ele>245.7</ele>
        <time>2016-06-20T09:51:10Z</time>
      </trkpt>
      <trkpt lat="48.18991" lon="-0.13863">
        <ele>245.1</ele>
        <time>2016-06-20T09:51:21Z</time>
      </trkpt>
      <trkpt lat="48.18999" lon="-0.13856">
        <ele>245.7</ele>
        <time>2016-06-20T09:51:30Z</time>
      </trkpt>
      <trkpt lat="48.19008" lon="-0.1385">
        <ele>246.1</ele>
        <time>2016-06-20T09:51:38Z</time>
      </trkpt>
      <trkpt lat="48.19017" lon="-0.13846">
        <ele>246.4</ele>
        <time>2016-06-20T09:51:47Z</time>
      </trkpt>
      <trkpt lat="48.19026" lon="-0.13839">
        <ele>247.2</ele>
        <time>2016-06-20T09:51:59Z</time>
      </trkpt>
      <trkpt lat="48.19034" lon="-0.13833">
        <ele>247.9</ele>
        <time>2016-06-20T09:52:05Z</time>
      </trkpt>
      <trkpt lat="48.19042" lon="-0.13828">
        <ele>246.7</ele>
        <time>2016-06-20T09:52:14Z</time>
      </trkpt>
      <trkpt lat="48.19053" lon="-0.13824">
        <ele>247.8</ele>
        <time>2016-06-20T09:52:20Z</time>
      </trkpt>
      <trkpt lat="48.19062" lon="-0.13822">
        <ele>247.2</ele>
        <time>2016-06-20T09:52:28Z</time>
      </trkpt>
      <trkpt lat="48.19072" lon="-0.13817">
        <ele>247.5</ele>
        <time>2016-06-20T09:52:37Z</time>
      </trkpt>
      <trkpt lat="48.1908" lon="-0.1381">
        <ele>247.5</ele>
        <time>2016-06-20T09:52:45Z</time>
      </trkpt>
      <trkpt lat="48.19088" lon="-0.13803">
        <ele>248.1</ele>
        <time>2016-06-20T09:52:53Z</time>
      </trkpt>
      <trkpt lat="48.19096" lon="-0.13796">
        <ele>248.3</ele>
        <time>2016-06-20T09:53:01Z</time>
      </trkpt>
      <trkpt lat="48.19104" lon="-0.13791">
        <ele>248.5</ele>
        <time>2016-06-20T09:53:08Z</time>
      </trkpt>
      <trkpt lat="48.19112" lon="-0.13782">
        <ele>248.3</ele>
        <time>2016-06-20T09:53:16Z</time>
      </trkpt>
      <trkpt lat="48.1912" lon="-0.13774">
        <ele>249.4</ele>
        <time>2016-06-20T09:53:23Z</time>
      </trkpt>
      <trkpt lat="48.19128" lon="-0.13766">
        <ele>250.1</ele>
        <time>2016-06-20T09:53:32Z</time>
      </trkpt>
      <trkpt lat="48.19136" lon="-0.13757">
        <ele>249.7</ele>
        <time>2016-06-20T09:53:42Z</time>
      </trkpt>
      <trkpt lat="48.19144" lon="-0.1375">
        <ele>250.4</ele>
        <time>2016-06-20T09:53:51Z</time>
      </trkpt>
      <trkpt lat="48.19154" lon="-0.13744">
        <ele>249.4</ele>
        <time>2016-06-20T09:54:00Z</time>
      </trkpt>
      <trkpt lat="48.19163" lon="-0.13741">
        <ele>249.3</ele>
        <time>2016-06-20T09:54:09Z</time>
      </trkpt>
      <trkpt lat="48.19174" lon="-0.13737">
        <ele>248.7</ele>
        <time>2016-06-20T09:54:18Z</time>
      </trkpt>
      <trkpt lat="48.19182" lon="-0.13733">
        <ele>249.4</ele>
        <time>2016-06-20T09:54:28Z</time>
      </trkpt>
      <trkpt lat="48.19192" lon="-0.1373">
        <ele>248.6</ele>
        <time>2016-06-20T09:54:37Z</time>
      </trkpt>
      <trkpt lat="48.19201" lon="-0.13726">
        <ele>249.4</ele>
        <time>2016-06-20T09:54:45Z</time>
      </trkpt>
      <trkpt lat="48.1921" lon="-0.13723">
        <ele>249.1</ele>
        <time>2016-06-20T09:54:57Z</time>
      </trkpt>
      <trkpt lat="48.19219" lon="-0.13721">
        <ele>248.6</ele>
        <time>2016-06-20T09:55:02Z</time>
      </trkpt>
      <trkpt lat="48.19228" lon="-0.13713">
        <ele>248.8</ele>
        <time>2016-06-20T09:55:09Z</time>
      </trkpt>
      <trkpt lat="48.19236" lon="-0.13707">
        <ele>248.9</ele>
        <time>2016-06-20T09:55:17Z</time>
      </trkpt>
      <trkpt lat="48.19244" lon="-0.137">
        <ele>248.9</ele>
        <time>2016-06-20T09:55:25Z</time>
      </trkpt>
      <trkpt lat="48.19252" lon="-0.1369">
        <ele>248.4</ele>
        <time>2016-06-20T09:55:37Z</time>
      </trkpt>
      <trkpt lat="48.19259" lon="-0.13681">
        <ele>248.1</ele>
        <time>2016-06-20T09:55:46Z</time>
      </trkpt>
      <trkpt lat="48.19267" lon="-0.13672">
        <ele>247.7</ele>
        <time>2016-06-20T09:56:15Z</time>
      </trkpt>
      <trkpt lat="48.19275" lon="-0.13663">
        <ele>248.6</ele>
        <time>2016-06-20T09:56:25Z</time>
      </trkpt>
      <trkpt lat="48.19281" lon="-0.13651">
        <ele>248.5</ele>
        <time>2016-06-20T09:56:34Z</time>
      </trkpt>
      <trkpt lat="48.19286" lon="-0.1364">
        <ele>248.2</ele>
        <time>2016-06-20T09:56:41Z</time>
      </trkpt>
      <trkpt lat="48.19292" lon="-0.13629">
        <ele>248.1</ele>
        <time>2016-06-20T09:56:48Z</time>
      </trkpt>
      <trkpt lat="48.19298" lon="-0.13618">
        <ele>248.4</ele>
        <time>2016-06-20T09:56:56Z</time>
      </trkpt>
      <trkpt lat="48.19304" lon="-0.13607">
        <ele>247.5</ele>
        <time>2016-06-20T09:57:04Z</time>
      </trkpt>
      <trkpt lat="48.1931" lon="-0.13595">
        <ele>247.2</ele>
        <time>2016-06-20T09:57:14Z</time>
      </trkpt>
      <trkpt lat="48.19317" lon="-0.13584">
        <ele>247.4</ele>
        <time>2016-06-20T09:57:22Z</time>
      </trkpt>
      <trkpt lat="48.19322" lon="-0.13572">
        <ele>247</ele>
        <time>2016-06-20T09:57:30Z</time>
      </trkpt>
      <trkpt lat="48.1933" lon="-0.13565">
        <ele>246.9</ele>
        <time>2016-06-20T09:57:38Z</time>
      </trkpt>
      <trkpt lat="48.19338" lon="-0.13556">
        <ele>246.6</ele>
        <time>2016-06-20T09:57:47Z</time>
      </trkpt>
      <trkpt lat="48.19347" lon="-0.13558">
        <ele>247.4</ele>
        <time>2016-06-20T09:58:53Z</time>
      </trkpt>
      <trkpt lat="48.19351" lon="-0.13573">
        <ele>246.5</ele>
        <time>2016-06-20T09:59:01Z</time>
      </trkpt>
      <trkpt lat="48.19355" lon="-0.13586">
        <ele>247.4</ele>
        <time>2016-06-20T09:59:10Z</time>
      </trkpt>
      <trkpt lat="48.1936" lon="-0.13598">
        <ele>247.4</ele>
        <time>2016-06-20T09:59:18Z</time>
      </trkpt>
      <trkpt lat="48.19364" lon="-0.13613">
        <ele>248.2</ele>
        <time>2016-06-20T09:59:26Z</time>
      </trkpt>
      <trkpt lat="48.19367" lon="-0.13626">
        <ele>247.6</ele>
        <time>2016-06-20T09:59:35Z</time>
      </trkpt>
      <trkpt lat="48.19369" lon="-0.1364">
        <ele>248.2</ele>
        <time>2016-06-20T09:59:44Z</time>
      </trkpt>
      <trkpt lat="48.19375" lon="-0.13652">
        <ele>249</ele>
        <time>2016-06-20T09:59:51Z</time>
      </trkpt>
      <trkpt lat="48.1938" lon="-0.13662">
        <ele>248.2</ele>
        <time>2016-06-20T10:00:00Z</time>
      </trkpt>
      <trkpt lat="48.19385" lon="-0.13675">
        <ele>248.6</ele>
        <time>2016-06-20T10:00:06Z</time>
      </trkpt>
      <trkpt lat="48.19392" lon="-0.13685">
        <ele>248.9</ele>
        <time>2016-06-20T10:00:17Z</time>
      </trkpt>
      <trkpt lat="48.19395" lon="-0.13698">
        <ele>249.5</ele>
        <time>2016-06-20T10:00:26Z</time>
      </trkpt>
      <trkpt lat="48.19401" lon="-0.13708">
        <ele>249.3</ele>
        <time>2016-06-20T10:00:33Z</time>
      </trkpt>
      <trkpt lat="48.19406" lon="-0.13721">
        <ele>249.6</ele>
        <time>2016-06-20T10:00:42Z</time>
      </trkpt>
      <trkpt lat="48.19412" lon="-0.13732">
        <ele>250.1</ele>
        <time>2016-06-20T10:00:51Z</time>
      </trkpt>
      <trkpt lat="48.19416" lon="-0.13745">
        <ele>249.9</ele>
        <time>2016-06-20T10:01:00Z</time>
      </trkpt>
      <trkpt lat="48.19422" lon="-0.13755">
        <ele>251.3</ele>
        <time>2016-06-20T10:01:40Z</time>
      </trkpt>
      <trkpt lat="48.19428" lon="-0.13766">
        <ele>251.3</ele>
        <time>2016-06-20T10:01:48Z</time>
      </trkpt>
      <trkpt lat="48.19434" lon="-0.13777">
        <ele>252.5</ele>
        <time>2016-06-20T10:01:56Z</time>
      </trkpt>
      <trkpt lat="48.1944" lon="-0.13789">
        <ele>253.5</ele>
        <time>2016-06-20T10:02:04Z</time>
      </trkpt>
      <trkpt lat="48.19446" lon="-0.138">
        <ele>254.3</ele>
        <time>2016-06-20T10:02:13Z</time>
      </trkpt>
      <trkpt lat="48.19452" lon="-0.1381">
        <ele>254.1</ele>
        <time>2016-06-20T10:02:22Z</time>
      </trkpt>
      <trkpt lat="48.1946" lon="-0.13818">
        <ele>254.5</ele>
        <time>2016-06-20T10:02:30Z</time>
      </trkpt>
      <trkpt lat="48.1947" lon="-0.13824">
        <ele>252.3</ele>
        <time>2016-06-20T10:02:39Z</time>
      </trkpt>
      <trkpt lat="48.19478" lon="-0.13836">
        <ele>252.8</ele>
        <time>2016-06-20T10:02:48Z</time>
      </trkpt>
      <trkpt lat="48.19486" lon="-0.13844">
        <ele>252.3</ele>
        <time>2016-06-20T10:02:56Z</time>
      </trkpt>
      <trkpt lat="48.19492" lon="-0.13855">
        <ele>250.1</ele>
        <time>2016-06-20T10:03:04Z</time>
      </trkpt>
      <trkpt lat="48.195" lon="-0.13862">
        <ele>251.8</ele>
        <time>2016-06-20T10:03:12Z</time>
      </trkpt>
      <trkpt lat="48.19507" lon="-0.13872">
        <ele>250.3</ele>
        <time>2016-06-20T10:03:21Z</time>
      </trkpt>
      <trkpt lat="48.19513" lon="-0.13883">
        <ele>250</ele>
        <time>2016-06-20T10:04:43Z</time>
      </trkpt>
      <trkpt lat="48.19521" lon="-0.13893">
        <ele>248.8</ele>
        <time>2016-06-20T10:04:51Z</time>
      </trkpt>
      <trkpt lat="48.19529" lon="-0.13901">
        <ele>249.5</ele>
        <time>2016-06-20T10:05:03Z</time>
      </trkpt>
      <trkpt lat="48.19536" lon="-0.13911">
        <ele>247.2</ele>
        <time>2016-06-20T10:05:10Z</time>
      </trkpt>
      <trkpt lat="48.19544" lon="-0.13918">
        <ele>248.8</ele>
        <time>2016-06-20T10:05:16Z</time>
      </trkpt>
      <trkpt lat="48.19552" lon="-0.13926">
        <ele>247.3</ele>
        <time>2016-06-20T10:05:30Z</time>
      </trkpt>
      <trkpt lat="48.19558" lon="-0.13936">
        <ele>248.1</ele>
        <time>2016-06-20T10:05:37Z</time>
      </trkpt>
      <trkpt lat="48.19565" lon="-0.13948">
        <ele>246.2</ele>
        <time>2016-06-20T10:05:44Z</time>
      </trkpt>
      <trkpt lat="48.19573" lon="-0.13955">
        <ele>246.4</ele>
        <time>2016-06-20T10:05:56Z</time>
      </trkpt>
      <trkpt lat="48.19582" lon="-0.13962">
        <ele>246.7</ele>
        <time>2016-06-20T10:06:01Z</time>
      </trkpt>
      <trkpt lat="48.1959" lon="-0.13971">
        <ele>245.3</ele>
        <time>2016-06-20T10:06:09Z</time>
      </trkpt>
      <trkpt lat="48.19597" lon="-0.13979">
        <ele>245.7</ele>
        <time>2016-06-20T10:06:17Z</time>
      </trkpt>
      <trkpt lat="48.19604" lon="-0.13989">
        <ele>245.6</ele>
        <time>2016-06-20T10:06:23Z</time>
      </trkpt>
      <trkpt lat="48.19613" lon="-0.13996">
        <ele>244.4</ele>
        <time>2016-06-20T10:06:32Z</time>
      </trkpt>
      <trkpt lat="48.19621" lon="-0.14004">
        <ele>243.9</ele>
        <time>2016-06-20T10:06:43Z</time>
      </trkpt>
      <trkpt lat="48.19629" lon="-0.14011">
        <ele>245.1</ele>
        <time>2016-06-20T10:06:49Z</time>
      </trkpt>
      <trkpt lat="48.19637" lon="-0.14019">
        <ele>244.8</ele>
        <time>2016-06-20T10:06:56Z</time>
      </trkpt>
      <trkpt lat="48.19643" lon="-0.14029">
        <ele>243.3</ele>
        <time>2016-06-20T10:07:25Z</time>
      </trkpt>
      <trkpt lat="48.19651" lon="-0.14038">
        <ele>242.8</ele>
        <time>2016-06-20T10:07:32Z</time>
      </trkpt>
      <trkpt lat="48.19659" lon="-0.14045">
        <ele>243.5</ele>
        <time>2016-06-20T10:07:40Z</time>
      </trkpt>
      <trkpt lat="48.19666" lon="-0.14055">
        <ele>243.4</ele>
        <time>2016-06-20T10:07:48Z</time>
      </trkpt>
      <trkpt lat="48.19674" lon="-0.14063">
        <ele>242.1</ele>
        <time>2016-06-20T10:07:55Z</time>
      </trkpt>
      <trkpt lat="48.19681" lon="-0.14073">
        <ele>242</ele>
        <time>2016-06-20T10:08:02Z</time>
      </trkpt>
      <trkpt lat="48.19689" lon="-0.14082">
        <ele>242.2</ele>
        <time>2016-06-20T10:08:11Z</time>
      </trkpt>
      <trkpt lat="48.19696" lon="-0.1409">
        <ele>241.7</ele>
        <time>2016-06-20T10:08:19Z</time>
      </trkpt>
      <trkpt lat="48.19704" lon="-0.14097">
        <ele>241.7</ele>
        <time>2016-06-20T10:08:27Z</time>
      </trkpt>
      <trkpt lat="48.19712" lon="-0.14105">
        <ele>241.4</ele>
        <time>2016-06-20T10:08:35Z</time>
      </trkpt>
      <trkpt lat="48.19718" lon="-0.14114">
        <ele>242.2</ele>
        <time>2016-06-20T10:08:45Z</time>
      </trkpt>
      <trkpt lat="48.19727" lon="-0.14124">
        <ele>242.3</ele>
        <time>2016-06-20T10:08:53Z</time>
      </trkpt>
      <trkpt lat="48.19735" lon="-0.14132">
        <ele>241.7</ele>
        <time>2016-06-20T10:09:01Z</time>
      </trkpt>
      <trkpt lat="48.19742" lon="-0.14139">
        <ele>242.6</ele>
        <time>2016-06-20T10:09:11Z</time>
      </trkpt>
      <trkpt lat="48.1975" lon="-0.14147">
        <ele>243.4</ele>
        <time>2016-06-20T10:09:18Z</time>
      </trkpt>
      <trkpt lat="48.19759" lon="-0.14154">
        <ele>242.1</ele>
        <time>2016-06-20T10:09:32Z</time>
      </trkpt>
      <trkpt lat="48.19767" lon="-0.1416">
        <ele>242.7</ele>
        <time>2016-06-20T10:09:38Z</time>
      </trkpt>
      <trkpt lat="48.19776" lon="-0.14165">
        <ele>242</ele>
        <time>2016-06-20T10:09:45Z</time>
      </trkpt>
      <trkpt lat="48.19785" lon="-0.14171">
        <ele>242.1</ele>
        <time>2016-06-20T10:09:56Z</time>
      </trkpt>
      <trkpt lat="48.19795" lon="-0.14177">
        <ele>241.9</ele>
        <time>2016-06-20T10:10:04Z</time>
      </trkpt>
      <trkpt lat="48.19804" lon="-0.14181">
        <ele>241.2</ele>
        <time>2016-06-20T10:10:12Z</time>
      </trkpt>
      <trkpt lat="48.19814" lon="-0.14186">
        <ele>242.7</ele>
        <time>2016-06-20T10:10:20Z</time>
      </trkpt>
      <trkpt lat="48.19823" lon="-0.1419">
        <ele>242.2</ele>
        <time>2016-06-20T10:10:27Z</time>
      </trkpt>
      <trkpt lat="48.19832" lon="-0.14194">
        <ele>241.1</ele>
        <time>2016-06-20T10:10:35Z</time>
      </trkpt>
      <trkpt lat="48.19842" lon="-0.14198">
        <ele>242.1</ele>
        <time>2016-06-20T10:10:43Z</time>
      </trkpt>
      <trkpt lat="48.19851" lon="-0.14201">
        <ele>241.4</ele>
        <time>2016-06-20T10:10:51Z</time>
      </trkpt>
      <trkpt lat="48.1986" lon="-0.14204">
        <ele>241.7</ele>
        <time>2016-06-20T10:10:56Z</time>
      </trkpt>
      <trkpt lat="48.19869" lon="-0.14206">
        <ele>240.7</ele>
        <time>2016-06-20T10:11:04Z</time>
      </trkpt>
      <trkpt lat="48.19878" lon="-0.14208">
        <ele>242.2</ele>
        <time>2016-06-20T10:11:13Z</time>
      </trkpt>
      <trkpt lat="48.19888" lon="-0.14208">
        <ele>242.9</ele>
        <time>2016-06-20T10:11:20Z</time>
      </trkpt>
      <trkpt lat="48.19898" lon="-0.1421">
        <ele>242.3</ele>
        <time>2016-06-20T10:11:33Z</time>
      </trkpt>
      <trkpt lat="48.19908" lon="-0.1421">
        <ele>242.7</ele>
        <time>2016-06-20T10:11:40Z</time>
      </trkpt>
      <trkpt lat="48.19917" lon="-0.14213">
        <ele>243</ele>
        <time>2016-06-20T10:11:47Z</time>
      </trkpt>
      <trkpt lat="48.19927" lon="-0.14216">
        <ele>242.1</ele>
        <time>2016-06-20T10:11:57Z</time>
      </trkpt>
      <trkpt lat="48.19937" lon="-0.14222">
        <ele>242.2</ele>
        <time>2016-06-20T10:12:56Z</time>
      </trkpt>
      <trkpt lat="48.19949" lon="-0.14221">
        <ele>242.2</ele>
        <time>2016-06-20T10:13:05Z</time>
      </trkpt>
      <trkpt lat="48.19959" lon="-0.14222">
        <ele>243.4</ele>
        <time>2016-06-20T10:13:12Z</time>
      </trkpt>
      <trkpt lat="48.19969" lon="-0.14226">
        <ele>242.6</ele>
        <time>2016-06-20T10:13:19Z</time>
      </trkpt>
      <trkpt lat="48.19978" lon="-0.14227">
        <ele>242.1</ele>
        <time>2016-06-20T10:13:26Z</time>
      </trkpt>
      <trkpt lat="48.19989" lon="-0.14229">
        <ele>243.5</ele>
        <time>2016-06-20T10:13:34Z</time>
      </trkpt>
      <trkpt lat="48.19998" lon="-0.14229">
        <ele>244.2</ele>
        <time>2016-06-20T10:13:45Z</time>
      </trkpt>
      <trkpt lat="48.20008" lon="-0.1423">
        <ele>243.4</ele>
        <time>2016-06-20T10:13:52Z</time>
      </trkpt>
      <trkpt lat="48.20017" lon="-0.14234">
        <ele>243.7</ele>
        <time>2016-06-20T10:13:59Z</time>
      </trkpt>
      <trkpt lat="48.20028" lon="-0.14235">
        <ele>243.5</ele>
        <time>2016-06-20T10:14:10Z</time>
      </trkpt>
      <trkpt lat="48.20037" lon="-0.14238">
        <ele>243</ele>
        <time>2016-06-20T10:14:15Z</time>
      </trkpt>
      <trkpt lat="48.20047" lon="-0.1424">
        <ele>243</ele>
        <time>2016-06-20T10:14:20Z</time>
      </trkpt>
      <trkpt lat="48.20056" lon="-0.14245">
        <ele>243.8</ele>
        <time>2016-06-20T10:14:28Z</time>
      </trkpt>
      <trkpt lat="48.20065" lon="-0.14244">
        <ele>243.6</ele>
        <time>2016-06-20T10:14:34Z</time>
      </trkpt>
      <trkpt lat="48.20075" lon="-0.14244">
        <ele>244.3</ele>
        <time>2016-06-20T10:14:41Z</time>
      </trkpt>
      <trkpt lat="48.20085" lon="-0.14247">
        <ele>244.5</ele>
        <time>2016-06-20T10:14:47Z</time>
      </trkpt>
      <trkpt lat="48.20094" lon="-0.14248">
        <ele>246.1</ele>
        <time>2016-06-20T10:14:57Z</time>
      </trkpt>
      <trkpt lat="48.20103" lon="-0.1425">
        <ele>247.1</ele>
        <time>2016-06-20T10:15:09Z</time>
      </trkpt>
      <trkpt lat="48.20113" lon="-0.14253">
        <ele>248.3</ele>
        <time>2016-06-20T10:15:21Z</time>
      </trkpt>
      <trkpt lat="48.20123" lon="-0.14252">
        <ele>248.4</ele>
        <time>2016-06-20T10:15:27Z</time>
      </trkpt>
      <trkpt lat="48.20132" lon="-0.14256">
        <ele>249.5</ele>
        <time>2016-06-20T10:15:34Z</time>
      </trkpt>
      <trkpt lat="48.20142" lon="-0.14256">
        <ele>250</ele>
        <time>2016-06-20T10:15:41Z</time>
      </trkpt>
      <trkpt lat="48.20151" lon="-0.1426">
        <ele>250.5</ele>
        <time>2016-06-20T10:15:47Z</time>
      </trkpt>
      <trkpt lat="48.20161" lon="-0.1426">
        <ele>251.3</ele>
        <time>2016-06-20T10:15:56Z</time>
      </trkpt>
      <trkpt lat="48.2017" lon="-0.14262">
        <ele>251.4</ele>
        <time>2016-06-20T10:16:05Z</time>
      </trkpt>
      <trkpt lat="48.20181" lon="-0.14265">
        <ele>251.7</ele>
        <time>2016-06-20T10:16:26Z</time>
      </trkpt>
      <trkpt lat="48.2019" lon="-0.14265">
        <ele>252.6</ele>
        <time>2016-06-20T10:16:32Z</time>
      </trkpt>
      <trkpt lat="48.202" lon="-0.14266">
        <ele>252.6</ele>
        <time>2016-06-20T10:16:38Z</time>
      </trkpt>
      <trkpt lat="48.20209" lon="-0.14269">
        <ele>253.2</ele>
        <time>2016-06-20T10:16:47Z</time>
      </trkpt>
      <trkpt lat="48.2022" lon="-0.1427">
        <ele>253.7</ele>
        <time>2016-06-20T10:16:56Z</time>
      </trkpt>
      <trkpt lat="48.2023" lon="-0.14269">
        <ele>255.1</ele>
        <time>2016-06-20T10:17:04Z</time>
      </trkpt>
      <trkpt lat="48.20238" lon="-0.14275">
        <ele>255.5</ele>
        <time>2016-06-20T10:17:11Z</time>
      </trkpt>
      <trkpt lat="48.20247" lon="-0.14278">
        <ele>256.3</ele>
        <time>2016-06-20T10:17:18Z</time>
      </trkpt>
      <trkpt lat="48.20257" lon="-0.1428">
        <ele>257.9</ele>
        <time>2016-06-20T10:17:29Z</time>
      </trkpt>
      <trkpt lat="48.20268" lon="-0.14282">
        <ele>257.4</ele>
        <time>2016-06-20T10:17:37Z</time>
      </trkpt>
      <trkpt lat="48.20278" lon="-0.14283">
        <ele>258</ele>
        <time>2016-06-20T10:17:47Z</time>
      </trkpt>
      <trkpt lat="48.20288" lon="-0.14286">
        <ele>259.2</ele>
        <time>2016-06-20T10:20:50Z</time>
      </trkpt>
      <trkpt lat="48.20298" lon="-0.14285">
        <ele>258.6</ele>
        <time>2016-06-20T10:20:58Z</time>
      </trkpt>
      <trkpt lat="48.20308" lon="-0.14285">
        <ele>258.4</ele>
        <time>2016-06-20T10:21:03Z</time>
      </trkpt>
      <trkpt lat="48.20317" lon="-0.14288">
        <ele>258.6</ele>
        <time>2016-06-20T10:21:18Z</time>
      </trkpt>
      <trkpt lat="48.20326" lon="-0.14289">
        <ele>258.5</ele>
        <time>2016-06-20T10:21:23Z</time>
      </trkpt>
      <trkpt lat="48.20337" lon="-0.14291">
        <ele>258.9</ele>
        <time>2016-06-20T10:21:33Z</time>
      </trkpt>
      <trkpt lat="48.20346" lon="-0.14292">
        <ele>259.2</ele>
        <time>2016-06-20T10:21:41Z</time>
      </trkpt>
      <trkpt lat="48.20355" lon="-0.14296">
        <ele>258.2</ele>
        <time>2016-06-20T10:21:48Z</time>
      </trkpt>
      <trkpt lat="48.20365" lon="-0.14297">
        <ele>257.5</ele>
        <time>2016-06-20T10:21:56Z</time>
      </trkpt>
      <trkpt lat="48.20375" lon="-0.14299">
        <ele>257.3</ele>
        <time>2016-06-20T10:22:05Z</time>
      </trkpt>
      <trkpt lat="48.20384" lon="-0.143">
        <ele>257</ele>
        <time>2016-06-20T10:22:13Z</time>
      </trkpt>
      <trkpt lat="48.20397" lon="-0.14302">
        <ele>257.5</ele>
        <time>2016-06-20T10:22:20Z</time>
      </trkpt>
      <trkpt lat="48.20409" lon="-0.14302">
        <ele>256.6</ele>
        <time>2016-06-20T10:22:31Z</time>
      </trkpt>
      <trkpt lat="48.20418" lon="-0.14308">
        <ele>256.4</ele>
        <time>2016-06-20T10:22:40Z</time>
      </trkpt>
      <trkpt lat="48.20428" lon="-0.14309">
        <ele>254.7</ele>
        <time>2016-06-20T10:22:49Z</time>
      </trkpt>
      <trkpt lat="48.20437" lon="-0.14313">
        <ele>254.5</ele>
        <time>2016-06-20T10:22:58Z</time>
      </trkpt>
      <trkpt lat="48.20446" lon="-0.14318">
        <ele>253.8</ele>
        <time>2016-06-20T10:23:06Z</time>
      </trkpt>
      <trkpt lat="48.20455" lon="-0.14321">
        <ele>253.3</ele>
        <time>2016-06-20T10:23:17Z</time>
      </trkpt>
      <trkpt lat="48.20464" lon="-0.14326">
        <ele>251.8</ele>
        <time>2016-06-20T10:23:26Z</time>
      </trkpt>
      <trkpt lat="48.20473" lon="-0.14329">
        <ele>250.6</ele>
        <time>2016-06-20T10:23:33Z</time>
      </trkpt>
      <trkpt lat="48.20482" lon="-0.14333">
        <ele>250.2</ele>
        <time>2016-06-20T10:23:41Z</time>
      </trkpt>
      <trkpt lat="48.20492" lon="-0.14338">
        <ele>249.5</ele>
        <time>2016-06-20T10:23:48Z</time>
      </trkpt>
      <trkpt lat="48.20503" lon="-0.14336">
        <ele>249</ele>
        <time>2016-06-20T10:23:54Z</time>
      </trkpt>
      <trkpt lat="48.20514" lon="-0.1434">
        <ele>248</ele>
        <time>2016-06-20T10:24:03Z</time>
      </trkpt>
      <trkpt lat="48.20524" lon="-0.14346">
        <ele>247.8</ele>
        <time>2016-06-20T10:24:11Z</time>
      </trkpt>
      <trkpt lat="48.2053" lon="-0.14355">
        <ele>247.2</ele>
        <time>2016-06-20T10:24:21Z</time>
      </trkpt>
      <trkpt lat="48.20538" lon="-0.14365">
        <ele>246.3</ele>
        <time>2016-06-20T10:24:29Z</time>
      </trkpt>
      <trkpt lat="48.20545" lon="-0.14376">
        <ele>245.7</ele>
        <time>2016-06-20T10:24:36Z</time>
      </trkpt>
      <trkpt lat="48.20552" lon="-0.14384">
        <ele>245.5</ele>
        <time>2016-06-20T10:24:42Z</time>
      </trkpt>
      <trkpt lat="48.20562" lon="-0.14391">
        <ele>245.4</ele>
        <time>2016-06-20T10:24:47Z</time>
      </trkpt>
      <trkpt lat="48.20571" lon="-0.14399">
        <ele>245.2</ele>
        <time>2016-06-20T10:24:54Z</time>
      </trkpt>
      <trkpt lat="48.20577" lon="-0.14409">
        <ele>245</ele>
        <time>2016-06-20T10:25:02Z</time>
      </trkpt>
      <trkpt lat="48.20584" lon="-0.14419">
        <ele>244.6</ele>
        <time>2016-06-20T10:25:14Z</time>
      </trkpt>
      <trkpt lat="48.2059" lon="-0.1443">
        <ele>244.4</ele>
        <time>2016-06-20T10:25:22Z</time>
      </trkpt>
      <trkpt lat="48.20593" lon="-0.14444">
        <ele>244.1</ele>
        <time>2016-06-20T10:25:31Z</time>
      </trkpt>
      <trkpt lat="48.20592" lon="-0.14458">
        <ele>243.2</ele>
        <time>2016-06-20T10:25:40Z</time>
      </trkpt>
      <trkpt lat="48.20585" lon="-0.14447">
        <ele>243.8</ele>
        <time>2016-06-20T10:26:35Z</time>
      </trkpt>
      <trkpt lat="48.20594" lon="-0.14451">
        <ele>243.7</ele>
        <time>2016-06-20T10:26:54Z</time>
      </trkpt>
      <trkpt lat="48.20602" lon="-0.14457">
        <ele>244.2</ele>
        <time>2016-06-20T10:26:58Z</time>
      </trkpt>
      <trkpt lat="48.2061" lon="-0.14466">
        <ele>244.5</ele>
        <time>2016-06-20T10:27:04Z</time>
      </trkpt>
      <trkpt lat="48.2062" lon="-0.14473">
        <ele>243.6</ele>
        <time>2016-06-20T10:27:11Z</time>
      </trkpt>
      <trkpt lat="48.20628" lon="-0.14482">
        <ele>243.8</ele>
        <time>2016-06-20T10:27:18Z</time>
      </trkpt>
      <trkpt lat="48.20637" lon="-0.14489">
        <ele>244.5</ele>
        <time>2016-06-20T10:27:27Z</time>
      </trkpt>
      <trkpt lat="48.20644" lon="-0.14498">
        <ele>243.9</ele>
        <time>2016-06-20T10:27:34Z</time>
      </trkpt>
      <trkpt lat="48.20649" lon="-0.14511">
        <ele>243.3</ele>
        <time>2016-06-20T10:27:47Z</time>
      </trkpt>
      <trkpt lat="48.20658" lon="-0.14517">
        <ele>243.5</ele>
        <time>2016-06-20T10:27:53Z</time>
      </trkpt>
      <trkpt lat="48.20667" lon="-0.14526">
        <ele>243.5</ele>
        <time>2016-06-20T10:28:01Z</time>
      </trkpt>
      <trkpt lat="48.2067" lon="-0.14539">
        <ele>244.3</ele>
        <time>2016-06-20T10:28:08Z</time>
      </trkpt>
      <trkpt lat="48.20676" lon="-0.14552">
        <ele>243.2</ele>
        <time>2016-06-20T10:28:17Z</time>
      </trkpt>
      <trkpt lat="48.2068" lon="-0.14565">
        <ele>244</ele>
        <time>2016-06-20T10:28:25Z</time>
      </trkpt>
      <trkpt lat="48.20685" lon="-0.14577">
        <ele>243.5</ele>
        <time>2016-06-20T10:28:32Z</time>
      </trkpt>
      <trkpt lat="48.20693" lon="-0.14587">
        <ele>243.5</ele>
        <time>2016-06-20T10:28:39Z</time>
      </trkpt>
      <trkpt lat="48.20701" lon="-0.14594">
        <ele>244.4</ele>
        <time>2016-06-20T10:28:43Z</time>
      </trkpt>
      <trkpt lat="48.20707" lon="-0.14606">
        <ele>243.8</ele>
        <time>2016-06-20T10:28:54Z</time>
      </trkpt>
      <trkpt lat="48.20714" lon="-0.14617">
        <ele>243.8</ele>
        <time>2016-06-20T10:29:06Z</time>
      </trkpt>
      <trkpt lat="48.20723" lon="-0.14625">
        <ele>244.7</ele>
        <time>2016-06-20T10:29:15Z</time>
      </trkpt>
      <trkpt lat="48.20733" lon="-0.14632">
        <ele>243.9</ele>
        <time>2016-06-20T10:29:24Z</time>
      </trkpt>
      <trkpt lat="48.20737" lon="-0.14644">
        <ele>244</ele>
        <time>2016-06-20T10:29:33Z</time>
      </trkpt>
      <trkpt lat="48.20745" lon="-0.14653">
        <ele>244.6</ele>
        <time>2016-06-20T10:29:42Z</time>
      </trkpt>
      <trkpt lat="48.20753" lon="-0.14662">
        <ele>244.5</ele>
        <time>2016-06-20T10:29:53Z</time>
      </trkpt>
      <trkpt lat="48.20763" lon="-0.14671">
        <ele>244.8</ele>
        <time>2016-06-20T10:30:01Z</time>
      </trkpt>
      <trkpt lat="48.20771" lon="-0.14683">
        <ele>244.7</ele>
        <time>2016-06-20T10:30:10Z</time>
      </trkpt>
      <trkpt lat="48.20781" lon="-0.14691">
        <ele>244.6</ele>
        <time>2016-06-20T10:30:14Z</time>
      </trkpt>
      <trkpt lat="48.20789" lon="-0.14699">
        <ele>245.1</ele>
        <time>2016-06-20T10:30:21Z</time>
      </trkpt>
      <trkpt lat="48.20797" lon="-0.14705">
        <ele>245.3</ele>
        <time>2016-06-20T10:30:38Z</time>
      </trkpt>
      <trkpt lat="48.20804" lon="-0.14714">
        <ele>245.6</ele>
        <time>2016-06-20T10:30:45Z</time>
      </trkpt>
      <trkpt lat="48.20811" lon="-0.14725">
        <ele>245.9</ele>
        <time>2016-06-20T10:30:53Z</time>
      </trkpt>
      <trkpt lat="48.20819" lon="-0.14732">
        <ele>246.2</ele>
        <time>2016-06-20T10:31:00Z</time>
      </trkpt>
      <trkpt lat="48.20827" lon="-0.14741">
        <ele>246.8</ele>
        <time>2016-06-20T10:31:10Z</time>
      </trkpt>
      <trkpt lat="48.20835" lon="-0.14751">
        <ele>246.4</ele>
        <time>2016-06-20T10:31:20Z</time>
      </trkpt>
      <trkpt lat="48.20845" lon="-0.14763">
        <ele>247.5</ele>
        <time>2016-06-20T10:31:34Z</time>
      </trkpt>
      <trkpt lat="48.20853" lon="-0.14773">
        <ele>247.9</ele>
        <time>2016-06-20T10:31:40Z</time>
      </trkpt>
      <trkpt lat="48.20862" lon="-0.14781">
        <ele>248.4</ele>
        <time>2016-06-20T10:31:47Z</time>
      </trkpt>
      <trkpt lat="48.20869" lon="-0.14791">
        <ele>249.1</ele>
        <time>2016-06-20T10:31:55Z</time>
      </trkpt>
      <trkpt lat="48.20875" lon="-0.14801">
        <ele>248.7</ele>
        <time>2016-06-20T10:32:03Z</time>
      </trkpt>
      <trkpt lat="48.20881" lon="-0.14812">
        <ele>250.1</ele>
        <time>2016-06-20T10:33:08Z</time>
      </trkpt>
      <trkpt lat="48.2089" lon="-0.14821">
        <ele>250.4</ele>
        <time>2016-06-20T10:33:14Z</time>
      </trkpt>
      <trkpt lat="48.20898" lon="-0.14835">
        <ele>250.3</ele>
        <time>2016-06-20T10:33:23Z</time>
      </trkpt>
      <trkpt lat="48.20906" lon="-0.14842">
        <ele>250</ele>
        <time>2016-06-20T10:33:28Z</time>
      </trkpt>
      <trkpt lat="48.20915" lon="-0.14852">
        <ele>249.5</ele>
        <time>2016-06-20T10:33:36Z</time>
      </trkpt>
      <trkpt lat="48.20922" lon="-0.14859">
        <ele>249.5</ele>
        <time>2016-06-20T10:33:41Z</time>
      </trkpt>
      <trkpt lat="48.20929" lon="-0.14869">
        <ele>249</ele>
        <time>2016-06-20T10:33:49Z</time>
      </trkpt>
      <trkpt lat="48.20938" lon="-0.14875">
        <ele>249.3</ele>
        <time>2016-06-20T10:33:59Z</time>
      </trkpt>
      <trkpt lat="48.20946" lon="-0.14883">
        <ele>249.2</ele>
        <time>2016-06-20T10:34:04Z</time>
      </trkpt>
      <trkpt lat="48.20953" lon="-0.14892">
        <ele>249.8</ele>
        <time>2016-06-20T10:34:11Z</time>
      </trkpt>
      <trkpt lat="48.20958" lon="-0.14903">
        <ele>249.2</ele>
        <time>2016-06-20T10:34:22Z</time>
      </trkpt>
      <trkpt lat="48.20966" lon="-0.14911">
        <ele>249.1</ele>
        <time>2016-06-20T10:34:30Z</time>
      </trkpt>
      <trkpt lat="48.20975" lon="-0.14918">
        <ele>249.3</ele>
        <time>2016-06-20T10:34:37Z</time>
      </trkpt>
      <trkpt lat="48.20981" lon="-0.14929">
        <ele>249.7</ele>
        <time>2016-06-20T10:34:48Z</time>
      </trkpt>
      <trkpt lat="48.20988" lon="-0.14938">
        <ele>249.3</ele>
        <time>2016-06-20T10:34:54Z</time>
      </trkpt>
      <trkpt lat="48.20997" lon="-0.14942">
        <ele>249.3</ele>
        <time>2016-06-20T10:35:02Z</time>
      </trkpt>
      <trkpt lat="48.21004" lon="-0.1495">
        <ele>249.4</ele>
        <time>2016-06-20T10:35:10Z</time>
      </trkpt>
      <trkpt lat="48.21009" lon="-0.14963">
        <ele>249.4</ele>
        <time>2016-06-20T10:35:17Z</time>
      </trkpt>
      <trkpt lat="48.21014" lon="-0.14974">
        <ele>249.7</ele>
        <time>2016-06-20T10:35:23Z</time>
      </trkpt>
      <trkpt lat="48.21019" lon="-0.14985">
        <ele>249.9</ele>
        <time>2016-06-20T10:35:31Z</time>
      </trkpt>
      <trkpt lat="48.21027" lon="-0.14994">
        <ele>250.1</ele>
        <time>2016-06-20T10:35:38Z</time>
      </trkpt>
      <trkpt lat="48.21033" lon="-0.15005">
        <ele>249.5</ele>
        <time>2016-06-20T10:35:45Z</time>
      </trkpt>
      <trkpt lat="48.21036" lon="-0.15018">
        <ele>250</ele>
        <time>2016-06-20T10:35:57Z</time>
      </trkpt>
      <trkpt lat="48.21043" lon="-0.15027">
        <ele>250.2</ele>
        <time>2016-06-20T10:36:03Z</time>
      </trkpt>
      <trkpt lat="48.2105" lon="-0.15036">
        <ele>250.5</ele>
        <time>2016-06-20T10:36:12Z</time>
      </trkpt>
      <trkpt lat="48.21057" lon="-0.15045">
        <ele>251.3</ele>
        <time>2016-06-20T10:36:22Z</time>
      </trkpt>
      <trkpt lat="48.21065" lon="-0.15053">
        <ele>251.3</ele>
        <time>2016-06-20T10:36:31Z</time>
      </trkpt>
      <trkpt lat="48.21071" lon="-0.15063">
        <ele>251.6</ele>
        <time>2016-06-20T10:36:42Z</time>
      </trkpt>
      <trkpt lat="48.21077" lon="-0.15075">
        <ele>252.1</ele>
        <time>2016-06-20T10:36:48Z</time>
      </trkpt>
      <trkpt lat="48.21083" lon="-0.15084">
        <ele>252.3</ele>
        <time>2016-06-20T10:36:54Z</time>
      </trkpt>
      <trkpt lat="48.2109" lon="-0.15095">
        <ele>252.5</ele>
        <time>2016-06-20T10:37:03Z</time>
      </trkpt>
      <trkpt lat="48.21093" lon="-0.15108">
        <ele>253.1</ele>
        <time>2016-06-20T10:37:11Z</time>
      </trkpt>
      <trkpt lat="48.21101" lon="-0.15115">
        <ele>253.3</ele>
        <time>2016-06-20T10:37:18Z</time>
      </trkpt>
      <trkpt lat="48.21108" lon="-0.15124">
        <ele>253.9</ele>
        <time>2016-06-20T10:37:27Z</time>
      </trkpt>
      <trkpt lat="48.21114" lon="-0.15137">
        <ele>253.9</ele>
        <time>2016-06-20T10:37:35Z</time>
      </trkpt>
      <trkpt lat="48.2112" lon="-0.15147">
        <ele>254.2</ele>
        <time>2016-06-20T10:37:43Z</time>
      </trkpt>
      <trkpt lat="48.21126" lon="-0.15157">
        <ele>254.2</ele>
        <time>2016-06-20T10:37:51Z</time>
      </trkpt>
      <trkpt lat="48.21133" lon="-0.15167">
        <ele>254.2</ele>
        <time>2016-06-20T10:37:59Z</time>
      </trkpt>
      <trkpt lat="48.21139" lon="-0.15177">
        <ele>254.8</ele>
        <time>2016-06-20T10:38:07Z</time>
      </trkpt>
      <trkpt lat="48.21145" lon="-0.15188">
        <ele>254.9</ele>
        <time>2016-06-20T10:38:13Z</time>
      </trkpt>
      <trkpt lat="48.2115" lon="-0.152">
        <ele>254.4</ele>
        <time>2016-06-20T10:38:19Z</time>
      </trkpt>
      <trkpt lat="48.21156" lon="-0.15211">
        <ele>253.7</ele>
        <time>2016-06-20T10:38:27Z</time>
      </trkpt>
      <trkpt lat="48.2116" lon="-0.15224">
        <ele>253.4</ele>
        <time>2016-06-20T10:38:34Z</time>
      </trkpt>
      <trkpt lat="48.21164" lon="-0.15238">
        <ele>251.8</ele>
        <time>2016-06-20T10:38:43Z</time>
      </trkpt>
      <trkpt lat="48.21165" lon="-0.15251">
        <ele>251.8</ele>
        <time>2016-06-20T10:39:59Z</time>
      </trkpt>
      <trkpt lat="48.21163" lon="-0.15265">
        <ele>252.3</ele>
        <time>2016-06-20T10:41:02Z</time>
      </trkpt>
      <trkpt lat="48.21161" lon="-0.15279">
        <ele>252.1</ele>
        <time>2016-06-20T10:41:09Z</time>
      </trkpt>
      <trkpt lat="48.2116" lon="-0.15293">
        <ele>252.1</ele>
        <time>2016-06-20T10:41:17Z</time>
      </trkpt>
      <trkpt lat="48.21159" lon="-0.15308">
        <ele>251.9</ele>
        <time>2016-06-20T10:41:26Z</time>
      </trkpt>
      <trkpt lat="48.21156" lon="-0.15324">
        <ele>252.2</ele>
        <time>2016-06-20T10:41:34Z</time>
      </trkpt>
      <trkpt lat="48.21156" lon="-0.15338">
        <ele>251.7</ele>
        <time>2016-06-20T10:41:44Z</time>
      </trkpt>
      <trkpt lat="48.21153" lon="-0.15353">
        <ele>252.1</ele>
        <time>2016-06-20T10:41:50Z</time>
      </trkpt>
      <trkpt lat="48.21152" lon="-0.15367">
        <ele>252.3</ele>
        <time>2016-06-20T10:42:00Z</time>
      </trkpt>
      <trkpt lat="48.2115" lon="-0.15383">
        <ele>252.1</ele>
        <time>2016-06-20T10:42:10Z</time>
      </trkpt>
      <trkpt lat="48.21148" lon="-0.15397">
        <ele>252.1</ele>
        <time>2016-06-20T10:42:18Z</time>
      </trkpt>
      <trkpt lat="48.21148" lon="-0.15412">
        <ele>252</ele>
        <time>2016-06-20T10:42:38Z</time>
      </trkpt>
      <trkpt lat="48.21146" lon="-0.15427">
        <ele>252</ele>
        <time>2016-06-20T10:42:46Z</time>
      </trkpt>
      <trkpt lat="48.21145" lon="-0.1544">
        <ele>252.3</ele>
        <time>2016-06-20T10:42:55Z</time>
      </trkpt>
      <trkpt lat="48.21142" lon="-0.15454">
        <ele>252.1</ele>
        <time>2016-06-20T10:43:02Z</time>
      </trkpt>
      <trkpt lat="48.21141" lon="-0.15469">
        <ele>252.3</ele>
        <time>2016-06-20T10:43:12Z</time>
      </trkpt>
      <trkpt lat="48.21142" lon="-0.15484">
        <ele>252.9</ele>
        <time>2016-06-20T10:43:21Z</time>
      </trkpt>
      <trkpt lat="48.2114" lon="-0.15499">
        <ele>252.8</ele>
        <time>2016-06-20T10:43:28Z</time>
      </trkpt>
      <trkpt lat="48.21142" lon="-0.15514">
        <ele>253</ele>
        <time>2016-06-20T10:43:36Z</time>
      </trkpt>
      <trkpt lat="48.21145" lon="-0.15527">
        <ele>253</ele>
        <time>2016-06-20T10:43:45Z</time>
      </trkpt>
      <trkpt lat="48.21151" lon="-0.15541">
        <ele>253.6</ele>
        <time>2016-06-20T10:43:54Z</time>
      </trkpt>
      <trkpt lat="48.21155" lon="-0.15553">
        <ele>254.4</ele>
        <time>2016-06-20T10:44:01Z</time>
      </trkpt>
      <trkpt lat="48.2116" lon="-0.15568">
        <ele>254</ele>
        <time>2016-06-20T10:44:14Z</time>
      </trkpt>
      <trkpt lat="48.21167" lon="-0.15577">
        <ele>253.5</ele>
        <time>2016-06-20T10:44:21Z</time>
      </trkpt>
      <trkpt lat="48.21167" lon="-0.15591">
        <ele>252.3</ele>
        <time>2016-06-20T10:44:26Z</time>
      </trkpt>
      <trkpt lat="48.21169" lon="-0.15604">
        <ele>252.3</ele>
        <time>2016-06-20T10:44:34Z</time>
      </trkpt>
      <trkpt lat="48.21168" lon="-0.15618">
        <ele>252.4</ele>
        <time>2016-06-20T10:44:40Z</time>
      </trkpt>
      <trkpt lat="48.21168" lon="-0.15632">
        <ele>251.3</ele>
        <time>2016-06-20T10:44:49Z</time>
      </trkpt>
      <trkpt lat="48.21169" lon="-0.15646">
        <ele>252.1</ele>
        <time>2016-06-20T10:44:59Z</time>
      </trkpt>
      <trkpt lat="48.21171" lon="-0.1566">
        <ele>251.5</ele>
        <time>2016-06-20T10:45:08Z</time>
      </trkpt>
      <trkpt lat="48.2117" lon="-0.15674">
        <ele>251.9</ele>
        <time>2016-06-20T10:45:15Z</time>
      </trkpt>
      <trkpt lat="48.2117" lon="-0.15688">
        <ele>250.4</ele>
        <time>2016-06-20T10:45:23Z</time>
      </trkpt>
      <trkpt lat="48.21169" lon="-0.15703">
        <ele>251.2</ele>
        <time>2016-06-20T10:45:30Z</time>
      </trkpt>
      <trkpt lat="48.21171" lon="-0.15717">
        <ele>250.9</ele>
        <time>2016-06-20T10:45:39Z</time>
      </trkpt>
      <trkpt lat="48.2117" lon="-0.15731">
        <ele>250.6</ele>
        <time>2016-06-20T10:45:47Z</time>
      </trkpt>
      <trkpt lat="48.21168" lon="-0.15746">
        <ele>250.6</ele>
        <time>2016-06-20T10:45:54Z</time>
      </trkpt>
      <trkpt lat="48.21167" lon="-0.15759">
        <ele>250.9</ele>
        <time>2016-06-20T10:46:01Z</time>
      </trkpt>
      <trkpt lat="48.21166" lon="-0.15773">
        <ele>249.8</ele>
        <time>2016-06-20T10:46:09Z</time>
      </trkpt>
      <trkpt lat="48.21165" lon="-0.15788">
        <ele>249</ele>
        <time>2016-06-20T10:46:17Z</time>
      </trkpt>
      <trkpt lat="48.21163" lon="-0.15802">
        <ele>250.1</ele>
        <time>2016-06-20T10:46:24Z</time>
      </trkpt>
      <trkpt lat="48.21164" lon="-0.15816">
        <ele>249.3</ele>
        <time>2016-06-20T10:46:32Z</time>
      </trkpt>
      <trkpt lat="48.21165" lon="-0.15829">
        <ele>249</ele>
        <time>2016-06-20T10:46:41Z</time>
      </trkpt>
      <trkpt lat="48.21164" lon="-0.15845">
        <ele>249</ele>
        <time>2016-06-20T10:46:50Z</time>
      </trkpt>
      <trkpt lat="48.21162" lon="-0.15859">
        <ele>248.8</ele>
        <time>2016-06-20T10:46:58Z</time>
      </trkpt>
      <trkpt lat="48.21159" lon="-0.15872">
        <ele>249.3</ele>
        <time>2016-06-20T10:47:05Z</time>
      </trkpt>
      <trkpt lat="48.21156" lon="-0.15885">
        <ele>249.5</ele>
        <time>2016-06-20T10:47:13Z</time>
      </trkpt>
      <trkpt lat="48.21154" lon="-0.159">
        <ele>250.1</ele>
        <time>2016-06-20T10:47:21Z</time>
      </trkpt>
      <trkpt lat="48.21151" lon="-0.15913">
        <ele>250</ele>
        <time>2016-06-20T10:47:29Z</time>
      </trkpt>
      <trkpt lat="48.21148" lon="-0.15926">
        <ele>250.4</ele>
        <time>2016-06-20T10:48:14Z</time>
      </trkpt>
      <trkpt lat="48.21144" lon="-0.15939">
        <ele>250.7</ele>
        <time>2016-06-20T10:48:23Z</time>
      </trkpt>
      <trkpt lat="48.21141" lon="-0.15952">
        <ele>250.2</ele>
        <time>2016-06-20T10:48:31Z</time>
      </trkpt>
      <trkpt lat="48.21143" lon="-0.15966">
        <ele>250.3</ele>
        <time>2016-06-20T10:48:41Z</time>
      </trkpt>
      <trkpt lat="48.21149" lon="-0.15978">
        <ele>249.9</ele>
        <time>2016-06-20T10:48:51Z</time>
      </trkpt>
      <trkpt lat="48.21158" lon="-0.15986">
        <ele>249.4</ele>
        <time>2016-06-20T10:48:59Z</time>
      </trkpt>
      <trkpt lat="48.21165" lon="-0.15996">
        <ele>248.3</ele>
        <time>2016-06-20T10:49:09Z</time>
      </trkpt>
      <trkpt lat="48.21173" lon="-0.16005">
        <ele>247.2</ele>
        <time>2016-06-20T10:49:18Z</time>
      </trkpt>
      <trkpt lat="48.21179" lon="-0.16014">
        <ele>246.9</ele>
        <time>2016-06-20T10:49:28Z</time>
      </trkpt>
      <trkpt lat="48.21188" lon="-0.16023">
        <ele>245.8</ele>
        <time>2016-06-20T10:49:36Z</time>
      </trkpt>
      <trkpt lat="48.21195" lon="-0.16032">
        <ele>244.8</ele>
        <time>2016-06-20T10:49:45Z</time>
      </trkpt>
      <trkpt lat="48.21201" lon="-0.16041">
        <ele>243.1</ele>
        <time>2016-06-20T10:49:56Z</time>
      </trkpt>
      <trkpt lat="48.21209" lon="-0.1605">
        <ele>239.7</ele>
        <time>2016-06-20T10:50:06Z</time>
      </trkpt>
      <trkpt lat="48.21216" lon="-0.16058">
        <ele>238.8</ele>
        <time>2016-06-20T10:50:13Z</time>
      </trkpt>
      <trkpt lat="48.21223" lon="-0.16068">
        <ele>239.4</ele>
        <time>2016-06-20T10:50:23Z</time>
      </trkpt>
      <trkpt lat="48.21229" lon="-0.16079">
        <ele>237.9</ele>
        <time>2016-06-20T10:50:36Z</time>
      </trkpt>
      <trkpt lat="48.21233" lon="-0.16092">
        <ele>236.9</ele>
        <time>2016-06-20T10:50:45Z</time>
      </trkpt>
      <trkpt lat="48.21234" lon="-0.16107">
        <ele>235.4</ele>
        <time>2016-06-20T10:50:55Z</time>
      </trkpt>
      <trkpt lat="48.21233" lon="-0.16121">
        <ele>234.7</ele>
        <time>2016-06-20T10:51:04Z</time>
      </trkpt>
      <trkpt lat="48.2123" lon="-0.16134">
        <ele>233.6</ele>
        <time>2016-06-20T10:51:13Z</time>
      </trkpt>
      <trkpt lat="48.21228" lon="-0.16148">
        <ele>232.4</ele>
        <time>2016-06-20T10:51:36Z</time>
      </trkpt>
      <trkpt lat="48.21227" lon="-0.16161">
        <ele>231.1</ele>
        <time>2016-06-20T10:51:45Z</time>
      </trkpt>
      <trkpt lat="48.21224" lon="-0.16175">
        <ele>230.1</ele>
        <time>2016-06-20T10:51:54Z</time>
      </trkpt>
      <trkpt lat="48.21222" lon="-0.16188">
        <ele>228.7</ele>
        <time>2016-06-20T10:52:03Z</time>
      </trkpt>
      <trkpt lat="48.21222" lon="-0.16202">
        <ele>227.6</ele>
        <time>2016-06-20T10:52:12Z</time>
      </trkpt>
      <trkpt lat="48.2122" lon="-0.16216">
        <ele>226.7</ele>
        <time>2016-06-20T10:52:20Z</time>
      </trkpt>
      <trkpt lat="48.21218" lon="-0.16229">
        <ele>225.7</ele>
        <time>2016-06-20T10:52:29Z</time>
      </trkpt>
      <trkpt lat="48.21217" lon="-0.16244">
        <ele>224</ele>
        <time>2016-06-20T10:52:41Z</time>
      </trkpt>
      <trkpt lat="48.21222" lon="-0.16256">
        <ele>222.8</ele>
        <time>2016-06-20T10:52:49Z</time>
      </trkpt>
      <trkpt lat="48.21227" lon="-0.16268">
        <ele>221.7</ele>
        <time>2016-06-20T10:52:58Z</time>
      </trkpt>
      <trkpt lat="48.21232" lon="-0.16278">
        <ele>220.9</ele>
        <time>2016-06-20T10:53:06Z</time>
      </trkpt>
      <trkpt lat="48.21239" lon="-0.16288">
        <ele>219.9</ele>
        <time>2016-06-20T10:53:15Z</time>
      </trkpt>
      <trkpt lat="48.21247" lon="-0.16296">
        <ele>218.2</ele>
        <time>2016-06-20T10:53:27Z</time>
      </trkpt>
      <trkpt lat="48.21255" lon="-0.16304">
        <ele>218</ele>
        <time>2016-06-20T10:53:38Z</time>
      </trkpt>
      <trkpt lat="48.21263" lon="-0.16314">
        <ele>217.4</ele>
        <time>2016-06-20T10:53:45Z</time>
      </trkpt>
      <trkpt lat="48.2127" lon="-0.16324">
        <ele>216.3</ele>
        <time>2016-06-20T10:53:55Z</time>
      </trkpt>
      <trkpt lat="48.21278" lon="-0.16333">
        <ele>215.6</ele>
        <time>2016-06-20T10:54:05Z</time>
      </trkpt>
      <trkpt lat="48.21286" lon="-0.16342">
        <ele>214.2</ele>
        <time>2016-06-20T10:54:14Z</time>
      </trkpt>
      <trkpt lat="48.21294" lon="-0.16352">
        <ele>213.4</ele>
        <time>2016-06-20T10:54:20Z</time>
      </trkpt>
      <trkpt lat="48.21301" lon="-0.16362">
        <ele>212.3</ele>
        <time>2016-06-20T10:54:28Z</time>
      </trkpt>
      <trkpt lat="48.21307" lon="-0.16373">
        <ele>211.1</ele>
        <time>2016-06-20T10:54:38Z</time>
      </trkpt>
      <trkpt lat="48.21315" lon="-0.16381">
        <ele>209.8</ele>
        <time>2016-06-20T10:55:36Z</time>
      </trkpt>
      <trkpt lat="48.21321" lon="-0.16392">
        <ele>208.5</ele>
        <time>2016-06-20T10:55:46Z</time>
      </trkpt>
      <trkpt lat="48.21328" lon="-0.16402">
        <ele>207.7</ele>
        <time>2016-06-20T10:55:55Z</time>
      </trkpt>
      <trkpt lat="48.21335" lon="-0.16412">
        <ele>206.5</ele>
        <time>2016-06-20T10:56:04Z</time>
      </trkpt>
      <trkpt lat="48.21341" lon="-0.16423">
        <ele>205.6</ele>
        <time>2016-06-20T10:56:13Z</time>
      </trkpt>
      <trkpt lat="48.21347" lon="-0.16434">
        <ele>204.3</ele>
        <time>2016-06-20T10:56:23Z</time>
      </trkpt>
      <trkpt lat="48.21353" lon="-0.16446">
        <ele>203.6</ele>
        <time>2016-06-20T10:56:32Z</time>
      </trkpt>
      <trkpt lat="48.21358" lon="-0.16457">
        <ele>202.5</ele>
        <time>2016-06-20T10:56:41Z</time>
      </trkpt>
      <trkpt lat="48.21362" lon="-0.16469">
        <ele>201.7</ele>
        <time>2016-06-20T10:56:49Z</time>
      </trkpt>
      <trkpt lat="48.21368" lon="-0.16481">
        <ele>200.7</ele>
        <time>2016-06-20T10:56:57Z</time>
      </trkpt>
      <trkpt lat="48.21373" lon="-0.16492">
        <ele>199.9</ele>
        <time>2016-06-20T10:57:05Z</time>
      </trkpt>
      <trkpt lat="48.21378" lon="-0.16504">
        <ele>199.2</ele>
        <time>2016-06-20T10:57:14Z</time>
      </trkpt>
      <trkpt lat="48.21384" lon="-0.16516">
        <ele>198.3</ele>
        <time>2016-06-20T10:57:22Z</time>
      </trkpt>
      <trkpt lat="48.2139" lon="-0.16527">
        <ele>197.4</ele>
        <time>2016-06-20T10:57:30Z</time>
      </trkpt>
      <trkpt lat="48.21396" lon="-0.16538">
        <ele>195.9</ele>
        <time>2016-06-20T10:57:39Z</time>
      </trkpt>
      <trkpt lat="48.21403" lon="-0.16549">
        <ele>195</ele>
        <time>2016-06-20T10:57:48Z</time>
      </trkpt>
      <trkpt lat="48.21411" lon="-0.16557">
        <ele>194.1</ele>
        <time>2016-06-20T10:57:56Z</time>
      </trkpt>
      <trkpt lat="48.21418" lon="-0.16565">
        <ele>193.7</ele>
        <time>2016-06-20T10:58:04Z</time>
      </trkpt>
      <trkpt lat="48.21427" lon="-0.16571">
        <ele>192.6</ele>
        <time>2016-06-20T10:58:12Z</time>
      </trkpt>
      <trkpt lat="48.21435" lon="-0.16577">
        <ele>192.2</ele>
        <time>2016-06-20T10:58:21Z</time>
      </trkpt>
      <trkpt lat="48.21444" lon="-0.16581">
        <ele>190.8</ele>
        <time>2016-06-20T10:58:30Z</time>
      </trkpt>
      <trkpt lat="48.21452" lon="-0.16587">
        <ele>190.5</ele>
        <time>2016-06-20T10:58:39Z</time>
      </trkpt>
      <trkpt lat="48.21461" lon="-0.16591">
        <ele>190</ele>
        <time>2016-06-20T10:58:48Z</time>
      </trkpt>
      <trkpt lat="48.2147" lon="-0.16597">
        <ele>189.6</ele>
        <time>2016-06-20T10:58:57Z</time>
      </trkpt>
      <trkpt lat="48.21479" lon="-0.16602">
        <ele>188.6</ele>
        <time>2016-06-20T10:59:07Z</time>
      </trkpt>
      <trkpt lat="48.21487" lon="-0.16607">
        <ele>188</ele>
        <time>2016-06-20T10:59:15Z</time>
      </trkpt>
      <trkpt lat="48.21496" lon="-0.16613">
        <ele>187.1</ele>
        <time>2016-06-20T10:59:24Z</time>
      </trkpt>
      <trkpt lat="48.21504" lon="-0.16621">
        <ele>186.7</ele>
        <time>2016-06-20T10:59:33Z</time>
      </trkpt>
      <trkpt lat="48.21511" lon="-0.16631">
        <ele>186.7</ele>
        <time>2016-06-20T10:59:41Z</time>
      </trkpt>
      <trkpt lat="48.21516" lon="-0.16644">
        <ele>186</ele>
        <time>2016-06-20T10:59:49Z</time>
      </trkpt>
      <trkpt lat="48.21518" lon="-0.16658">
        <ele>185</ele>
        <time>2016-06-20T10:59:58Z</time>
      </trkpt>
      <trkpt lat="48.21519" lon="-0.16672">
        <ele>185.2</ele>
        <time>2016-06-20T11:00:06Z</time>
      </trkpt>
      <trkpt lat="48.21519" lon="-0.16688">
        <ele>184.7</ele>
        <time>2016-06-20T11:00:15Z</time>
      </trkpt>
      <trkpt lat="48.2152" lon="-0.16703">
        <ele>184.4</ele>
        <time>2016-06-20T11:00:24Z</time>
      </trkpt>
      <trkpt lat="48.2152" lon="-0.16718">
        <ele>183.8</ele>
        <time>2016-06-20T11:00:32Z</time>
      </trkpt>
      <trkpt lat="48.21516" lon="-0.1673">
        <ele>183.8</ele>
        <time>2016-06-20T11:00:56Z</time>
      </trkpt>
      <trkpt lat="48.21509" lon="-0.16741">
        <ele>184.1</ele>
        <time>2016-06-20T11:01:05Z</time>
      </trkpt>
      <trkpt lat="48.21504" lon="-0.16752">
        <ele>184.6</ele>
        <time>2016-06-20T11:01:12Z</time>
      </trkpt>
      <trkpt lat="48.21498" lon="-0.16763">
        <ele>185.1</ele>
        <time>2016-06-20T11:01:21Z</time>
      </trkpt>
      <trkpt lat="48.21492" lon="-0.16776">
        <ele>185.8</ele>
        <time>2016-06-20T11:01:29Z</time>
      </trkpt>
      <trkpt lat="48.21486" lon="-0.16788">
        <ele>186.3</ele>
        <time>2016-06-20T11:01:38Z</time>
      </trkpt>
      <trkpt lat="48.2148" lon="-0.16801">
        <ele>187.1</ele>
        <time>2016-06-20T11:01:46Z</time>
      </trkpt>
      <trkpt lat="48.21473" lon="-0.16812">
        <ele>187.7</ele>
        <time>2016-06-20T11:01:56Z</time>
      </trkpt>
      <trkpt lat="48.21465" lon="-0.16823">
        <ele>188</ele>
        <time>2016-06-20T11:02:07Z</time>
      </trkpt>
      <trkpt lat="48.2146" lon="-0.16835">
        <ele>188.7</ele>
        <time>2016-06-20T11:02:19Z</time>
      </trkpt>
      <trkpt lat="48.21455" lon="-0.16847">
        <ele>189.4</ele>
        <time>2016-06-20T11:02:28Z</time>
      </trkpt>
      <trkpt lat="48.2145" lon="-0.16858">
        <ele>190.1</ele>
        <time>2016-06-20T11:02:39Z</time>
      </trkpt>
      <trkpt lat="48.21445" lon="-0.1687">
        <ele>190.5</ele>
        <time>2016-06-20T11:02:48Z</time>
      </trkpt>
      <trkpt lat="48.21439" lon="-0.16882">
        <ele>191.3</ele>
        <time>2016-06-20T11:02:58Z</time>
      </trkpt>
      <trkpt lat="48.21433" lon="-0.16894">
        <ele>191.3</ele>
        <time>2016-06-20T11:03:07Z</time>
      </trkpt>
      <trkpt lat="48.21427" lon="-0.16904">
        <ele>191.5</ele>
        <time>2016-06-20T11:03:15Z</time>
      </trkpt>
      <trkpt lat="48.21421" lon="-0.16914">
        <ele>192</ele>
        <time>2016-06-20T11:03:24Z</time>
      </trkpt>
      <trkpt lat="48.21415" lon="-0.16925">
        <ele>192</ele>
        <time>2016-06-20T11:03:33Z</time>
      </trkpt>
      <trkpt lat="48.21409" lon="-0.16937">
        <ele>192.1</ele>
        <time>2016-06-20T11:03:41Z</time>
      </trkpt>
      <trkpt lat="48.21404" lon="-0.16948">
        <ele>192.3</ele>
        <time>2016-06-20T11:03:49Z</time>
      </trkpt>
      <trkpt lat="48.214" lon="-0.16961">
        <ele>192.9</ele>
        <time>2016-06-20T11:03:59Z</time>
      </trkpt>
      <trkpt lat="48.21394" lon="-0.16971">
        <ele>192.6</ele>
        <time>2016-06-20T11:04:06Z</time>
      </trkpt>
      <trkpt lat="48.21387" lon="-0.16982">
        <ele>192.4</ele>
        <time>2016-06-20T11:04:15Z</time>
      </trkpt>
      <trkpt lat="48.21381" lon="-0.16992">
        <ele>192.6</ele>
        <time>2016-06-20T11:04:23Z</time>
      </trkpt>
      <trkpt lat="48.21376" lon="-0.17005">
        <ele>192.9</ele>
        <time>2016-06-20T11:04:31Z</time>
      </trkpt>
      <trkpt lat="48.2137" lon="-0.17017">
        <ele>193.1</ele>
        <time>2016-06-20T11:04:40Z</time>
      </trkpt>
      <trkpt lat="48.21364" lon="-0.17028">
        <ele>193.3</ele>
        <time>2016-06-20T11:04:48Z</time>
      </trkpt>
      <trkpt lat="48.21359" lon="-0.17041">
        <ele>192.4</ele>
        <time>2016-06-20T11:05:40Z</time>
      </trkpt>
      <trkpt lat="48.21354" lon="-0.17053">
        <ele>192.7</ele>
        <time>2016-06-20T11:05:50Z</time>
      </trkpt>
      <trkpt lat="48.21348" lon="-0.17062">
        <ele>192.6</ele>
        <time>2016-06-20T11:05:59Z</time>
      </trkpt>
      <trkpt lat="48.21342" lon="-0.17074">
        <ele>192.2</ele>
        <time>2016-06-20T11:06:06Z</time>
      </trkpt>
      <trkpt lat="48.21336" lon="-0.17085">
        <ele>191.9</ele>
        <time>2016-06-20T11:06:15Z</time>
      </trkpt>
      <trkpt lat="48.21329" lon="-0.17096">
        <ele>191.9</ele>
        <time>2016-06-20T11:06:24Z</time>
      </trkpt>
      <trkpt lat="48.21323" lon="-0.17107">
        <ele>192.1</ele>
        <time>2016-06-20T11:06:32Z</time>
      </trkpt>
      <trkpt lat="48.21318" lon="-0.17119">
        <ele>191.8</ele>
        <time>2016-06-20T11:06:40Z</time>
      </trkpt>
      <trkpt lat="48.21312" lon="-0.17129">
        <ele>191.5</ele>
        <time>2016-06-20T11:06:49Z</time>
      </trkpt>
      <trkpt lat="48.21306" lon="-0.17142">
        <ele>191.2</ele>
        <time>2016-06-20T11:06:58Z</time>
      </trkpt>
      <trkpt lat="48.21302" lon="-0.17155">
        <ele>190.9</ele>
        <time>2016-06-20T11:07:06Z</time>
      </trkpt>
      <trkpt lat="48.21297" lon="-0.17166">
        <ele>190</ele>
        <time>2016-06-20T11:07:15Z</time>
      </trkpt>
      <trkpt lat="48.21291" lon="-0.17176">
        <ele>189.3</ele>
        <time>2016-06-20T11:07:24Z</time>
      </trkpt>
      <trkpt lat="48.21286" lon="-0.17188">
        <ele>188.8</ele>
        <time>2016-06-20T11:07:32Z</time>
      </trkpt>
      <trkpt lat="48.2128" lon="-0.172">
        <ele>187.9</ele>
        <time>2016-06-20T11:07:40Z</time>
      </trkpt>
      <trkpt lat="48.21274" lon="-0.17212">
        <ele>187.4</ele>
        <time>2016-06-20T11:07:49Z</time>
      </trkpt>
      <trkpt lat="48.21268" lon="-0.17225">
        <ele>187.4</ele>
        <time>2016-06-20T11:07:57Z</time>
      </trkpt>
      <trkpt lat="48.21263" lon="-0.17236">
        <ele>187</ele>
        <time>2016-06-20T11:08:05Z</time>
      </trkpt>
      <trkpt lat="48.21256" lon="-0.17247">
        <ele>184</ele>
        <time>2016-06-20T11:08:20Z</time>
      </trkpt>
      <trkpt lat="48.2125" lon="-0.17259">
        <ele>184.1</ele>
        <time>2016-06-20T11:08:53Z</time>
      </trkpt>
      <trkpt lat="48.21245" lon="-0.17272">
        <ele>183.6</ele>
        <time>2016-06-20T11:09:00Z</time>
      </trkpt>
      <trkpt lat="48.2124" lon="-0.17284">
        <ele>183.3</ele>
        <time>2016-06-20T11:09:08Z</time>
      </trkpt>
      <trkpt lat="48.21233" lon="-0.17295">
        <ele>183.5</ele>
        <time>2016-06-20T11:09:16Z</time>
      </trkpt>
      <trkpt lat="48.21227" lon="-0.17306">
        <ele>184.1</ele>
        <time>2016-06-20T11:09:24Z</time>
      </trkpt>
      <trkpt lat="48.21222" lon="-0.17319">
        <ele>182.9</ele>
        <time>2016-06-20T11:09:32Z</time>
      </trkpt>
      <trkpt lat="48.21216" lon="-0.1733">
        <ele>182.8</ele>
        <time>2016-06-20T11:09:40Z</time>
      </trkpt>
      <trkpt lat="48.2121" lon="-0.17342">
        <ele>182.1</ele>
        <time>2016-06-20T11:09:48Z</time>
      </trkpt>
      <trkpt lat="48.21204" lon="-0.17355">
        <ele>181.7</ele>
        <time>2016-06-20T11:09:57Z</time>
      </trkpt>
      <trkpt lat="48.21199" lon="-0.17367">
        <ele>181.8</ele>
        <time>2016-06-20T11:10:06Z</time>
      </trkpt>
      <trkpt lat="48.21193" lon="-0.17379">
        <ele>181</ele>
        <time>2016-06-20T11:10:13Z</time>
      </trkpt>
      <trkpt lat="48.21187" lon="-0.17389">
        <ele>180.9</ele>
        <time>2016-06-20T11:10:22Z</time>
      </trkpt>
      <trkpt lat="48.21181" lon="-0.174">
        <ele>180.6</ele>
        <time>2016-06-20T11:10:30Z</time>
      </trkpt>
      <trkpt lat="48.21175" lon="-0.17411">
        <ele>179.8</ele>
        <time>2016-06-20T11:10:39Z</time>
      </trkpt>
      <trkpt lat="48.21169" lon="-0.17422">
        <ele>179.1</ele>
        <time>2016-06-20T11:10:47Z</time>
      </trkpt>
      <trkpt lat="48.21163" lon="-0.17434">
        <ele>179</ele>
        <time>2016-06-20T11:10:55Z</time>
      </trkpt>
      <trkpt lat="48.21158" lon="-0.17445">
        <ele>177.9</ele>
        <time>2016-06-20T11:11:03Z</time>
      </trkpt>
      <trkpt lat="48.21152" lon="-0.17457">
        <ele>177.9</ele>
        <time>2016-06-20T11:11:12Z</time>
      </trkpt>
      <trkpt lat="48.21146" lon="-0.17468">
        <ele>177.1</ele>
        <time>2016-06-20T11:11:19Z</time>
      </trkpt>
      <trkpt lat="48.21141" lon="-0.1748">
        <ele>176.8</ele>
        <time>2016-06-20T11:11:26Z</time>
      </trkpt>
      <trkpt lat="48.21136" lon="-0.17492">
        <ele>176.6</ele>
        <time>2016-06-20T11:11:34Z</time>
      </trkpt>
      <trkpt lat="48.21131" lon="-0.17504">
        <ele>176.4</ele>
        <time>2016-06-20T11:11:42Z</time>
      </trkpt>
      <trkpt lat="48.21125" lon="-0.17516">
        <ele>175.2</ele>
        <time>2016-06-20T11:11:52Z</time>
      </trkpt>
      <trkpt lat="48.21119" lon="-0.17527">
        <ele>174.4</ele>
        <time>2016-06-20T11:12:00Z</time>
      </trkpt>
      <trkpt lat="48.21113" lon="-0.17537">
        <ele>174.5</ele>
        <time>2016-06-20T11:12:08Z</time>
      </trkpt>
      <trkpt lat="48.21108" lon="-0.17549">
        <ele>174.3</ele>
        <time>2016-06-20T11:12:16Z</time>
      </trkpt>
      <trkpt lat="48.21102" lon="-0.17561">
        <ele>174.6</ele>
        <time>2016-06-20T11:12:23Z</time>
      </trkpt>
      <trkpt lat="48.21096" lon="-0.17572">
        <ele>174</ele>
        <time>2016-06-20T11:12:31Z</time>
      </trkpt>
      <trkpt lat="48.2109" lon="-0.17584">
        <ele>173.6</ele>
        <time>2016-06-20T11:12:39Z</time>
      </trkpt>
      <trkpt lat="48.21084" lon="-0.17595">
        <ele>173</ele>
        <time>2016-06-20T11:12:48Z</time>
      </trkpt>
      <trkpt lat="48.21078" lon="-0.17607">
        <ele>173.6</ele>
        <time>2016-06-20T11:12:56Z</time>
      </trkpt>
      <trkpt lat="48.21071" lon="-0.17618">
        <ele>172.2</ele>
        <time>2016-06-20T11:13:05Z</time>
      </trkpt>
      <trkpt lat="48.21065" lon="-0.1763">
        <ele>172.1</ele>
        <time>2016-06-20T11:13:14Z</time>
      </trkpt>
      <trkpt lat="48.21058" lon="-0.1764">
        <ele>171.2</ele>
        <time>2016-06-20T11:13:22Z</time>
      </trkpt>
      <trkpt lat="48.21051" lon="-0.1765">
        <ele>171.2</ele>
        <time>2016-06-20T11:13:30Z</time>
      </trkpt>
      <trkpt lat="48.21045" lon="-0.1766">
        <ele>170</ele>
        <time>2016-06-20T11:13:38Z</time>
      </trkpt>
      <trkpt lat="48.21037" lon="-0.17669">
        <ele>169.8</ele>
        <time>2016-06-20T11:13:46Z</time>
      </trkpt>
      <trkpt lat="48.2103" lon="-0.17679">
        <ele>169.6</ele>
        <time>2016-06-20T11:13:54Z</time>
      </trkpt>
      <trkpt lat="48.21023" lon="-0.1769">
        <ele>169.1</ele>
        <time>2016-06-20T11:14:02Z</time>
      </trkpt>
      <trkpt lat="48.21016" lon="-0.17698">
        <ele>169.2</ele>
        <time>2016-06-20T11:14:10Z</time>
      </trkpt>
      <trkpt lat="48.21009" lon="-0.17708">
        <ele>168.8</ele>
        <time>2016-06-20T11:14:18Z</time>
      </trkpt>
      <trkpt lat="48.21001" lon="-0.17717">
        <ele>167.9</ele>
        <time>2016-06-20T11:14:26Z</time>
      </trkpt>
      <trkpt lat="48.20996" lon="-0.17729">
        <ele>167.7</ele>
        <time>2016-06-20T11:14:34Z</time>
      </trkpt>
      <trkpt lat="48.21002" lon="-0.17741">
        <ele>167.1</ele>
        <time>2016-06-20T11:14:59Z</time>
      </trkpt>
      <trkpt lat="48.21008" lon="-0.17752">
        <ele>166.8</ele>
        <time>2016-06-20T11:15:06Z</time>
      </trkpt>
      <trkpt lat="48.21015" lon="-0.17761">
        <ele>166.7</ele>
        <time>2016-06-20T11:15:14Z</time>
      </trkpt>
      <trkpt lat="48.21021" lon="-0.17772">
        <ele>166.4</ele>
        <time>2016-06-20T11:15:22Z</time>
      </trkpt>
      <trkpt lat="48.21027" lon="-0.17783">
        <ele>166</ele>
        <time>2016-06-20T11:15:31Z</time>
      </trkpt>
      <trkpt lat="48.21034" lon="-0.17793">
        <ele>164.7</ele>
        <time>2016-06-20T11:15:38Z</time>
      </trkpt>
      <trkpt lat="48.21041" lon="-0.17802">
        <ele>165.6</ele>
        <time>2016-06-20T11:15:48Z</time>
      </trkpt>
      <trkpt lat="48.21046" lon="-0.17813">
        <ele>164.7</ele>
        <time>2016-06-20T11:16:34Z</time>
      </trkpt>
      <trkpt lat="48.21054" lon="-0.17821">
        <ele>164.7</ele>
        <time>2016-06-20T11:16:40Z</time>
      </trkpt>
      <trkpt lat="48.21061" lon="-0.17831">
        <ele>163.9</ele>
        <time>2016-06-20T11:16:48Z</time>
      </trkpt>
      <trkpt lat="48.21068" lon="-0.17841">
        <ele>163.2</ele>
        <time>2016-06-20T11:16:56Z</time>
      </trkpt>
      <trkpt lat="48.21075" lon="-0.17852">
        <ele>163</ele>
        <time>2016-06-20T11:17:05Z</time>
      </trkpt>
      <trkpt lat="48.21083" lon="-0.17861">
        <ele>162.6</ele>
        <time>2016-06-20T11:17:12Z</time>
      </trkpt>
      <trkpt lat="48.21091" lon="-0.1787">
        <ele>161.9</ele>
        <time>2016-06-20T11:17:23Z</time>
      </trkpt>
      <trkpt lat="48.21098" lon="-0.1788">
        <ele>161.5</ele>
        <time>2016-06-20T11:17:29Z</time>
      </trkpt>
      <trkpt lat="48.21104" lon="-0.17892">
        <ele>161.2</ele>
        <time>2016-06-20T11:17:37Z</time>
      </trkpt>
      <trkpt lat="48.2111" lon="-0.17902">
        <ele>160.5</ele>
        <time>2016-06-20T11:17:45Z</time>
      </trkpt>
      <trkpt lat="48.21116" lon="-0.17913">
        <ele>159.2</ele>
        <time>2016-06-20T11:17:54Z</time>
      </trkpt>
      <trkpt lat="48.21122" lon="-0.17923">
        <ele>158.8</ele>
        <time>2016-06-20T11:18:21Z</time>
      </trkpt>
      <trkpt lat="48.21129" lon="-0.17932">
        <ele>158</ele>
        <time>2016-06-20T11:18:29Z</time>
      </trkpt>
      <trkpt lat="48.21137" lon="-0.17941">
        <ele>156.9</ele>
        <time>2016-06-20T11:18:38Z</time>
      </trkpt>
      <trkpt lat="48.21144" lon="-0.17951">
        <ele>155.7</ele>
        <time>2016-06-20T11:18:46Z</time>
      </trkpt>
      <trkpt lat="48.2115" lon="-0.17961">
        <ele>155.3</ele>
        <time>2016-06-20T11:18:54Z</time>
      </trkpt>
      <trkpt lat="48.21158" lon="-0.17971">
        <ele>155.2</ele>
        <time>2016-06-20T11:19:03Z</time>
      </trkpt>
      <trkpt lat="48.21164" lon="-0.17981">
        <ele>153.9</ele>
        <time>2016-06-20T11:19:12Z</time>
      </trkpt>
      <trkpt lat="48.21171" lon="-0.17992">
        <ele>152.9</ele>
        <time>2016-06-20T11:19:20Z</time>
      </trkpt>
      <trkpt lat="48.21177" lon="-0.18003">
        <ele>152.1</ele>
        <time>2016-06-20T11:19:30Z</time>
      </trkpt>
      <trkpt lat="48.21185" lon="-0.18013">
        <ele>151.6</ele>
        <time>2016-06-20T11:19:39Z</time>
      </trkpt>
      <trkpt lat="48.21191" lon="-0.18023">
        <ele>150</ele>
        <time>2016-06-20T11:19:49Z</time>
      </trkpt>
      <trkpt lat="48.21198" lon="-0.18033">
        <ele>149.5</ele>
        <time>2016-06-20T11:19:57Z</time>
      </trkpt>
      <trkpt lat="48.21205" lon="-0.18043">
        <ele>149.5</ele>
        <time>2016-06-20T11:20:07Z</time>
      </trkpt>
      <trkpt lat="48.21212" lon="-0.18054">
        <ele>148.7</ele>
        <time>2016-06-20T11:20:16Z</time>
      </trkpt>
      <trkpt lat="48.21218" lon="-0.18064">
        <ele>147.5</ele>
        <time>2016-06-20T11:20:24Z</time>
      </trkpt>
      <trkpt lat="48.21224" lon="-0.18075">
        <ele>147.4</ele>
        <time>2016-06-20T11:20:33Z</time>
      </trkpt>
      <trkpt lat="48.21231" lon="-0.18085">
        <ele>146.9</ele>
        <time>2016-06-20T11:20:42Z</time>
      </trkpt>
      <trkpt lat="48.21238" lon="-0.18095">
        <ele>146.4</ele>
        <time>2016-06-20T11:20:51Z</time>
      </trkpt>
      <trkpt lat="48.21244" lon="-0.18106">
        <ele>146.5</ele>
        <time>2016-06-20T11:21:02Z</time>
      </trkpt>
      <trkpt lat="48.21251" lon="-0.18115">
        <ele>146.8</ele>
        <time>2016-06-20T11:21:09Z</time>
      </trkpt>
      <trkpt lat="48.2126" lon="-0.18122">
        <ele>147.6</ele>
        <time>2016-06-20T11:21:22Z</time>
      </trkpt>
      <trkpt lat="48.21265" lon="-0.18133">
        <ele>147.3</ele>
        <time>2016-06-20T11:21:31Z</time>
      </trkpt>
      <trkpt lat="48.2127" lon="-0.18146">
        <ele>147.6</ele>
        <time>2016-06-20T11:21:39Z</time>
      </trkpt>
      <trkpt lat="48.21274" lon="-0.18159">
        <ele>146.6</ele>
        <time>2016-06-20T11:21:48Z</time>
      </trkpt>
      <trkpt lat="48.21279" lon="-0.18171">
        <ele>146.2</ele>
        <time>2016-06-20T11:22:00Z</time>
      </trkpt>
      <trkpt lat="48.21284" lon="-0.18185">
        <ele>145.9</ele>
        <time>2016-06-20T11:22:08Z</time>
      </trkpt>
      <trkpt lat="48.21288" lon="-0.18197">
        <ele>146</ele>
        <time>2016-06-20T11:22:16Z</time>
      </trkpt>
      <trkpt lat="48.21291" lon="-0.18212">
        <ele>146.4</ele>
        <time>2016-06-20T11:22:24Z</time>
      </trkpt>
      <trkpt lat="48.21296" lon="-0.18226">
        <ele>146.8</ele>
        <time>2016-06-20T11:22:32Z</time>
      </trkpt>
      <trkpt lat="48.21301" lon="-0.1824">
        <ele>146.5</ele>
        <time>2016-06-20T11:22:40Z</time>
      </trkpt>
      <trkpt lat="48.21306" lon="-0.18251">
        <ele>146.4</ele>
        <time>2016-06-20T11:22:48Z</time>
      </trkpt>
      <trkpt lat="48.21311" lon="-0.18264">
        <ele>146.2</ele>
        <time>2016-06-20T11:22:57Z</time>
      </trkpt>
      <trkpt lat="48.21315" lon="-0.18277">
        <ele>146.5</ele>
        <time>2016-06-20T11:23:06Z</time>
      </trkpt>
      <trkpt lat="48.21319" lon="-0.18289">
        <ele>146.5</ele>
        <time>2016-06-20T11:23:13Z</time>
      </trkpt>
      <trkpt lat="48.21323" lon="-0.18301">
        <ele>146.5</ele>
        <time>2016-06-20T11:23:21Z</time>
      </trkpt>
      <trkpt lat="48.21327" lon="-0.18313">
        <ele>146.5</ele>
        <time>2016-06-20T11:23:28Z</time>
      </trkpt>
      <trkpt lat="48.21331" lon="-0.18325">
        <ele>146.2</ele>
        <time>2016-06-20T11:23:36Z</time>
      </trkpt>
      <trkpt lat="48.21336" lon="-0.18337">
        <ele>146.4</ele>
        <time>2016-06-20T11:23:44Z</time>
      </trkpt>
      <trkpt lat="48.21342" lon="-0.18349">
        <ele>145.5</ele>
        <time>2016-06-20T11:23:52Z</time>
      </trkpt>
      <trkpt lat="48.21348" lon="-0.18361">
        <ele>145.7</ele>
        <time>2016-06-20T11:24:00Z</time>
      </trkpt>
      <trkpt lat="48.21352" lon="-0.18375">
        <ele>146.9</ele>
        <time>2016-06-20T11:24:10Z</time>
      </trkpt>
      <trkpt lat="48.21357" lon="-0.18386">
        <ele>146.6</ele>
        <time>2016-06-20T11:24:18Z</time>
      </trkpt>
      <trkpt lat="48.21361" lon="-0.18398">
        <ele>146</ele>
        <time>2016-06-20T11:24:26Z</time>
      </trkpt>
      <trkpt lat="48.21365" lon="-0.18412">
        <ele>145.9</ele>
        <time>2016-06-20T11:24:35Z</time>
      </trkpt>
      <trkpt lat="48.21369" lon="-0.18426">
        <ele>146.7</ele>
        <time>2016-06-20T11:24:42Z</time>
      </trkpt>
      <trkpt lat="48.21374" lon="-0.18439">
        <ele>145.7</ele>
        <time>2016-06-20T11:24:51Z</time>
      </trkpt>
      <trkpt lat="48.21379" lon="-0.18452">
        <ele>145.5</ele>
        <time>2016-06-20T11:24:59Z</time>
      </trkpt>
      <trkpt lat="48.21383" lon="-0.18465">
        <ele>146.1</ele>
        <time>2016-06-20T11:25:08Z</time>
      </trkpt>
      <trkpt lat="48.21387" lon="-0.18478">
        <ele>146.3</ele>
        <time>2016-06-20T11:25:16Z</time>
      </trkpt>
      <trkpt lat="48.21391" lon="-0.18491">
        <ele>145.5</ele>
        <time>2016-06-20T11:25:25Z</time>
      </trkpt>
      <trkpt lat="48.21396" lon="-0.18504">
        <ele>145.5</ele>
        <time>2016-06-20T11:25:33Z</time>
      </trkpt>
      <trkpt lat="48.21401" lon="-0.18516">
        <ele>145.9</ele>
        <time>2016-06-20T11:25:41Z</time>
      </trkpt>
      <trkpt lat="48.21404" lon="-0.18529">
        <ele>145.9</ele>
        <time>2016-06-20T11:25:50Z</time>
      </trkpt>
      <trkpt lat="48.2141" lon="-0.1854">
        <ele>146.1</ele>
        <time>2016-06-20T11:25:57Z</time>
      </trkpt>
      <trkpt lat="48.21416" lon="-0.18551">
        <ele>146.1</ele>
        <time>2016-06-20T11:26:06Z</time>
      </trkpt>
      <trkpt lat="48.2142" lon="-0.18565">
        <ele>146</ele>
        <time>2016-06-20T11:26:14Z</time>
      </trkpt>
      <trkpt lat="48.21424" lon="-0.18578">
        <ele>145</ele>
        <time>2016-06-20T11:26:21Z</time>
      </trkpt>
      <trkpt lat="48.21429" lon="-0.18591">
        <ele>145</ele>
        <time>2016-06-20T11:26:31Z</time>
      </trkpt>
      <trkpt lat="48.21434" lon="-0.18602">
        <ele>144.5</ele>
        <time>2016-06-20T11:26:40Z</time>
      </trkpt>
      <trkpt lat="48.2144" lon="-0.18612">
        <ele>144.4</ele>
        <time>2016-06-20T11:26:48Z</time>
      </trkpt>
      <trkpt lat="48.21442" lon="-0.18626">
        <ele>144.6</ele>
        <time>2016-06-20T11:26:55Z</time>
      </trkpt>
      <trkpt lat="48.21447" lon="-0.18638">
        <ele>144.3</ele>
        <time>2016-06-20T11:27:03Z</time>
      </trkpt>
      <trkpt lat="48.21451" lon="-0.18651">
        <ele>144.1</ele>
        <time>2016-06-20T11:27:13Z</time>
      </trkpt>
      <trkpt lat="48.21455" lon="-0.18664">
        <ele>144.5</ele>
        <time>2016-06-20T11:27:22Z</time>
      </trkpt>
      <trkpt lat="48.21459" lon="-0.18678">
        <ele>144.7</ele>
        <time>2016-06-20T11:27:31Z</time>
      </trkpt>
      <trkpt lat="48.21463" lon="-0.18691">
        <ele>144.5</ele>
        <time>2016-06-20T11:27:38Z</time>
      </trkpt>
      <trkpt lat="48.21468" lon="-0.18704">
        <ele>144.5</ele>
        <time>2016-06-20T11:27:46Z</time>
      </trkpt>
      <trkpt lat="48.21473" lon="-0.18716">
        <ele>144.4</ele>
        <time>2016-06-20T11:27:55Z</time>
      </trkpt>
      <trkpt lat="48.21478" lon="-0.18728">
        <ele>144.2</ele>
        <time>2016-06-20T11:28:04Z</time>
      </trkpt>
      <trkpt lat="48.21482" lon="-0.18741">
        <ele>144.1</ele>
        <time>2016-06-20T11:28:12Z</time>
      </trkpt>
      <trkpt lat="48.21485" lon="-0.18755">
        <ele>144.4</ele>
        <time>2016-06-20T11:28:21Z</time>
      </trkpt>
      <trkpt lat="48.2149" lon="-0.18767">
        <ele>144.8</ele>
        <time>2016-06-20T11:28:31Z</time>
      </trkpt>
      <trkpt lat="48.21494" lon="-0.1878">
        <ele>144.8</ele>
        <time>2016-06-20T11:28:42Z</time>
      </trkpt>
      <trkpt lat="48.21498" lon="-0.18792">
        <ele>145.1</ele>
        <time>2016-06-20T11:28:53Z</time>
      </trkpt>
      <trkpt lat="48.21503" lon="-0.18805">
        <ele>145.2</ele>
        <time>2016-06-20T11:29:03Z</time>
      </trkpt>
      <trkpt lat="48.21507" lon="-0.18818">
        <ele>144.9</ele>
        <time>2016-06-20T11:29:14Z</time>
      </trkpt>
      <trkpt lat="48.21512" lon="-0.18831">
        <ele>145.4</ele>
        <time>2016-06-20T11:29:24Z</time>
      </trkpt>
      <trkpt lat="48.21517" lon="-0.18844">
        <ele>145.2</ele>
        <time>2016-06-20T11:29:33Z</time>
      </trkpt>
      <trkpt lat="48.21521" lon="-0.18856">
        <ele>145.5</ele>
        <time>2016-06-20T11:29:42Z</time>
      </trkpt>
      <trkpt lat="48.21526" lon="-0.18869">
        <ele>145.4</ele>
        <time>2016-06-20T11:29:51Z</time>
      </trkpt>
      <trkpt lat="48.21531" lon="-0.18882">
        <ele>144.9</ele>
        <time>2016-06-20T11:30:00Z</time>
      </trkpt>
      <trkpt lat="48.21533" lon="-0.18896">
        <ele>145.1</ele>
        <time>2016-06-20T11:30:26Z</time>
      </trkpt>
      <trkpt lat="48.21528" lon="-0.18908">
        <ele>144.6</ele>
        <time>2016-06-20T11:30:35Z</time>
      </trkpt>
      <trkpt lat="48.21521" lon="-0.18916">
        <ele>145.4</ele>
        <time>2016-06-20T11:30:43Z</time>
      </trkpt>
      <trkpt lat="48.21513" lon="-0.18923">
        <ele>145</ele>
        <time>2016-06-20T11:30:51Z</time>
      </trkpt>
      <trkpt lat="48.21506" lon="-0.18931">
        <ele>144.5</ele>
        <time>2016-06-20T11:31:00Z</time>
      </trkpt>
      <trkpt lat="48.215" lon="-0.18943">
        <ele>145.1</ele>
        <time>2016-06-20T11:31:09Z</time>
      </trkpt>
      <trkpt lat="48.21496" lon="-0.18956">
        <ele>144.7</ele>
        <time>2016-06-20T11:31:17Z</time>
      </trkpt>
      <trkpt lat="48.21493" lon="-0.1897">
        <ele>144.7</ele>
        <time>2016-06-20T11:31:25Z</time>
      </trkpt>
      <trkpt lat="48.21492" lon="-0.18983">
        <ele>144.7</ele>
        <time>2016-06-20T11:31:33Z</time>
      </trkpt>
      <trkpt lat="48.21488" lon="-0.18998">
        <ele>145.3</ele>
        <time>2016-06-20T11:31:42Z</time>
      </trkpt>
      <trkpt lat="48.21485" lon="-0.19011">
        <ele>145.6</ele>
        <time>2016-06-20T11:31:50Z</time>
      </trkpt>
      <trkpt lat="48.2148" lon="-0.19025">
        <ele>144.8</ele>
        <time>2016-06-20T11:31:59Z</time>
      </trkpt>
      <trkpt lat="48.21475" lon="-0.19037">
        <ele>145</ele>
        <time>2016-06-20T11:32:06Z</time>
      </trkpt>
      <trkpt lat="48.21471" lon="-0.1905">
        <ele>144.6</ele>
        <time>2016-06-20T11:32:14Z</time>
      </trkpt>
      <trkpt lat="48.21466" lon="-0.19061">
        <ele>144.9</ele>
        <time>2016-06-20T11:32:21Z</time>
      </trkpt>
      <trkpt lat="48.21461" lon="-0.19073">
        <ele>144.3</ele>
        <time>2016-06-20T11:32:30Z</time>
      </trkpt>
      <trkpt lat="48.21454" lon="-0.19084">
        <ele>143.9</ele>
        <time>2016-06-20T11:33:09Z</time>
      </trkpt>
      <trkpt lat="48.21449" lon="-0.19097">
        <ele>144.3</ele>
        <time>2016-06-20T11:33:17Z</time>
      </trkpt>
      <trkpt lat="48.21445" lon="-0.1911">
        <ele>143.2</ele>
        <time>2016-06-20T11:33:25Z</time>
      </trkpt>
      <trkpt lat="48.21442" lon="-0.19124">
        <ele>143.5</ele>
        <time>2016-06-20T11:33:33Z</time>
      </trkpt>
      <trkpt lat="48.21438" lon="-0.19138">
        <ele>143.6</ele>
        <time>2016-06-20T11:33:42Z</time>
      </trkpt>
      <trkpt lat="48.21435" lon="-0.19152">
        <ele>144.5</ele>
        <time>2016-06-20T11:33:51Z</time>
      </trkpt>
      <trkpt lat="48.21433" lon="-0.19165">
        <ele>144.3</ele>
        <time>2016-06-20T11:33:59Z</time>
      </trkpt>
      <trkpt lat="48.2143" lon="-0.19179">
        <ele>143.9</ele>
        <time>2016-06-20T11:34:07Z</time>
      </trkpt>
      <trkpt lat="48.21427" lon="-0.19193">
        <ele>143.8</ele>
        <time>2016-06-20T11:34:16Z</time>
      </trkpt>
      <trkpt lat="48.21423" lon="-0.19208">
        <ele>144</ele>
        <time>2016-06-20T11:34:24Z</time>
      </trkpt>
      <trkpt lat="48.2142" lon="-0.19221">
        <ele>144.2</ele>
        <time>2016-06-20T11:34:32Z</time>
      </trkpt>
      <trkpt lat="48.21417" lon="-0.19235">
        <ele>144.7</ele>
        <time>2016-06-20T11:34:40Z</time>
      </trkpt>
      <trkpt lat="48.21415" lon="-0.19249">
        <ele>144.8</ele>
        <time>2016-06-20T11:34:47Z</time>
      </trkpt>
      <trkpt lat="48.21412" lon="-0.19262">
        <ele>144.4</ele>
        <time>2016-06-20T11:34:56Z</time>
      </trkpt>
      <trkpt lat="48.21408" lon="-0.19275">
        <ele>145.3</ele>
        <time>2016-06-20T11:35:04Z</time>
      </trkpt>
      <trkpt lat="48.21405" lon="-0.19289">
        <ele>145.4</ele>
        <time>2016-06-20T11:35:11Z</time>
      </trkpt>
      <trkpt lat="48.21402" lon="-0.19301">
        <ele>145.7</ele>
        <time>2016-06-20T11:35:19Z</time>
      </trkpt>
      <trkpt lat="48.21397" lon="-0.19313">
        <ele>146.2</ele>
        <time>2016-06-20T11:35:29Z</time>
      </trkpt>
      <trkpt lat="48.21392" lon="-0.19326">
        <ele>145.8</ele>
        <time>2016-06-20T11:35:38Z</time>
      </trkpt>
      <trkpt lat="48.21388" lon="-0.1934">
        <ele>145.6</ele>
        <time>2016-06-20T11:35:46Z</time>
      </trkpt>
      <trkpt lat="48.21384" lon="-0.19352">
        <ele>145.5</ele>
        <time>2016-06-20T11:35:54Z</time>
      </trkpt>
      <trkpt lat="48.2138" lon="-0.19364">
        <ele>146.1</ele>
        <time>2016-06-20T11:36:02Z</time>
      </trkpt>
      <trkpt lat="48.21375" lon="-0.19376">
        <ele>145.3</ele>
        <time>2016-06-20T11:36:10Z</time>
      </trkpt>
      <trkpt lat="48.21371" lon="-0.1939">
        <ele>145.6</ele>
        <time>2016-06-20T11:36:18Z</time>
      </trkpt>
      <trkpt lat="48.21366" lon="-0.19402">
        <ele>145.4</ele>
        <time>2016-06-20T11:36:26Z</time>
      </trkpt>
      <trkpt lat="48.21359" lon="-0.19413">
        <ele>146.1</ele>
        <time>2016-06-20T11:36:34Z</time>
      </trkpt>
      <trkpt lat="48.21354" lon="-0.19424">
        <ele>145.8</ele>
        <time>2016-06-20T11:36:42Z</time>
      </trkpt>
      <trkpt lat="48.21348" lon="-0.19436">
        <ele>145.8</ele>
        <time>2016-06-20T11:36:50Z</time>
      </trkpt>
      <trkpt lat="48.21344" lon="-0.19448">
        <ele>146.4</ele>
        <time>2016-06-20T11:36:57Z</time>
      </trkpt>
      <trkpt lat="48.21337" lon="-0.19459">
        <ele>146.6</ele>
        <time>2016-06-20T11:37:06Z</time>
      </trkpt>
      <trkpt lat="48.21333" lon="-0.19474">
        <ele>147.2</ele>
        <time>2016-06-20T11:37:15Z</time>
      </trkpt>
      <trkpt lat="48.21328" lon="-0.19486">
        <ele>147</ele>
        <time>2016-06-20T11:37:52Z</time>
      </trkpt>
      <trkpt lat="48.21323" lon="-0.19498">
        <ele>147.4</ele>
        <time>2016-06-20T11:38:00Z</time>
      </trkpt>
      <trkpt lat="48.2132" lon="-0.19511">
        <ele>148.1</ele>
        <time>2016-06-20T11:38:08Z</time>
      </trkpt>
      <trkpt lat="48.21316" lon="-0.19525">
        <ele>148.2</ele>
        <time>2016-06-20T11:38:16Z</time>
      </trkpt>
      <trkpt lat="48.21313" lon="-0.19538">
        <ele>147.9</ele>
        <time>2016-06-20T11:38:24Z</time>
      </trkpt>
      <trkpt lat="48.21311" lon="-0.19552">
        <ele>148</ele>
        <time>2016-06-20T11:38:31Z</time>
      </trkpt>
      <trkpt lat="48.21308" lon="-0.19566">
        <ele>148.5</ele>
        <time>2016-06-20T11:38:39Z</time>
      </trkpt>
      <trkpt lat="48.21305" lon="-0.1958">
        <ele>149</ele>
        <time>2016-06-20T11:38:47Z</time>
      </trkpt>
      <trkpt lat="48.21302" lon="-0.19595">
        <ele>148.6</ele>
        <time>2016-06-20T11:38:56Z</time>
      </trkpt>
      <trkpt lat="48.21298" lon="-0.19608">
        <ele>148.5</ele>
        <time>2016-06-20T11:39:05Z</time>
      </trkpt>
      <trkpt lat="48.21295" lon="-0.1962">
        <ele>148.3</ele>
        <time>2016-06-20T11:39:14Z</time>
      </trkpt>
      <trkpt lat="48.21292" lon="-0.19633">
        <ele>148.1</ele>
        <time>2016-06-20T11:39:23Z</time>
      </trkpt>
      <trkpt lat="48.21285" lon="-0.19645">
        <ele>148.6</ele>
        <time>2016-06-20T11:40:02Z</time>
      </trkpt>
      <trkpt lat="48.2128" lon="-0.19657">
        <ele>147.9</ele>
        <time>2016-06-20T11:40:10Z</time>
      </trkpt>
      <trkpt lat="48.21275" lon="-0.19669">
        <ele>148.5</ele>
        <time>2016-06-20T11:40:17Z</time>
      </trkpt>
      <trkpt lat="48.21271" lon="-0.19682">
        <ele>147.9</ele>
        <time>2016-06-20T11:40:25Z</time>
      </trkpt>
      <trkpt lat="48.21266" lon="-0.19694">
        <ele>147.5</ele>
        <time>2016-06-20T11:40:32Z</time>
      </trkpt>
      <trkpt lat="48.21262" lon="-0.19707">
        <ele>146.6</ele>
        <time>2016-06-20T11:40:40Z</time>
      </trkpt>
      <trkpt lat="48.21257" lon="-0.19719">
        <ele>146.7</ele>
        <time>2016-06-20T11:40:47Z</time>
      </trkpt>
      <trkpt lat="48.21253" lon="-0.19732">
        <ele>146.9</ele>
        <time>2016-06-20T11:40:55Z</time>
      </trkpt>
      <trkpt lat="48.21248" lon="-0.19744">
        <ele>145.5</ele>
        <time>2016-06-20T11:41:03Z</time>
      </trkpt>
      <trkpt lat="48.21244" lon="-0.19757">
        <ele>144.9</ele>
        <time>2016-06-20T11:41:11Z</time>
      </trkpt>
      <trkpt lat="48.21239" lon="-0.19769">
        <ele>144.5</ele>
        <time>2016-06-20T11:41:19Z</time>
      </trkpt>
      <trkpt lat="48.21235" lon="-0.19781">
        <ele>143.7</ele>
        <time>2016-06-20T11:41:26Z</time>
      </trkpt>
      <trkpt lat="48.21231" lon="-0.19794">
        <ele>144.5</ele>
        <time>2016-06-20T11:41:34Z</time>
      </trkpt>
      <trkpt lat="48.21227" lon="-0.19807">
        <ele>144.7</ele>
        <time>2016-06-20T11:41:43Z</time>
      </trkpt>
      <trkpt lat="48.21225" lon="-0.19822">
        <ele>143.5</ele>
        <time>2016-06-20T11:41:59Z</time>
      </trkpt>
      <trkpt lat="48.21222" lon="-0.19836">
        <ele>143.5</ele>
        <time>2016-06-20T11:42:07Z</time>
      </trkpt>
      <trkpt lat="48.21219" lon="-0.1985">
        <ele>143.5</ele>
        <time>2016-06-20T11:42:15Z</time>
      </trkpt>
      <trkpt lat="48.21219" lon="-0.19864">
        <ele>144</ele>
        <time>2016-06-20T11:42:22Z</time>
      </trkpt>
      <trkpt lat="48.21217" lon="-0.19877">
        <ele>142.5</ele>
        <time>2016-06-20T11:42:30Z</time>
      </trkpt>
      <trkpt lat="48.21214" lon="-0.19892">
        <ele>142.6</ele>
        <time>2016-06-20T11:42:38Z</time>
      </trkpt>
      <trkpt lat="48.21211" lon="-0.19906">
        <ele>142.6</ele>
        <time>2016-06-20T11:42:47Z</time>
      </trkpt>
      <trkpt lat="48.21207" lon="-0.19919">
        <ele>143.2</ele>
        <time>2016-06-20T11:42:55Z</time>
      </trkpt>
      <trkpt lat="48.21203" lon="-0.19932">
        <ele>142.9</ele>
        <time>2016-06-20T11:43:03Z</time>
      </trkpt>
      <trkpt lat="48.21199" lon="-0.19944">
        <ele>143.1</ele>
        <time>2016-06-20T11:43:09Z</time>
      </trkpt>
      <trkpt lat="48.21192" lon="-0.19954">
        <ele>143</ele>
        <time>2016-06-20T11:43:17Z</time>
      </trkpt>
      <trkpt lat="48.21189" lon="-0.19968">
        <ele>143.1</ele>
        <time>2016-06-20T11:43:46Z</time>
      </trkpt>
      <trkpt lat="48.21186" lon="-0.19981">
        <ele>143.8</ele>
        <time>2016-06-20T11:44:32Z</time>
      </trkpt>
      <trkpt lat="48.21181" lon="-0.19993">
        <ele>143.2</ele>
        <time>2016-06-20T11:44:41Z</time>
      </trkpt>
      <trkpt lat="48.21174" lon="-0.20003">
        <ele>143.3</ele>
        <time>2016-06-20T11:44:50Z</time>
      </trkpt>
      <trkpt lat="48.21169" lon="-0.20014">
        <ele>144</ele>
        <time>2016-06-20T11:44:59Z</time>
      </trkpt>
      <trkpt lat="48.21163" lon="-0.20024">
        <ele>143.4</ele>
        <time>2016-06-20T11:45:07Z</time>
      </trkpt>
      <trkpt lat="48.21156" lon="-0.20033">
        <ele>142.8</ele>
        <time>2016-06-20T11:45:16Z</time>
      </trkpt>
      <trkpt lat="48.2115" lon="-0.20045">
        <ele>143.7</ele>
        <time>2016-06-20T11:45:24Z</time>
      </trkpt>
      <trkpt lat="48.21143" lon="-0.20054">
        <ele>143.3</ele>
        <time>2016-06-20T11:45:32Z</time>
      </trkpt>
      <trkpt lat="48.21137" lon="-0.20065">
        <ele>143.4</ele>
        <time>2016-06-20T11:45:40Z</time>
      </trkpt>
      <trkpt lat="48.21131" lon="-0.20076">
        <ele>143.3</ele>
        <time>2016-06-20T11:45:48Z</time>
      </trkpt>
      <trkpt lat="48.21124" lon="-0.20088">
        <ele>144.2</ele>
        <time>2016-06-20T11:45:57Z</time>
      </trkpt>
      <trkpt lat="48.21118" lon="-0.20099">
        <ele>143.9</ele>
        <time>2016-06-20T11:46:05Z</time>
      </trkpt>
      <trkpt lat="48.21112" lon="-0.20109">
        <ele>144.4</ele>
        <time>2016-06-20T11:46:14Z</time>
      </trkpt>
      <trkpt lat="48.21105" lon="-0.20121">
        <ele>144.3</ele>
        <time>2016-06-20T11:46:23Z</time>
      </trkpt>
      <trkpt lat="48.211" lon="-0.20134">
        <ele>145.2</ele>
        <time>2016-06-20T11:46:31Z</time>
      </trkpt>
      <trkpt lat="48.21095" lon="-0.20145">
        <ele>145.6</ele>
        <time>2016-06-20T11:46:39Z</time>
      </trkpt>
      <trkpt lat="48.21089" lon="-0.20156">
        <ele>145.8</ele>
        <time>2016-06-20T11:46:47Z</time>
      </trkpt>
      <trkpt lat="48.21082" lon="-0.20166">
        <ele>146.4</ele>
        <time>2016-06-20T11:46:57Z</time>
      </trkpt>
      <trkpt lat="48.21076" lon="-0.20177">
        <ele>146.2</ele>
        <time>2016-06-20T11:47:05Z</time>
      </trkpt>
      <trkpt lat="48.21069" lon="-0.20189">
        <ele>145.9</ele>
        <time>2016-06-20T11:47:14Z</time>
      </trkpt>
      <trkpt lat="48.21063" lon="-0.202">
        <ele>146.4</ele>
        <time>2016-06-20T11:47:22Z</time>
      </trkpt>
      <trkpt lat="48.21055" lon="-0.20205">
        <ele>146.5</ele>
        <time>2016-06-20T11:47:32Z</time>
      </trkpt>
      <trkpt lat="48.21045" lon="-0.20208">
        <ele>145.9</ele>
        <time>2016-06-20T11:47:40Z</time>
      </trkpt>
      <trkpt lat="48.21035" lon="-0.20211">
        <ele>145.5</ele>
        <time>2016-06-20T11:47:49Z</time>
      </trkpt>
      <trkpt lat="48.21025" lon="-0.20212">
        <ele>145.8</ele>
        <time>2016-06-20T11:47:59Z</time>
      </trkpt>
      <trkpt lat="48.21016" lon="-0.20213">
        <ele>146.4</ele>
        <time>2016-06-20T11:48:07Z</time>
      </trkpt>
      <trkpt lat="48.21006" lon="-0.20215">
        <ele>146.8</ele>
        <time>2016-06-20T11:48:15Z</time>
      </trkpt>
      <trkpt lat="48.20997" lon="-0.20215">
        <ele>147.1</ele>
        <time>2016-06-20T11:48:23Z</time>
      </trkpt>
      <trkpt lat="48.20987" lon="-0.20215">
        <ele>147</ele>
        <time>2016-06-20T11:48:31Z</time>
      </trkpt>
      <trkpt lat="48.20979" lon="-0.20221">
        <ele>147.3</ele>
        <time>2016-06-20T11:48:40Z</time>
      </trkpt>
      <trkpt lat="48.20969" lon="-0.20225">
        <ele>147.4</ele>
        <time>2016-06-20T11:48:48Z</time>
      </trkpt>
      <trkpt lat="48.20962" lon="-0.20232">
        <ele>148.7</ele>
        <time>2016-06-20T11:48:57Z</time>
      </trkpt>
      <trkpt lat="48.20959" lon="-0.20246">
        <ele>149</ele>
        <time>2016-06-20T11:49:08Z</time>
      </trkpt>
      <trkpt lat="48.2096" lon="-0.20259">
        <ele>148.3</ele>
        <time>2016-06-20T11:49:17Z</time>
      </trkpt>
      <trkpt lat="48.20962" lon="-0.20274">
        <ele>147.7</ele>
        <time>2016-06-20T11:49:27Z</time>
      </trkpt>
      <trkpt lat="48.20963" lon="-0.2029">
        <ele>149.4</ele>
        <time>2016-06-20T11:49:34Z</time>
      </trkpt>
      <trkpt lat="48.20964" lon="-0.20304">
        <ele>149.2</ele>
        <time>2016-06-20T11:49:42Z</time>
      </trkpt>
      <trkpt lat="48.20964" lon="-0.20318">
        <ele>149.1</ele>
        <time>2016-06-20T11:49:53Z</time>
      </trkpt>
      <trkpt lat="48.20966" lon="-0.20332">
        <ele>148.5</ele>
        <time>2016-06-20T11:50:02Z</time>
      </trkpt>
      <trkpt lat="48.20968" lon="-0.20346">
        <ele>148.3</ele>
        <time>2016-06-20T11:50:10Z</time>
      </trkpt>
      <trkpt lat="48.20971" lon="-0.20359">
        <ele>147.7</ele>
        <time>2016-06-20T11:50:18Z</time>
      </trkpt>
      <trkpt lat="48.20973" lon="-0.20373">
        <ele>147.3</ele>
        <time>2016-06-20T11:50:24Z</time>
      </trkpt>
      <trkpt lat="48.20979" lon="-0.20384">
        <ele>147.4</ele>
        <time>2016-06-20T11:50:35Z</time>
      </trkpt>
      <trkpt lat="48.20984" lon="-0.20396">
        <ele>147.5</ele>
        <time>2016-06-20T11:50:43Z</time>
      </trkpt>
      <trkpt lat="48.20986" lon="-0.2041">
        <ele>147.6</ele>
        <time>2016-06-20T11:50:48Z</time>
      </trkpt>
      <trkpt lat="48.20991" lon="-0.20424">
        <ele>148.2</ele>
        <time>2016-06-20T11:50:55Z</time>
      </trkpt>
      <trkpt lat="48.20998" lon="-0.20432">
        <ele>148</ele>
        <time>2016-06-20T11:51:06Z</time>
      </trkpt>
      <trkpt lat="48.21004" lon="-0.20444">
        <ele>147.1</ele>
        <time>2016-06-20T11:51:14Z</time>
      </trkpt>
      <trkpt lat="48.21009" lon="-0.20457">
        <ele>147.3</ele>
        <time>2016-06-20T11:51:24Z</time>
      </trkpt>
      <trkpt lat="48.21016" lon="-0.20467">
        <ele>147.9</ele>
        <time>2016-06-20T11:51:32Z</time>
      </trkpt>
      <trkpt lat="48.21022" lon="-0.20477">
        <ele>148.2</ele>
        <time>2016-06-20T11:51:39Z</time>
      </trkpt>
      <trkpt lat="48.21028" lon="-0.20488">
        <ele>148.5</ele>
        <time>2016-06-20T11:51:47Z</time>
      </trkpt>
      <trkpt lat="48.21036" lon="-0.20499">
        <ele>148.7</ele>
        <time>2016-06-20T11:51:56Z</time>
      </trkpt>
      <trkpt lat="48.2104" lon="-0.20511">
        <ele>148.4</ele>
        <time>2016-06-20T11:52:06Z</time>
      </trkpt>
      <trkpt lat="48.21042" lon="-0.20526">
        <ele>148.2</ele>
        <time>2016-06-20T11:52:17Z</time>
      </trkpt>
      <trkpt lat="48.21045" lon="-0.2054">
        <ele>147.9</ele>
        <time>2016-06-20T11:52:28Z</time>
      </trkpt>
      <trkpt lat="48.21048" lon="-0.20553">
        <ele>149.4</ele>
        <time>2016-06-20T11:52:37Z</time>
      </trkpt>
      <trkpt lat="48.21048" lon="-0.20567">
        <ele>149.4</ele>
        <time>2016-06-20T11:52:46Z</time>
      </trkpt>
      <trkpt lat="48.21051" lon="-0.2058">
        <ele>149.6</ele>
        <time>2016-06-20T11:52:58Z</time>
      </trkpt>
      <trkpt lat="48.21055" lon="-0.20594">
        <ele>150.3</ele>
        <time>2016-06-20T11:53:06Z</time>
      </trkpt>
      <trkpt lat="48.21064" lon="-0.20601">
        <ele>150.5</ele>
        <time>2016-06-20T11:53:21Z</time>
      </trkpt>
      <trkpt lat="48.2107" lon="-0.20612">
        <ele>150.9</ele>
        <time>2016-06-20T11:53:31Z</time>
      </trkpt>
      <trkpt lat="48.21079" lon="-0.20617">
        <ele>151</ele>
        <time>2016-06-20T11:53:45Z</time>
      </trkpt>
      <trkpt lat="48.21085" lon="-0.2063">
        <ele>151.6</ele>
        <time>2016-06-20T11:53:52Z</time>
      </trkpt>
      <trkpt lat="48.21093" lon="-0.20637">
        <ele>151.1</ele>
        <time>2016-06-20T11:54:00Z</time>
      </trkpt>
      <trkpt lat="48.21098" lon="-0.20626">
        <ele>150.5</ele>
        <time>2016-06-20T11:54:27Z</time>
      </trkpt>
      <trkpt lat="48.21105" lon="-0.20617">
        <ele>151.5</ele>
        <time>2016-06-20T11:54:41Z</time>
      </trkpt>
      <trkpt lat="48.21111" lon="-0.20613">
        <ele>151.5</ele>
        <time>2016-06-20T11:59:24Z</time>
      </trkpt>
    </trkseg>
  </trk>
</gpx>